[[{"header":{"parameterUnit":"m.s-1","parameterCategory":1,"la1":30.6,"la2":29.2853,"lo1":-89.7004,"lo2":-87.6739,"dy":0.0162,"dx":0.0183,"nx":112,"ny":82,"refTime":"2023-04-05T12:00:00:Z","depth":0,"parameterNumber":2,"parameterNumberName":"U-component_of_WINDS"},"data":[0.0,0.0,0.0,0.0,0.0,0.0,0.0,0.0,0.0,0.0,0.0,0.0,0.0,0.0,0.0,0.0,0.0,0.0,0.0,0.0,0.0,0.0,0.0,0.0,0.0,0.0,0.0,0.0,0.0,0.0,0.0,0.0,0.0,0.0,0.0,0.0,0.0,0.0,0.0,0.0,0.0,0.0,0.0,0.0,0.0,0.0,0.0,0.0,0.0,0.0,0.0,0.0,0.0,0.0,0.0,0.0,0.0,0.0,0.0,0.0,0.0,0.0,0.0,0.0,0.0,0.0,0.0,0.0,0.0,0.0,0.0,0.0,0.0,0.0,0.0,0.0,0.0,0.0,0.0,0.0,0.0,0.0,0.0,0.0,0.0,0.0,0.0,0.0,0.0,0.0,0.0,4.0053,4.3394,4.5278,4.4462,4.452,4.2371,3.715,0.0,0.0,0.0,0.0,0.0,0.0,0.0,0.0,0.0,0.0,0.0,0.0,0.0,0.0,0.0,0.0,0.0,0.0,0.0,0.0,0.0,0.0,0.0,0.0,0.0,0.0,0.0,0.0,0.0,0.0,0.0,0.0,0.0,0.0,0.0,0.0,0.0,0.0,0.0,0.0,0.0,0.0,0.0,0.0,0.0,0.0,0.0,0.0,0.0,0.0,0.0,0.0,0.0,0.0,0.0,0.0,0.0,0.0,0.0,0.0,0.0,0.0,0.0,0.0,0.0,0.0,0.0,0.0,0.0,0.0,0.0,0.0,0.0,0.0,0.0,0.0,0.0,0.0,0.0,0.0,0.0,0.0,0.0,0.0,0.0,0.0,0.0,0.0,0.0,0.0,0.0,0.0,0.0,0.0,0.0,0.0,0.0,0.0,0.0,0.0,0.0,0.0,0.0,0.0,3.9478,4.1597,4.3063,4.353,4.2675,4.3277,4.1771,3.7248,0.0,0.0,0.0,0.0,0.0,0.0,0.0,0.0,0.0,0.0,0.0,0.0,0.0,0.0,0.0,0.0,0.0,0.0,0.0,0.0,0.0,0.0,0.0,0.0,0.0,0.0,0.0,0.0,0.0,0.0,0.0,0.0,0.0,0.0,0.0,0.0,0.0,0.0,0.0,0.0,0.0,0.0,0.0,0.0,0.0,0.0,0.0,0.0,0.0,0.0,0.0,0.0,0.0,0.0,0.0,0.0,0.0,0.0,0.0,0.0,0.0,0.0,0.0,0.0,0.0,0.0,0.0,0.0,0.0,0.0,0.0,0.0,0.0,0.0,0.0,0.0,0.0,0.0,0.0,0.0,0.0,0.0,0.0,0.0,0.0,0.0,0.0,0.0,0.0,0.0,0.0,0.0,0.0,0.0,0.0,0.0,0.0,0.0,0.0,0.0,0.0,0.0,0.0,3.7299,3.9066,4.252,4.3258,4.3335,4.2947,4.3277,4.1635,3.7288,3.6936,0.0,0.0,0.0,0.0,0.0,0.0,0.0,0.0,0.0,0.0,0.0,0.0,0.0,0.0,0.0,0.0,0.0,0.0,0.0,0.0,0.0,0.0,0.0,0.0,0.0,0.0,0.0,0.0,0.0,0.0,0.0,0.0,0.0,0.0,0.0,0.0,0.0,0.0,0.0,0.0,0.0,0.0,0.0,0.0,0.0,0.0,0.0,0.0,0.0,0.0,0.0,0.0,0.0,0.0,0.0,0.0,0.0,0.0,0.0,0.0,0.0,0.0,0.0,0.0,0.0,0.0,0.0,0.0,0.0,0.0,0.0,0.0,0.0,0.0,0.0,0.0,0.0,0.0,0.0,0.0,0.0,0.0,0.0,0.0,0.0,0.0,0.0,0.0,0.0,0.0,0.0,0.0,0.0,0.0,0.0,0.0,0.0,0.0,0.0,0.0,0.0,0.0,3.7926,3.9263,4.2539,4.3063,4.3199,4.3199,4.3374,4.1655,3.7308,3.7017,0.0,0.0,0.0,0.0,0.0,0.0,0.0,0.0,0.0,0.0,0.0,0.0,0.0,0.0,0.0,0.0,0.0,0.0,0.0,0.0,0.0,0.0,0.0,0.0,0.0,0.0,0.0,0.0,0.0,0.0,0.0,0.0,0.0,0.0,0.0,0.0,0.0,0.0,0.0,0.0,0.0,0.0,0.0,0.0,0.0,0.0,0.0,0.0,0.0,0.0,0.0,0.0,0.0,0.0,0.0,0.0,0.0,0.0,0.0,0.0,0.0,0.0,0.0,0.0,0.0,0.0,0.0,0.0,0.0,0.0,0.0,0.0,0.0,0.0,0.0,0.0,0.0,0.0,0.0,0.0,0.0,0.0,0.0,0.0,0.0,0.0,0.0,0.0,0.0,0.0,0.0,0.0,0.0,0.0,0.0,0.0,0.0,0.0,0.0,0.0,0.0,0.0,3.8799,4.0824,4.1053,4.1801,4.2287,4.2287,4.3027,4.1673,3.7353,3.7092,0.0,0.0,0.0,0.0,0.0,0.0,0.0,0.0,0.0,0.0,0.0,0.0,0.0,0.0,0.0,0.0,0.0,0.0,0.0,0.0,0.0,0.0,0.0,0.0,0.0,0.0,0.0,0.0,0.0,0.0,0.0,0.0,0.0,0.0,0.0,0.0,0.0,0.0,0.0,0.0,0.0,0.0,0.0,0.0,0.0,0.0,0.0,0.0,0.0,0.0,0.0,0.0,0.0,0.0,0.0,0.0,0.0,0.0,0.0,0.0,0.0,0.0,0.0,0.0,0.0,0.0,0.0,0.0,0.0,0.0,0.0,0.0,0.0,0.0,0.0,0.0,0.0,0.0,0.0,0.0,0.0,0.0,0.0,0.0,0.0,0.0,0.0,0.0,0.0,0.0,0.0,0.0,0.0,0.0,0.0,0.0,0.0,0.0,0.0,0.0,0.0,0.0,3.8411,4.0593,0.0,4.251,4.3238,4.3783,4.363,4.1916,3.821,0.0,0.0,0.0,0.0,0.0,0.0,0.0,0.0,0.0,0.0,0.0,0.0,0.0,0.0,0.0,0.0,0.0,0.0,0.0,0.0,0.0,0.0,0.0,0.0,0.0,0.0,0.0,0.0,0.0,0.0,0.0,0.0,0.0,0.0,0.0,0.0,0.0,0.0,0.0,0.0,0.0,0.0,0.0,0.0,0.0,0.0,0.0,0.0,0.0,0.0,0.0,0.0,0.0,0.0,0.0,0.0,0.0,0.0,0.0,0.0,0.0,0.0,0.0,0.0,0.0,0.0,0.0,0.0,0.0,0.0,0.0,0.0,0.0,0.0,0.0,0.0,0.0,0.0,0.0,0.0,0.0,0.0,0.0,0.0,0.0,0.0,0.0,0.0,0.0,0.0,0.0,0.0,0.0,0.0,0.0,0.0,0.0,0.0,0.0,0.0,0.0,0.0,3.6112,3.8787,4.1082,0.0,4.3446,4.4187,4.4791,4.4022,4.1968,3.8316,0.0,0.0,0.0,0.0,0.0,0.0,0.0,0.0,0.0,0.0,0.0,0.0,0.0,0.0,0.0,0.0,0.0,0.0,0.0,0.0,0.0,0.0,0.0,0.0,0.0,0.0,0.0,0.0,0.0,0.0,0.0,0.0,0.0,0.0,0.0,0.0,0.0,0.0,0.0,0.0,0.0,0.0,0.0,0.0,0.0,0.0,0.0,0.0,0.0,0.0,0.0,0.0,0.0,0.0,0.0,0.0,0.0,0.0,0.0,0.0,0.0,0.0,0.0,0.0,0.0,0.0,0.0,0.0,0.0,0.0,0.0,0.0,0.0,0.0,0.0,0.0,0.0,0.0,0.0,0.0,0.0,0.0,0.0,0.0,0.0,0.0,0.0,0.0,0.0,0.0,0.0,0.0,0.0,0.0,0.0,0.0,0.0,0.0,0.0,0.0,0.0,0.0,3.7109,4.0215,4.2656,4.352,4.4393,4.4917,4.4917,4.4098,4.1775,0.0,0.0,0.0,0.0,0.0,0.0,0.0,0.0,0.0,0.0,0.0,0.0,0.0,0.0,0.0,0.0,0.0,0.0,0.0,0.0,0.0,0.0,0.0,0.0,0.0,0.0,0.0,0.0,0.0,0.0,0.0,0.0,0.0,0.0,0.0,0.0,0.0,0.0,0.0,0.0,0.0,0.0,0.0,0.0,0.0,0.0,0.0,0.0,0.0,0.0,0.0,0.0,0.0,0.0,0.0,0.0,0.0,0.0,0.0,0.0,0.0,0.0,0.0,0.0,0.0,0.0,0.0,0.0,0.0,0.0,0.0,0.0,0.0,0.0,0.0,0.0,0.0,0.0,0.0,0.0,0.0,0.0,0.0,0.0,0.0,0.0,0.0,0.0,0.0,0.0,0.0,0.0,0.0,0.0,0.0,0.0,0.0,0.0,0.0,0.0,0.0,0.0,0.0,3.8082,4.1631,4.4223,4.4492,4.5214,4.5678,4.5678,4.427,4.185,3.8261,0.0,0.0,0.0,0.0,0.0,0.0,0.0,0.0,0.0,0.0,0.0,0.0,0.0,0.0,0.0,0.0,0.0,0.0,0.0,0.0,0.0,0.0,0.0,0.0,0.0,0.0,0.0,0.0,0.0,0.0,0.0,0.0,0.0,0.0,0.0,0.0,0.0,0.0,0.0,0.0,0.0,0.0,0.0,0.0,0.0,0.0,0.0,0.0,0.0,0.0,0.0,0.0,0.0,0.0,0.0,0.0,0.0,0.0,0.0,0.0,0.0,0.0,0.0,0.0,0.0,0.0,0.0,0.0,0.0,0.0,0.0,0.0,0.0,0.0,0.0,0.0,0.0,0.0,0.0,0.0,0.0,0.0,0.0,0.0,0.0,0.0,0.0,0.0,0.0,0.0,0.0,0.0,0.0,0.0,0.0,0.0,0.0,0.0,0.0,0.0,0.0,0.0,3.8844,4.2357,4.4903,4.526,4.5688,4.5962,4.5962,4.435,4.2054,3.9035,0.0,0.0,0.0,0.0,0.0,0.0,0.0,0.0,0.0,0.0,0.0,0.0,0.0,0.0,0.0,0.0,0.0,0.0,0.0,0.0,0.0,0.0,0.0,0.0,0.0,0.0,0.0,0.0,0.0,0.0,0.0,0.0,0.0,0.0,0.0,0.0,0.0,0.0,0.0,0.0,0.0,0.0,0.0,0.0,0.0,0.0,0.0,0.0,0.0,0.0,0.0,0.0,0.0,0.0,0.0,0.0,0.0,0.0,0.0,0.0,0.0,0.0,0.0,0.0,0.0,0.0,0.0,0.0,0.0,0.0,0.0,0.0,0.0,0.0,0.0,0.0,0.0,0.0,0.0,0.0,0.0,0.0,0.0,0.0,0.0,0.0,0.0,0.0,0.0,0.0,0.0,0.0,0.0,0.0,0.0,0.0,0.0,0.0,0.0,0.0,0.0,0.0,3.9489,4.2624,4.5025,4.5817,4.5897,4.5889,4.5889,4.4411,4.2363,3.9782,0.0,0.0,0.0,0.0,0.0,0.0,0.0,0.0,0.0,0.0,0.0,0.0,0.0,0.0,0.0,0.0,0.0,0.0,0.0,0.0,0.0,0.0,0.0,0.0,0.0,0.0,0.0,0.0,0.0,0.0,0.0,0.0,0.0,0.0,0.0,0.0,0.0,0.0,0.0,0.0,0.0,0.0,0.0,0.0,0.0,0.0,0.0,0.0,0.0,0.0,0.0,0.0,0.0,0.0,0.0,0.0,0.0,0.0,0.0,0.0,3.9035,0.0,0.0,0.0,0.0,0.0,0.0,0.0,0.0,0.0,0.0,0.0,0.0,0.0,0.0,0.0,0.0,0.0,0.0,0.0,0.0,0.0,0.0,0.0,0.0,0.0,0.0,0.0,0.0,0.0,0.0,0.0,0.0,0.0,0.0,0.0,0.0,0.0,0.0,0.0,0.0,0.0,4.0427,4.3443,4.5646,4.5875,4.5854,4.5815,4.5815,4.4776,4.3033,4.0526,0.0,0.0,0.0,0.0,0.0,0.0,0.0,0.0,0.0,0.0,0.0,0.0,0.0,0.0,0.0,0.0,0.0,0.0,0.0,0.0,0.0,0.0,0.0,0.0,0.0,0.0,0.0,0.0,0.0,0.0,0.0,0.0,0.0,0.0,0.0,0.0,0.0,0.0,0.0,0.0,0.0,0.0,0.0,0.0,0.0,0.0,0.0,0.0,0.0,0.0,0.0,0.0,0.0,0.0,0.0,0.0,0.0,0.0,0.0,0.0,0.0,3.9855,0.0,0.0,0.0,0.0,0.0,0.0,0.0,0.0,0.0,0.0,0.0,0.0,0.0,0.0,0.0,0.0,0.0,0.0,0.0,0.0,0.0,0.0,0.0,0.0,0.0,0.0,0.0,0.0,0.0,0.0,0.0,0.0,0.0,0.0,0.0,0.0,0.0,0.0,0.0,0.0,4.05,4.3501,4.5623,4.5658,4.5541,4.5435,4.5417,4.446,4.3157,4.1474,3.983,0.0,0.0,0.0,0.0,0.0,0.0,0.0,0.0,0.0,0.0,0.0,0.0,0.0,0.0,0.0,0.0,0.0,0.0,0.0,0.0,0.0,0.0,0.0,0.0,0.0,0.0,0.0,0.0,0.0,0.0,0.0,0.0,0.0,0.0,0.0,0.0,0.0,0.0,0.0,0.0,0.0,0.0,0.0,0.0,0.0,0.0,0.0,0.0,0.0,0.0,0.0,0.0,0.0,4.1448,4.1228,4.0409,4.0532,4.1364,4.2692,4.2834,4.3053,4.3131,0.0,0.0,0.0,0.0,0.0,0.0,0.0,0.0,0.0,0.0,0.0,0.0,0.0,0.0,0.0,0.0,0.0,0.0,0.0,0.0,0.0,0.0,0.0,0.0,0.0,4.2914,4.3588,0.0,0.0,0.0,0.0,0.0,0.0,0.0,0.0,0.0,0.0,0.0,0.0,4.0466,4.3407,4.5398,4.5398,4.5218,4.5052,4.5007,4.4156,4.3258,4.2427,4.0306,3.8587,0.0,0.0,0.0,0.0,0.0,0.0,0.0,0.0,0.0,0.0,0.0,0.0,0.0,0.0,0.0,0.0,0.0,0.0,0.0,0.0,0.0,0.0,0.0,0.0,0.0,0.0,0.0,0.0,0.0,0.0,0.0,0.0,3.758,3.7696,0.0,0.0,0.0,0.0,0.0,0.0,0.0,0.0,0.0,0.0,0.0,0.0,0.0,4.0558,4.079,4.2241,4.2589,4.1874,4.4078,4.4757,4.4032,4.4666,4.5125,4.5428,4.6118,0.0,4.3227,4.2125,0.0,0.0,0.0,0.0,0.0,0.0,0.0,0.0,0.0,0.0,0.0,0.0,0.0,0.0,0.0,0.0,0.0,0.0,0.0,0.0,0.0,0.0,4.4997,4.5059,4.5273,4.5351,0.0,4.2294,3.9507,3.8508,3.7618,0.0,0.0,0.0,0.0,0.0,0.0,0.0,4.1246,4.3713,4.5398,4.5398,4.5156,4.5007,4.5007,4.4662,4.4051,4.3221,4.2233,4.0646,3.8271,3.6977,0.0,0.0,0.0,0.0,0.0,0.0,0.0,0.0,0.0,0.0,0.0,0.0,0.0,0.0,0.0,0.0,0.0,0.0,0.0,0.0,0.0,0.0,0.0,0.0,0.0,0.0,0.0,0.0,0.0,3.6729,3.7464,3.7464,3.7251,3.6729,0.0,0.0,0.0,0.0,0.0,0.0,0.0,0.0,0.0,4.187,4.2024,4.2319,4.2763,4.407,4.4291,4.3479,4.5045,4.5388,4.466,4.5446,4.5576,4.5202,4.6027,4.5742,4.4639,4.3808,4.2531,4.0926,0.0,0.0,0.0,0.0,3.9488,3.9725,4.1362,4.1909,0.0,0.0,0.0,0.0,0.0,0.0,0.0,0.0,0.0,0.0,0.0,0.0,0.0,4.5418,4.5645,4.5645,4.5636,4.381,4.1969,0.0,3.9971,3.8427,3.6517,0.0,0.0,0.0,0.0,0.0,4.1865,4.3639,4.4838,4.4838,4.4643,4.4277,4.3743,4.3502,4.2728,4.1211,4.0804,3.9838,3.8033,3.6582,3.5371,0.0,0.0,0.0,0.0,0.0,0.0,0.0,0.0,0.0,0.0,0.0,0.0,0.0,0.0,0.0,0.0,0.0,0.0,0.0,0.0,0.0,0.0,0.0,0.0,0.0,0.0,0.0,0.0,3.7576,3.8337,3.7947,3.8756,3.873,0.0,0.0,0.0,0.0,0.0,0.0,4.1069,4.0989,4.1607,4.31,4.3496,4.3874,4.4239,4.5202,4.5287,4.4495,4.5306,4.5283,4.4544,4.537,4.5443,4.4949,4.5501,4.5771,4.5742,4.5142,4.4272,4.3189,4.1932,4.1177,4.0836,4.106,4.117,4.1424,4.3156,4.3771,4.377,4.3688,0.0,4.2874,4.2174,0.0,0.0,0.0,0.0,4.2221,4.3638,4.3987,4.4237,4.524,4.547,4.5488,4.5466,4.4626,4.3782,0.0,4.2311,4.0597,3.8324,0.0,0.0,0.0,0.0,4.1665,4.2408,4.3615,4.4383,4.4383,4.4192,4.3695,4.2791,4.2493,4.1611,3.9797,3.9506,3.8971,3.8007,3.647,3.5508,3.5184,0.0,0.0,0.0,0.0,0.0,0.0,0.0,0.0,0.0,0.0,0.0,0.0,0.0,0.0,0.0,0.0,0.0,0.0,0.0,0.0,0.0,0.0,0.0,0.0,0.0,0.0,0.0,0.0,0.0,4.0778,4.1774,0.0,0.0,0.0,0.0,4.0189,4.0266,4.1013,4.2602,4.2679,4.31,4.4019,4.4863,4.4921,4.4115,4.4978,4.4978,4.4134,4.4997,4.5033,4.4344,4.5208,4.5658,4.5722,4.5642,4.5677,4.58,4.5761,4.4775,4.3285,4.3208,4.2202,4.0971,4.2429,4.2961,4.331,4.5611,4.6416,4.6262,4.5457,4.4097,4.3101,4.4614,4.3963,0.0,0.0,4.4884,4.5071,4.5917,4.614,4.5974,4.5297,4.5129,4.5129,4.5129,4.4,4.3211,0.0,4.3405,4.2393,4.1437,0.0,4.1264,4.0919,4.1651,4.2427,4.3002,4.3839,4.4383,4.4383,4.4181,4.3633,4.2772,4.2479,4.1766,4.0509,3.9799,3.9189,3.8668,3.7529,3.6339,3.5117,3.4379,0.0,0.0,0.0,0.0,0.0,0.0,0.0,0.0,0.0,0.0,0.0,0.0,0.0,0.0,0.0,0.0,0.0,0.0,0.0,0.0,0.0,0.0,0.0,0.0,0.0,0.0,0.0,0.0,4.0668,4.185,0.0,4.0545,4.1227,4.182,4.1895,4.2732,4.3586,4.4302,4.4748,4.4874,4.463,4.554,4.5373,4.3978,4.4921,4.4959,4.4116,4.4978,4.5266,4.5015,4.5322,4.5493,4.5545,4.5493,4.5493,4.5584,4.6086,4.5745,4.491,4.491,4.4829,4.4778,4.5343,4.5763,4.6181,4.7019,4.7217,4.7086,4.6915,4.6505,4.6185,4.6779,4.6549,4.6089,4.6066,4.6086,4.5986,4.5665,4.5582,4.5483,4.5067,4.4967,4.4967,4.5033,4.463,4.4331,4.4573,4.3674,4.2564,4.1648,4.2252,4.2446,4.1272,4.1945,4.2838,4.3591,4.3782,4.3823,4.3823,4.373,4.3011,4.1434,4.1225,4.0293,3.8302,3.7947,3.7598,3.7184,3.6777,3.6336,3.5876,3.5654,3.4266,0.0,0.0,0.0,0.0,0.0,0.0,0.0,0.0,0.0,0.0,0.0,0.0,0.0,0.0,0.0,0.0,0.0,0.0,0.0,0.0,0.0,0.0,0.0,0.0,0.0,0.0,4.2218,4.0649,4.2334,4.3005,4.1391,4.2544,4.3452,4.3598,4.4414,4.5076,4.5521,4.5689,4.5501,4.4914,4.5546,4.5236,4.3866,4.4756,4.4934,4.438,4.4953,4.526,4.5321,4.5321,4.5361,4.54,4.5629,4.5763,4.5879,4.6663,4.6781,4.651,4.651,4.681,4.7222,4.7184,4.739,4.7724,4.7962,4.8131,4.8275,4.8403,4.8505,4.856,4.856,4.856,4.8445,4.7872,4.751,4.7086,4.6172,4.5731,4.5441,4.4995,4.4895,4.4895,4.4943,4.49,4.4808,4.4726,4.4068,4.3309,4.2585,4.3261,4.3171,4.113,4.2156,4.3015,4.2643,4.2912,4.3041,4.2919,4.2646,4.1775,4.0023,3.9175,3.8223,3.6974,3.6085,3.574,3.6139,3.5393,3.5221,3.5719,3.5608,3.443,3.2195,0.0,0.0,0.0,0.0,0.0,0.0,0.0,0.0,0.0,0.0,0.0,0.0,0.0,0.0,0.0,0.0,0.0,0.0,0.0,0.0,0.0,0.0,0.0,4.0823,4.1906,4.2384,4.1081,4.3444,4.4648,4.3278,4.4221,4.4986,4.5208,4.501,4.5274,4.6146,4.5407,4.4933,4.4895,4.4933,4.4554,4.3758,4.4516,4.4895,4.4895,4.4895,4.4991,4.5192,4.5192,4.5277,4.5457,4.6116,4.6481,4.6683,4.7433,4.7818,4.7909,4.791,4.791,4.7928,4.7796,4.7766,4.7876,4.8517,4.9235,4.9898,4.9898,4.9898,4.9898,4.9898,4.9898,4.9879,4.986,4.9292,4.8477,4.7586,4.6771,4.5975,4.5103,4.4895,4.4895,4.4895,4.4688,4.4493,4.4465,4.4629,4.4674,4.443,4.4383,4.3493,4.084,4.2445,0.0,4.0336,4.1317,4.2097,4.1687,4.0926,3.9932,3.8758,3.6612,3.5741,3.6812,3.4474,3.3882,3.5725,3.3651,3.3158,3.4567,3.4236,3.3679,3.2934,0.0,0.0,0.0,0.0,0.0,0.0,0.0,0.0,0.0,0.0,0.0,0.0,0.0,0.0,0.0,0.0,0.0,0.0,0.0,0.0,0.0,0.0,4.2768,4.2425,4.3637,4.4399,4.4039,4.4598,4.4824,4.444,4.4725,4.5185,4.5859,4.528,4.5274,4.6146,4.5975,4.5539,4.4914,4.5501,4.5426,4.4573,4.4781,4.4895,4.4895,4.4895,4.4919,4.4967,4.4967,4.5356,4.5993,4.6168,4.663,4.7224,4.8068,4.8454,4.8452,4.8056,4.8211,4.8636,4.8745,4.9102,4.9515,4.9561,4.9709,4.9898,4.9898,4.9898,4.9898,4.9898,4.9898,4.9765,4.9178,4.8856,4.8344,4.6904,4.6373,4.5975,4.5103,4.4895,4.4827,4.4584,4.4484,4.4299,4.3931,4.3886,4.4011,4.4289,4.4192,4.3837,4.3107,4.3122,0.0,4.2177,4.1703,4.1266,4.08,3.9391,3.8313,3.7881,3.6264,3.554,3.6071,3.5154,3.484,3.5328,3.4774,3.4363,3.4261,3.3379,3.24,0.0,0.0,0.0,0.0,0.0,0.0,0.0,0.0,0.0,0.0,0.0,0.0,0.0,0.0,0.0,0.0,0.0,0.0,0.0,0.0,0.0,0.0,4.26,4.3942,4.4051,4.4728,4.5213,4.5279,4.5433,4.5551,4.5624,4.5504,4.5683,4.625,4.5418,4.5274,4.6146,4.5843,4.5748,4.5937,4.6108,4.6108,4.5956,4.5956,4.5956,4.5956,4.5956,4.5956,4.5956,4.5956,4.6222,0.0,4.6695,4.6961,4.7434,4.7946,4.8155,0.0,0.0,0.0,0.0,0.0,4.9744,5.0063,4.9933,4.9898,4.9898,4.9898,4.9898,4.9898,4.9898,4.9898,4.9879,4.9765,4.9235,4.8534,4.7908,4.7226,4.6487,4.5653,4.5445,4.5237,4.456,4.4299,4.4065,4.3575,4.3461,0.0,4.3487,4.349,4.3109,4.1996,4.2305,4.2235,4.1133,4.1032,4.0899,4.0456,3.9159,3.8238,3.7985,3.5856,0.0,0.0,0.0,3.3561,3.3592,3.4119,0.0,0.0,0.0,3.2491,3.1905,0.0,0.0,0.0,2.8682,2.7697,0.0,0.0,0.0,0.0,0.0,0.0,0.0,0.0,0.0,0.0,0.0,0.0,0.0,0.0,0.0,0.0,4.394,4.5534,4.5515,4.5489,4.5485,4.5514,4.6097,4.6549,4.668,4.6473,4.6429,4.6633,4.5732,4.5558,4.643,0.0,0.0,0.0,0.0,4.6676,4.7378,4.7397,4.7397,4.7397,4.7397,4.7397,4.7397,4.7397,4.7453,4.7529,4.7434,4.7453,4.7529,4.7434,4.7397,4.7548,4.914,4.9803,4.9898,4.9898,4.9898,4.9898,4.9898,0.0,0.0,4.9898,4.9898,4.9898,4.9898,4.9898,5.005,5.0846,4.9974,4.8969,4.9549,4.8575,4.7269,4.641,4.6195,4.5908,4.4806,4.4326,4.3994,4.3552,4.3269,4.2989,4.2436,4.2537,4.1895,3.9568,4.0842,4.1268,3.9014,3.9962,4.066,4.021,0.0,0.0,3.8394,3.536,3.443,3.6581,3.3379,3.1449,3.1462,3.2582,3.2607,3.1287,3.2471,3.3211,3.3441,3.2775,3.2454,3.2391,2.8802,2.7797,0.0,0.0,0.0,0.0,0.0,0.0,0.0,0.0,0.0,0.0,0.0,0.0,0.0,0.0,0.0,4.2278,4.469,4.6376,4.6233,4.68,4.6969,4.6285,4.6792,4.7226,4.7232,4.7201,4.7479,4.8188,4.7422,4.7302,4.8155,4.7378,0.0,4.7378,4.7245,4.7245,4.7397,4.7397,4.7397,4.7397,0.0,0.0,4.7397,4.7397,4.7776,4.8401,4.77,4.7795,4.8382,4.7681,4.7397,4.7491,4.8515,4.933,4.9898,4.9898,4.9898,4.9898,4.9898,4.9898,4.9898,4.9898,4.9898,4.9898,4.9898,4.9898,0.0,5.0088,4.9917,4.9465,4.8673,4.8209,4.768,4.6533,4.6283,4.6132,4.5635,4.5458,4.5132,4.416,4.3628,4.3107,4.2364,4.24,4.2243,4.1375,4.127,4.1191,4.078,4.0155,3.9558,3.8945,3.7377,3.6546,3.7047,3.4889,3.4096,3.5514,3.3578,3.2384,3.2538,3.2756,3.273,3.2326,3.2959,3.2797,3.1903,3.1505,3.1397,3.1475,3.0159,2.9699,0.0,0.0,0.0,0.0,0.0,0.0,0.0,0.0,0.0,0.0,0.0,3.9477,0.0,0.0,4.2951,4.4499,4.6146,4.6999,4.6473,4.7448,4.7924,4.7231,4.7691,4.8093,4.8137,4.8099,4.823,4.8666,4.7889,4.7586,4.8022,4.7624,4.7605,4.8041,4.8041,4.823,4.8647,4.8647,4.8647,4.8647,4.8647,4.8647,4.8647,4.8647,4.8875,4.9235,4.8401,4.8287,4.859,4.7321,4.679,4.6828,4.7264,4.7927,4.8685,4.9121,4.9292,4.9349,4.9746,4.9898,4.9898,4.9898,4.9898,4.9852,4.9712,4.9655,4.9701,4.9946,4.9678,4.9309,4.9118,4.8786,4.8199,4.7196,4.6943,4.6731,4.5956,4.581,4.5369,4.4007,4.356,4.2999,4.1728,4.1569,4.1552,4.1348,4.1001,4.0802,4.0802,4.0092,3.9408,3.9098,3.7703,3.6918,3.7283,3.5538,3.434,3.4101,3.3491,3.3029,3.2841,3.3032,3.3162,3.3082,3.3215,3.303,3.2412,3.1834,3.1609,3.1626,3.0553,2.9748,0.0,0.0,0.0,0.0,0.0,0.0,0.0,0.0,3.804,4.0481,4.11,4.2067,4.4805,4.4639,4.4694,4.6564,4.7336,4.7491,4.6781,4.7857,4.8642,4.8409,4.871,4.8972,4.9066,4.8998,4.8913,4.8913,4.8268,4.7889,4.7889,4.7889,4.8211,4.8894,4.8913,4.9235,4.9879,4.9898,4.9898,4.9898,4.9898,4.9898,4.9898,4.9898,4.9898,4.9841,4.9045,4.859,4.8325,4.698,4.643,4.643,4.643,4.6828,4.751,4.8363,4.878,4.9026,4.9597,4.9797,4.9797,4.9722,4.9693,4.9636,4.9365,4.9302,4.937,4.9756,4.9336,4.8948,4.9581,4.923,4.8509,4.7646,4.7444,4.7169,4.6095,4.5851,4.5403,4.3786,4.3393,4.2811,4.1081,4.0659,4.0514,4.0676,4.0451,4.0221,4.0121,3.9662,3.9332,3.9139,3.8332,3.7671,3.7355,3.6017,3.4454,3.2632,3.2944,3.2915,3.2378,3.2686,3.2922,3.3058,3.2945,3.286,3.286,3.2015,3.1636,3.1549,2.9973,2.8888,3.2725,3.3286,3.5298,3.7278,3.8342,3.9901,0.0,0.0,4.4098,4.5877,4.6864,4.7472,4.7747,4.7713,4.743,4.682,4.7376,4.7834,4.7757,4.8391,4.9186,5.0019,4.991,4.9773,4.98,4.9773,4.9765,4.9765,4.9671,4.9614,4.9614,4.9614,4.9652,4.9746,4.9765,4.9803,4.9898,4.9898,4.9898,4.9898,4.9898,4.9898,4.9898,4.9898,4.9898,4.9841,4.9045,4.8249,4.7529,4.734,4.7264,4.7264,4.7264,4.7321,4.751,4.8363,4.914,4.9738,4.9529,4.9476,4.9396,4.9019,4.8919,4.8919,4.8885,4.885,4.8869,4.8927,4.889,4.873,4.855,4.8437,4.8135,4.7209,4.6972,4.6802,4.6189,4.6076,4.5605,4.4067,4.3393,4.2621,4.1043,4.0003,3.9558,4.0121,3.9679,3.9401,3.9489,3.9011,3.8374,3.7642,3.7467,3.6726,3.5294,3.4787,3.3676,3.1689,3.1406,3.1033,3.0334,3.0355,3.0659,3.118,3.1193,3.1193,3.1193,3.038,2.9999,2.9922,2.8279,2.7787,3.7715,3.756,3.7851,0.0,4.0694,4.1409,4.3189,4.3711,4.4465,4.6651,4.7792,4.8377,4.833,4.8314,4.8183,0.0,4.8296,4.876,4.8779,4.935,4.9912,5.023,5.0144,5.0063,5.0063,4.9959,4.9898,4.9898,5.0012,5.0012,4.9925,5.0012,5.0012,4.9906,4.9898,4.9898,4.9898,4.9898,4.9898,4.9898,4.9898,4.9898,4.9898,4.9898,4.9898,4.9879,4.9538,4.8913,4.8155,4.8155,4.7851,4.7397,4.7397,4.77,4.8193,4.8553,4.8748,4.8899,4.9258,4.927,4.9038,4.885,4.8816,4.8746,4.8569,4.8495,4.8458,4.8231,4.8153,4.8075,4.7591,4.7482,4.7291,4.6595,4.6454,4.6358,4.6165,4.6098,4.5544,4.3732,4.3242,4.2412,4.0257,3.9506,3.9152,3.9065,3.8849,3.8684,3.8778,3.7962,3.6872,3.5567,3.5454,3.5026,3.4016,3.3368,3.2539,3.1364,3.1097,3.069,3.0045,3.0032,3.015,3.0459,3.0131,2.9887,2.9653,2.9341,2.8879,2.8104,2.7464,2.6823,3.934,0.0,0.0,4.1525,4.2531,4.3053,4.3053,4.3711,4.4871,4.6709,4.7792,4.8392,4.8392,4.8604,4.8682,4.843,4.8957,4.9392,4.9355,4.9777,5.0068,5.01,5.0163,5.0163,5.0114,5.0005,4.9898,4.9898,5.0038,5.0038,4.9925,5.0038,5.0038,4.9906,4.9898,4.9898,4.9898,4.9898,4.9898,4.9898,4.9898,4.9898,4.9898,4.9898,4.9898,4.9898,4.9898,4.9557,4.9026,4.9026,4.8647,4.8079,4.7999,4.8351,4.8871,4.8768,4.8614,4.8521,4.895,4.8922,4.864,4.8532,4.8513,4.844,4.8229,4.8111,4.8032,4.7578,4.7468,4.7363,4.6817,4.666,4.6548,4.6017,4.585,4.585,4.5716,4.5509,4.487,4.3254,4.2603,4.1646,3.9599,3.8942,3.8518,3.7921,3.769,3.7632,3.7806,3.6706,3.5469,3.4206,3.3948,3.3618,3.3002,3.2461,3.1753,3.0817,3.066,3.0263,2.9627,2.9615,2.9625,2.9459,2.8816,2.8335,2.7938,2.7919,2.7399,2.6529,2.6405,2.5663,0.0,0.0,3.8837,4.1371,4.3866,4.5684,4.5684,4.6361,4.6999,4.7076,4.7792,4.8392,4.8392,4.9088,4.9378,4.8546,4.8974,4.9355,4.9217,4.9215,4.9392,4.9865,5.0089,5.0114,0.0,4.9906,4.9898,4.9898,4.9925,4.9925,4.9898,4.9925,4.9925,4.9898,4.9898,4.9898,4.9898,4.9898,4.9898,4.9898,4.9898,4.9898,4.9898,4.9898,4.9898,4.9898,4.9898,4.9879,4.9841,4.9841,4.9841,4.9776,4.9461,4.9358,4.9327,4.8934,4.9034,4.9265,4.8569,4.8344,4.8267,4.7847,4.7741,4.7741,4.7699,4.7717,4.7615,4.7062,4.6908,4.6799,4.6244,4.6098,4.6,4.5459,4.5303,4.5214,4.472,4.4033,4.3255,4.2534,4.1316,4.0155,3.943,3.8243,3.7266,3.6737,3.615,3.5976,3.6554,3.521,3.4138,3.407,3.3632,3.3002,3.2232,3.2074,3.1402,2.9833,2.9768,2.9394,2.8566,2.8566,2.8325,2.7806,2.6956,2.6309,2.5758,2.5451,2.5293,2.5234,2.4524,2.4135,0.0,0.0,4.2067,4.402,4.5162,4.58,4.58,4.6457,4.7096,4.7096,4.7328,4.7366,4.6786,4.7386,4.7869,4.7579,4.8709,4.9763,5.0252,5.033,5.0354,5.0425,5.0485,0.0,0.0,0.0,0.0,4.9898,5.01,5.0125,4.9906,5.01,5.0125,4.9925,4.9898,4.9898,4.9898,4.9898,4.9898,4.9898,4.9898,4.9898,4.9898,4.9898,4.9898,4.9898,4.9898,4.9769,4.9566,4.9566,4.9408,4.915,4.9071,4.9005,4.8971,4.8605,4.8532,4.8605,4.8382,4.813,4.7888,4.7741,4.7468,4.7151,4.7151,4.6908,4.6613,4.6406,4.6358,4.6262,4.5699,4.5563,4.5459,4.4944,4.4468,4.4078,4.3898,4.333,4.2436,4.1324,4.0678,3.9735,3.7828,3.7136,3.6569,3.5627,3.5335,3.5139,3.4963,3.4461,3.3782,3.2861,3.2605,3.216,3.1341,3.082,3.0304,2.9704,2.9184,2.8803,2.851,2.7596,2.7009,2.6834,2.5611,2.4796,2.4395,2.487,2.4273,2.2861,2.3065,2.2513,0.0,4.1583,4.3305,4.5297,4.58,4.58,4.58,4.6225,4.6709,4.7038,4.638,4.5664,4.5413,4.5838,4.6109,4.578,4.7444,4.9034,4.9798,4.9966,5.0146,5.0548,5.0664,5.0625,0.0,0.0,0.0,5.0076,5.0272,5.0291,5.0012,5.0197,5.0197,4.9906,4.9898,4.9898,4.9898,4.9898,4.9898,4.9898,4.9898,4.9898,4.9898,4.9898,4.9824,4.9712,4.9712,4.9518,4.9188,4.9188,4.9038,4.8781,4.8658,4.8623,4.855,4.8017,4.7775,4.7775,4.7775,4.7627,4.7363,4.7214,4.6908,4.6595,4.6595,4.6358,4.6049,4.585,4.5613,4.5338,4.4787,4.4495,4.4215,4.3898,4.3469,4.3136,4.3136,4.2418,4.1451,4.0384,3.9609,3.8466,3.6687,3.6019,3.534,3.4365,3.3959,3.3837,3.407,3.3644,3.3073,3.2218,3.1856,3.1341,3.0519,2.9999,2.9549,2.925,2.8474,2.8018,2.8018,2.6864,2.6118,2.5938,2.4653,2.384,2.3505,2.3546,2.2834,2.1386,2.1478,2.0828,4.1158,4.2125,4.2763,4.52,4.58,4.58,4.58,4.5819,4.6051,4.6767,4.4987,4.3518,0.0,0.0,4.433,4.3498,4.5587,4.7515,4.8137,4.8411,4.8993,0.0,0.0,0.0,0.0,0.0,0.0,5.0425,0.0,5.0358,5.0212,5.0188,5.0114,4.9925,4.9898,4.9898,4.9898,4.9898,4.9898,4.9898,4.9898,4.9898,4.9898,4.9879,4.9712,4.9415,4.9384,4.9155,4.8781,4.8781,4.8746,4.8711,4.8345,4.8229,4.8132,4.7204,4.6863,4.6863,4.6817,4.6863,4.6771,4.6262,4.6049,4.6049,4.6,4.6,4.5833,4.5285,4.4698,4.4091,4.3597,4.2953,4.252,4.2458,4.2442,4.2379,4.2379,4.1358,4.0259,3.9641,3.7923,3.637,3.5843,3.4733,3.363,3.289,3.2205,3.229,3.3713,3.2791,3.2001,3.1928,3.1254,3.0443,2.9704,2.9626,2.925,2.8419,2.7592,2.7174,2.7092,2.6163,2.5445,2.4908,2.4075,2.3464,2.2982,2.1627,2.0857,2.0577,1.9808,1.9247,4.2396,4.3885,4.4987,4.5626,4.58,4.58,4.58,4.6303,4.6283,4.4601,4.375,4.2783,0.0,0.0,0.0,4.4311,4.7463,0.0,5.0162,5.0217,0.0,5.0731,0.0,5.0841,5.0789,5.0769,0.0,0.0,5.0548,5.0358,5.0212,5.0188,5.0114,4.9925,4.9898,4.9898,4.9898,4.9898,4.9898,4.9898,4.9898,4.9898,4.9879,4.9655,4.9476,4.9365,4.9071,4.8765,4.8439,4.8439,4.8249,4.7933,4.7439,4.7266,4.716,4.6548,4.631,4.6262,4.5868,4.595,4.6262,4.6147,4.58,4.539,4.4881,4.4461,4.4044,4.3386,4.3087,4.2904,4.2814,4.2645,4.2379,4.2029,4.1512,4.1064,4.0613,3.9817,3.8892,3.7764,3.5565,3.3856,3.369,3.2431,3.1402,3.1254,3.0882,3.0882,3.1402,3.1018,3.0506,2.9909,2.9679,2.9238,2.8419,2.8339,2.7995,2.7069,2.6823,2.64,2.5641,2.4808,2.4255,2.4132,2.2553,2.1632,2.153,2.0482,1.9447,1.872,1.828,1.7692,4.3943,4.5084,4.58,4.58,4.58,4.5606,4.4871,4.5084,4.491,4.3092,4.1835,0.0,0.0,0.0,0.0,0.0,0.0,0.0,4.9628,4.9753,5.0094,0.0,5.0906,0.0,5.0906,5.0906,5.0906,0.0,5.0717,5.0508,5.0291,5.0287,5.0169,4.9925,4.9898,4.9898,4.9898,4.9898,4.9898,4.9898,4.9898,4.9824,4.9683,4.9506,4.9239,4.8887,0.0,4.8383,4.801,4.7793,4.7542,4.732,4.6753,4.6548,4.6501,4.5968,4.5562,4.5216,4.4732,4.4533,4.4593,4.4844,4.4589,4.4011,4.3648,4.3327,4.2953,4.2583,4.2125,4.1739,4.1739,4.133,4.0779,4.0507,4.0124,3.9788,3.9418,3.8561,3.729,3.5325,3.3569,3.2258,3.1928,3.118,3.0456,2.9999,2.9743,2.9332,2.8718,2.9356,2.9601,2.916,2.8779,2.8419,2.7962,2.7534,2.7092,2.6565,2.5724,2.5052,2.4542,2.3704,2.3018,2.2551,2.1578,2.0773,2.0314,1.9314,1.8495,1.7863,1.6835,1.6001,4.5413,4.58,4.58,4.58,4.58,4.5355,4.3672,4.3401,4.3111,4.1777,0.0,3.8508,3.8914,4.0365,4.1351,4.0949,0.0,4.7298,4.8328,4.8604,4.9281,5.0732,5.0906,5.0906,5.0906,5.0906,5.089,5.0874,5.0874,5.0735,5.0425,5.0361,5.0202,4.9906,4.9898,4.9898,4.9898,4.9898,4.9898,4.9898,4.9852,4.9683,4.9415,4.9302,4.8906,4.8306,0.0,0.0,4.7554,4.7107,4.6863,4.6753,4.6196,4.595,4.5783,4.5285,4.4644,4.3977,4.3538,4.2876,4.2379,4.3136,4.2953,4.2379,4.2316,4.2189,4.2109,4.2045,4.1264,4.0485,4.0485,3.9606,3.8782,3.8708,3.862,3.8472,3.8397,3.721,3.5497,3.3133,3.2111,3.137,3.0649,3.0266,2.9743,2.8834,2.8402,2.7591,2.6174,2.7545,2.8597,2.8505,2.7834,2.7464,2.7464,2.667,2.6141,2.6058,2.4542,2.3617,2.3357,2.2589,2.1704,2.0683,2.0593,2.0042,1.9222,1.8218,1.7584,1.7217,1.5419,1.4478,4.5722,4.58,4.58,4.58,4.58,4.5355,4.3672,4.3866,0.0,0.0,3.9088,3.8682,3.6709,3.7735,3.9734,4.2389,0.0,0.0,0.0,0.0,5.0577,0.0,0.0,0.0,0.0,0.0,0.0,0.0,0.0,5.0644,5.0404,5.0149,4.9959,4.9879,4.9898,4.9898,4.9898,4.9898,4.9898,4.9898,4.9625,4.9476,4.9384,4.8748,4.8402,4.8267,4.7929,0.0,4.7017,4.6954,4.666,4.6213,4.5648,4.5093,4.4538,4.3987,4.342,4.2798,4.2707,4.1917,4.1213,4.2316,4.2283,4.1756,4.1198,4.0628,4.0132,3.9576,3.932,3.9133,3.9133,3.8987,3.8634,3.8188,3.7539,3.6802,3.6373,3.5075,3.3859,3.3339,3.1909,3.0574,3.0328,2.8542,2.7128,2.6753,2.5819,2.5147,2.4829,2.5735,2.6058,2.54,2.5158,2.5094,2.5094,2.4914,2.4478,2.378,2.3434,2.2561,2.0962,2.0791,2.0158,1.9239,1.8326,1.787,1.7692,1.6662,1.5724,1.486,1.4484,1.3902,4.58,4.58,4.58,4.58,4.58,4.5123,4.257,0.0,0.0,0.0,3.7232,3.7154,3.5936,3.7444,0.0,0.0,0.0,0.0,0.0,0.0,0.0,0.0,0.0,0.0,0.0,0.0,0.0,0.0,0.0,5.0399,5.0291,5.0044,4.9898,4.9898,4.9898,4.9898,4.9898,4.9898,4.9797,4.9655,4.9476,4.9206,4.8837,4.8476,4.819,4.797,4.7475,0.0,4.6863,4.631,4.5715,4.5094,4.455,4.397,4.331,4.3043,4.2379,4.1528,4.1528,4.0743,3.9804,4.0385,4.0385,4.0109,3.9788,3.952,3.9233,3.8914,3.856,3.8248,3.7753,3.7448,3.6986,3.6174,3.5682,3.5103,3.4104,3.3325,3.2295,3.0692,2.9615,2.8621,2.7589,2.644,2.5557,2.5337,2.4829,2.4317,2.379,2.4125,2.4382,2.4498,2.4498,2.4498,2.4498,2.4059,2.3617,2.3096,2.2208,2.123,2.0339,1.9795,1.9063,1.8064,1.7512,1.7044,1.6487,1.5534,1.4777,1.4298,1.3221,1.2237,4.5703,4.58,4.58,4.58,4.58,4.491,4.1564,4.079,0.0,0.0,3.5704,3.5704,3.5704,0.0,3.8388,0.0,0.0,0.0,0.0,0.0,0.0,0.0,0.0,0.0,0.0,0.0,0.0,0.0,0.0,0.0,5.0139,5.0005,4.9898,4.9898,4.9898,4.9898,4.9898,4.9824,4.9655,4.9415,4.9239,4.8853,4.8306,4.819,4.7951,4.7511,4.7107,0.0,0.0,4.5477,4.4698,4.4051,4.3538,4.2814,4.2125,4.2125,4.133,4.0278,4.0278,3.952,3.8634,3.8634,3.8634,3.8605,3.8473,3.8281,3.813,3.7984,3.7515,3.6986,3.6332,3.5789,3.5156,3.4223,3.3772,3.3135,3.1806,3.1283,3.0338,2.7844,2.7278,2.6738,2.5253,2.468,2.4457,2.4231,2.4059,2.3627,2.2931,2.2843,2.3105,2.38,2.3887,2.3887,2.3887,2.3193,2.2746,2.2473,2.1141,2.0068,1.9704,1.888,1.7963,1.6951,1.6951,1.648,1.5445,1.4586,1.4004,1.3613,1.195,1.0676,4.5394,4.58,4.58,4.58,4.58,4.491,4.1564,0.0,0.0,3.64,3.5704,3.5704,3.5704,0.0,0.0,0.0,0.0,4.079,0.0,0.0,0.0,0.0,0.0,0.0,0.0,0.0,0.0,0.0,0.0,0.0,4.9925,4.9925,4.9898,4.9898,4.9898,4.9898,4.9898,4.9596,4.9446,4.9396,4.8713,4.8382,4.8267,4.7929,4.745,4.6954,4.6908,0.0,0.0,4.4664,4.4068,4.3495,4.2831,4.1853,4.0878,4.0878,4.0069,3.8987,3.8987,3.8546,3.7962,3.7962,3.7962,3.7861,3.7358,3.664,3.5853,3.5278,3.4861,3.4624,3.4541,3.4472,3.4223,3.3322,3.1933,3.0575,2.9642,2.8309,2.7161,2.6821,2.6367,2.598,2.5591,2.438,2.3434,2.327,2.2501,2.1909,2.182,2.182,2.182,2.1909,2.1998,2.1998,2.1998,2.1909,2.1445,2.061,2.043,1.9521,1.7699,1.7512,1.6951,1.592,1.573,1.5248,1.449,1.41,1.3125,1.1463,1.1268,1.0493,4.5336,4.58,4.58,4.58,4.5432,4.433,4.1397,0.0,3.9141,3.6242,3.5643,3.5643,3.5684,3.5414,0.0,0.0,0.0,0.0,4.1409,0.0,0.0,0.0,0.0,0.0,0.0,0.0,0.0,0.0,0.0,0.0,4.9898,4.9898,4.9898,4.9898,4.9898,4.9797,4.9596,4.9476,4.9174,4.8713,4.8439,4.7995,4.7439,4.7284,4.6908,4.6406,4.6067,0.0,0.0,4.4085,4.301,4.1772,4.1528,4.0675,3.9535,3.9535,3.9045,3.8173,3.7677,3.7063,3.6452,3.5935,3.5516,3.5347,3.562,3.5326,3.4698,3.3767,3.3938,3.4066,3.2898,3.1701,3.0664,3.0346,2.9207,2.7997,2.7403,2.666,2.5921,2.4949,2.4579,2.4119,2.335,2.2782,2.2325,2.2246,2.1909,2.1463,2.0898,2.0718,2.0348,1.9786,2.043,2.0898,2.0898,2.0158,1.9505,1.9139,1.8488,1.7654,1.6835,1.6292,1.5832,1.5363,1.5267,1.4777,1.3806,1.3125,1.2047,1.0681,1.0096,0.9213,4.4471,4.5413,4.58,4.58,4.5007,4.3601,0.0,0.0,3.837,3.6072,3.5589,3.562,3.5662,3.5673,3.5461,3.4842,3.6284,3.7715,3.8489,4.1893,0.0,0.0,0.0,0.0,0.0,0.0,0.0,0.0,0.0,0.0,0.0,4.9797,4.9797,4.9898,4.9797,4.9655,4.9415,4.9174,4.8818,4.8306,4.7995,4.7524,4.6908,4.6753,4.6275,4.5545,0.0,0.0,0.0,4.2949,4.1901,4.069,4.0278,3.9448,3.8486,3.8234,3.7782,3.7092,3.6253,3.5615,3.5129,3.4357,3.3619,3.3066,3.3105,3.3245,3.3273,3.2408,3.2311,3.2265,3.0768,2.9133,2.7939,2.7939,2.6943,2.5868,2.5455,2.5016,2.4317,2.3154,2.2931,2.2668,2.182,2.1463,2.1275,2.1275,2.0997,2.0529,1.9786,1.9604,1.9139,1.8395,1.8856,1.9322,1.9604,1.8772,1.8118,1.784,1.7001,1.6358,1.6082,1.5445,1.4987,1.4592,1.4592,1.3902,1.2538,1.1755,1.0881,0.9899,0.9118,0.8124,4.2394,4.4548,4.58,4.58,4.4548,4.2858,0.0,0.0,3.7636,3.5951,3.5604,3.5604,3.5604,3.5608,3.5601,3.5581,3.5673,3.6613,3.9139,4.0268,0.0,0.0,0.0,0.0,0.0,0.0,0.0,0.0,0.0,0.0,0.0,4.9596,4.9566,4.9898,4.9596,4.9415,4.9415,4.8695,4.8306,4.8306,4.7353,4.6908,4.6863,4.6358,4.5425,0.0,0.0,0.0,0.0,4.1198,4.0758,4.0538,3.9334,3.8486,3.7796,3.6972,3.6267,3.5575,3.4637,3.4306,3.4214,3.3721,3.2816,3.1546,2.9542,3.0118,3.1317,3.0683,2.9522,2.8407,2.8158,2.7426,2.6686,2.6686,2.5461,2.4256,2.4256,2.2885,2.1741,2.1741,2.1741,2.1731,2.1741,2.0898,2.0339,2.0339,1.943,1.8688,1.8488,1.8395,1.8303,1.8033,1.7102,1.6908,1.794,1.8033,1.7569,1.6539,1.6539,1.6082,1.5172,1.5083,1.4592,1.3511,1.3221,1.2242,1.0391,1.0194,0.9608,0.8825,0.8825,0.7524,3.9142,4.0571,4.128,4.0681,3.9683,3.8704,3.8157,0.0,3.6164,3.5644,3.5528,3.5547,3.5591,3.5608,3.5794,3.6393,3.6513,3.7019,0.0,0.0,0.0,0.0,0.0,0.0,0.0,0.0,0.0,0.0,0.0,0.0,0.0,4.9476,4.9446,4.9548,4.9169,4.8869,4.866,4.8059,4.7614,4.7353,4.6689,4.6165,4.58,4.5164,0.0,0.0,0.0,0.0,0.0,4.0878,3.9914,3.8723,3.8323,3.781,3.7197,3.6294,3.5722,3.5224,3.3636,3.2789,3.2269,3.1527,3.0132,2.8637,2.8027,2.8387,2.8951,2.8145,2.7482,2.7021,2.666,2.5546,2.4445,2.4445,2.3477,2.2523,2.2523,2.2082,2.1553,2.0898,2.0718,2.0529,1.9803,1.943,1.9239,1.9047,1.8764,1.8211,1.7188,1.7001,1.6626,1.5805,1.533,1.5514,1.6821,1.6177,1.5622,1.5248,1.5146,1.486,1.4592,1.3806,1.3318,1.2926,1.2145,1.117,0.9903,0.9805,0.8814,0.7132,0.7132,0.6132,3.6402,3.7997,3.8782,3.8241,3.7205,0.0,0.0,3.5637,3.5008,3.5008,3.5277,3.5509,3.5554,3.556,3.5751,3.6323,0.0,0.0,0.0,0.0,0.0,0.0,0.0,0.0,0.0,0.0,0.0,0.0,0.0,0.0,0.0,4.9057,4.899,4.899,4.873,4.8421,4.7999,4.7512,4.7035,4.6613,4.6049,4.5477,4.4878,4.4294,0.0,0.0,0.0,0.0,0.0,3.9859,3.8928,3.7886,3.7658,3.7106,3.6229,3.54,3.4587,3.3636,3.2228,3.1296,3.0555,2.9437,2.7592,2.5819,2.5733,2.6292,2.6801,2.6172,2.5658,2.5274,2.4961,2.3807,2.2755,2.2755,2.1971,2.1177,2.1177,2.0907,2.0439,1.9695,1.9596,1.9322,1.8596,1.8226,1.7848,1.7747,1.7382,1.6828,1.5893,1.5704,1.533,1.4586,1.4394,1.4478,1.5019,1.4758,1.4592,1.4592,1.4004,1.3709,1.3709,1.263,1.1755,1.1365,1.0676,0.9797,0.8718,0.8726,0.8134,0.6845,0.6142,0.5238,0.0,3.637,3.763,3.7572,0.0,0.0,0.0,0.0,0.0,3.418,3.4891,3.5493,3.5493,3.5495,3.5534,0.0,0.0,0.0,0.0,0.0,0.0,0.0,0.0,0.0,0.0,0.0,0.0,0.0,0.0,0.0,0.0,4.8366,4.8157,4.8046,4.7991,4.7795,4.7458,4.699,4.6566,4.6067,4.5442,4.4824,4.4204,4.3639,0.0,0.0,0.0,0.0,0.0,3.8323,3.781,3.7658,3.7042,3.6229,3.5129,3.4184,3.2819,3.1369,3.045,2.9687,2.899,2.7493,2.5391,2.3347,2.3096,2.3943,2.4872,2.4617,2.4029,2.3347,2.3096,2.2325,2.1642,2.1642,2.0898,2.0158,2.0158,1.943,1.8696,1.8395,1.8303,1.8118,1.7848,1.7008,1.6351,1.6351,1.5629,1.4981,1.4694,1.4592,1.449,1.4196,1.41,1.3709,1.2635,1.3607,1.4202,1.41,1.3125,1.2533,1.2533,1.1365,1.0194,0.9217,0.881,0.8219,0.7238,0.7353,0.7459,0.7359,0.5548,0.4643,3.1153,0.0,3.3031,3.2377,3.1903,3.1768,0.0,0.0,0.0,0.0,0.0,3.5493,3.5493,3.5495,3.5727,0.0,0.0,0.0,0.0,0.0,0.0,0.0,0.0,0.0,0.0,0.0,0.0,0.0,0.0,0.0,0.0,4.7426,4.6791,4.5528,4.4916,4.5414,4.7053,4.613,4.5597,4.5459,4.4401,4.3831,4.3656,4.2504,0.0,0.0,0.0,0.0,3.7738,3.7448,3.6922,3.6177,3.5494,3.5074,3.4598,3.2815,3.1734,3.1077,2.9801,2.8477,2.6918,2.4767,2.3687,2.3008,2.2246,2.2755,2.3434,2.2668,2.2755,2.3008,2.2246,2.1347,2.0619,2.0619,1.9886,1.9155,1.9155,1.878,1.8218,1.739,1.7102,1.6734,1.5913,1.5635,1.535,1.5153,1.4975,1.4688,1.4394,1.3709,1.3119,1.3119,1.2344,1.1853,1.156,1.2533,1.2732,1.195,1.1463,1.1268,1.1268,0.9989,0.9103,0.8909,0.8024,0.7434,0.7238,0.7353,0.6954,0.5847,0.4738,0.3531,3.0155,3.0737,3.0987,3.0513,3.0398,3.0513,3.1006,0.0,0.0,0.0,0.0,3.4779,3.5262,3.5902,0.0,0.0,0.0,0.0,0.0,0.0,0.0,0.0,0.0,0.0,0.0,0.0,0.0,0.0,0.0,0.0,0.0,4.6633,4.5748,4.4157,4.3262,4.3409,4.463,4.4399,4.3991,4.3457,4.3473,4.3196,4.2583,4.1559,4.069,0.0,0.0,0.0,3.6462,3.616,3.5534,3.4677,3.4319,3.3733,3.2962,3.1819,3.0664,2.9555,2.8362,2.6638,2.4809,2.3513,2.2755,2.2157,2.1177,2.115,2.1409,2.1168,2.1427,2.1587,2.0619,1.9985,1.9613,1.9422,1.8688,1.7863,1.7762,1.7296,1.6648,1.6001,1.5412,1.474,1.4094,1.3613,1.3221,1.3125,1.3125,1.3028,1.2926,1.2339,1.2047,1.2047,1.1365,1.0783,1.0293,1.0676,1.0965,1.0974,1.0288,0.9891,0.9891,0.8612,0.7822,0.772,0.7132,0.6836,0.6836,0.6956,0.6052,0.4332,0.2318,0.1009,2.9909,3.033,3.0484,3.0393,3.0343,3.033,3.033,0.0,0.0,0.0,0.0,0.0,0.0,0.0,0.0,0.0,0.0,0.0,0.0,0.0,0.0,0.0,0.0,0.0,0.0,0.0,0.0,0.0,0.0,0.0,0.0,4.5609,4.4652,4.3063,4.198,4.1326,4.1163,4.2226,4.2291,4.1246,4.2506,4.2425,4.1229,4.0675,3.9758,0.0,0.0,0.0,3.5346,3.4815,3.4152,3.3369,3.3297,3.2374,3.1052,3.0882,2.9494,2.7617,2.6496,2.4799,2.3096,2.2931,2.2069,2.1015,2.0085,1.9521,1.9338,1.9604,1.9786,1.9786,1.888,1.8603,1.8411,1.8118,1.7196,1.6358,1.6069,1.5235,1.4496,1.4298,1.3414,1.2732,1.2533,1.1755,1.117,1.117,1.117,1.117,1.117,1.0974,1.0881,1.0881,1.0485,0.9895,0.9015,0.8616,0.9004,1.0092,0.9103,0.8513,0.8411,0.7332,0.6639,0.6437,0.6437,0.6337,0.6134,0.6057,0.4947,0.2922,-0.0101,-0.1516,2.892,2.9965,3.0855,3.03,3.0071,2.9981,2.9981,0.0,0.0,0.0,0.0,0.0,0.0,0.0,0.0,0.0,0.0,0.0,0.0,0.0,0.0,0.0,0.0,0.0,0.0,0.0,0.0,0.0,0.0,0.0,0.0,4.3629,4.2749,4.0927,3.953,3.8326,3.7415,4.0017,4.1236,4.1042,4.1278,4.093,3.9947,3.9331,3.8264,3.6986,0.0,3.5722,3.4262,3.4108,3.3505,3.2476,3.1889,3.1213,3.0501,2.9472,2.8094,2.6518,2.437,2.3406,2.2921,2.1989,2.1006,2.0076,1.9712,1.8972,1.8033,1.7282,1.7654,1.8311,1.8126,1.7475,1.6821,1.6814,1.5406,1.3986,1.3986,1.3017,1.2145,1.2052,1.176,1.1463,1.1463,1.1268,1.117,1.117,1.117,1.117,1.117,1.0194,0.9509,0.9509,0.8421,0.773,0.7534,0.7238,0.7238,0.7434,0.7238,0.7036,0.6731,0.6534,0.6437,0.6437,0.6437,0.5834,0.473,0.4334,0.3428,0.1815,-0.0101,-0.1212,2.9188,2.9751,3.034,3.1012,3.1178,3.1309,0.0,0.0,0.0,0.0,0.0,0.0,0.0,0.0,0.0,0.0,0.0,0.0,0.0,0.0,0.0,0.0,0.0,0.0,0.0,0.0,0.0,0.0,0.0,0.0,0.0,0.0,4.162,3.9867,3.8183,3.7269,3.7098,3.8091,3.8631,3.8722,3.9819,3.9868,3.9086,3.8026,3.7063,3.6215,0.0,3.4415,3.3079,3.2673,3.1977,3.1146,3.0554,3.0033,2.9363,2.7714,2.6354,2.5026,2.3416,2.2482,2.1872,2.1365,2.0447,1.943,1.8772,1.7755,1.6633,1.5602,1.6264,1.7102,1.656,1.6096,1.552,1.4835,1.398,1.3119,1.2441,1.176,1.1365,1.1365,1.0783,1.0293,1.0293,0.9903,0.9509,0.9509,0.9312,0.9217,0.9217,0.8623,0.8127,0.8127,0.7437,0.6942,0.6942,0.6739,0.6539,0.6539,0.6539,0.6539,0.6437,0.6437,0.6034,0.5331,0.5331,0.4628,0.3321,0.2619,0.2016,0.131,-0.0404,-0.1407,2.9206,2.957,2.9988,3.1177,3.1543,0.0,0.0,0.0,0.0,0.0,0.0,0.0,0.0,0.0,0.0,0.0,0.0,0.0,0.0,0.0,0.0,0.0,0.0,0.0,0.0,0.0,0.0,0.0,0.0,0.0,0.0,0.0,4.0707,3.9108,3.7382,3.6722,3.723,3.6518,3.6538,3.7204,3.866,3.8941,3.8264,3.6986,3.6136,3.5588,3.4358,3.3262,3.2227,3.156,3.0777,3.0009,2.9642,2.8916,2.7865,2.5955,2.4553,2.3607,2.2648,2.1686,2.0988,2.0628,1.9795,1.868,1.7561,1.6445,1.533,1.4484,1.514,1.5798,1.507,1.4688,1.4298,1.3216,1.263,1.2047,1.1072,1.0583,1.0489,1.0489,0.9801,0.9213,0.9213,0.8528,0.8038,0.8038,0.7743,0.7646,0.7646,0.7341,0.7138,0.7138,0.6842,0.6742,0.6742,0.6539,0.6337,0.6337,0.6337,0.6234,0.5934,0.5934,0.5331,0.3925,0.3925,0.3321,0.1913,0.131,0.0806,0.0403,-0.0909,-0.1605,2.8015,2.9353,3.0373,2.9762,2.9595,0.0,3.4468,3.4189,0.0,3.6012,0.0,0.0,0.0,0.0,0.0,0.0,0.0,0.0,0.0,0.0,0.0,0.0,0.0,0.0,0.0,0.0,0.0,0.0,0.0,0.0,0.0,0.0,0.0,3.8421,3.6978,3.631,3.6461,3.5646,3.628,3.8357,3.8362,3.7843,3.7035,3.6122,3.5345,3.4481,3.3725,3.3031,3.2227,3.156,3.0578,2.955,2.9515,2.824,2.6152,2.4288,2.3173,2.2394,2.1427,2.1078,2.0808,1.9704,1.868,1.7561,1.6351,1.5235,1.4388,1.4298,1.4394,1.4484,1.4394,1.3613,1.2829,1.2732,1.1268,0.9801,0.9706,0.8924,0.8233,0.8233,0.8137,0.8137,0.8137,0.8038,0.8038,0.8038,0.7743,0.7646,0.7646,0.7144,0.6842,0.6842,0.6539,0.6437,0.6437,0.6437,0.6339,0.6042,0.6237,0.5834,0.463,0.4529,0.3925,0.2616,0.2516,0.1913,0.0504,0.0504,-0.0202,-0.1414,-0.1516,-0.1717,2.7863,2.9683,3.1284,3.0987,3.0522,0.0,0.0,3.6129,3.6166,3.6593,3.8172,0.0,0.0,0.0,0.0,0.0,0.0,0.0,0.0,0.0,0.0,0.0,0.0,0.0,0.0,0.0,0.0,0.0,0.0,0.0,0.0,0.0,0.0,3.8334,3.6635,3.59,3.6315,3.557,3.5755,3.701,3.6731,3.6452,3.6122,3.5264,3.4468,3.3725,3.3018,3.2326,3.1637,3.0937,3.0007,2.8958,2.8074,2.6693,2.5189,2.3917,2.2911,2.2041,2.1087,2.0736,2.0365,1.9347,1.8226,1.7196,1.617,1.514,1.4298,1.4298,1.4298,1.4298,1.4298,1.3511,1.2533,1.195,1.0681,0.941,0.8726,0.8333,0.8038,0.8038,0.8038,0.8038,0.8038,0.8038,0.7939,0.7743,0.754,0.7241,0.7144,0.6742,0.6539,0.6539,0.6437,0.6439,0.6353,0.5639,0.5033,0.4634,0.4933,0.483,0.4227,0.3522,0.2516,0.1209,0.1108,0.0501,-0.0892,-0.1004,-0.1297,-0.1756,-0.1973,-0.235,2.8682,3.0296,3.1912,3.2414,0.0,0.0,3.6463,3.7281,3.7485,3.8748,3.9937,0.0,0.0,0.0,0.0,0.0,0.0,0.0,0.0,0.0,0.0,0.0,0.0,0.0,0.0,0.0,0.0,0.0,0.0,0.0,0.0,0.0,0.0,0.0,3.6188,3.5565,3.6015,3.5053,3.4938,3.5718,3.5287,3.5251,3.5669,3.4551,3.381,3.3313,3.2413,3.1725,3.1217,3.0306,2.9376,2.8144,2.6455,2.5177,2.4125,2.3232,2.2415,2.1536,2.101,2.0472,1.9795,1.8735,1.7669,1.664,1.5609,1.486,1.4298,1.4298,1.4298,1.4202,1.3902,1.3022,1.2047,1.1365,1.0096,0.8821,0.8038,0.7842,0.7842,0.7739,0.7739,0.7739,0.7739,0.7739,0.7739,0.755,0.7347,0.7048,0.6954,0.6651,0.6448,0.6448,0.6448,0.615,0.5651,0.4331,0.3422,0.3224,0.3222,0.3019,0.2918,0.2114,0.1108,-0.0202,-0.0202,-0.07,-0.1571,-0.1891,-0.1971,-0.1908,-0.2511,-0.3061,3.0355,3.1191,0.0,0.0,0.0,0.0,3.7986,3.7243,3.7132,4.2835,0.0,0.0,0.0,0.0,0.0,0.0,0.0,0.0,0.0,0.0,0.0,0.0,0.0,0.0,0.0,0.0,0.0,0.0,0.0,0.0,0.0,0.0,0.0,0.0,3.5753,3.5392,3.531,3.3818,3.3661,3.4787,3.3966,3.4351,3.5669,3.4134,3.3398,3.3313,3.1913,3.1306,3.1217,2.9932,2.8621,2.703,2.4927,2.3704,2.2969,2.2162,2.1507,2.0883,2.0883,2.0201,1.9178,1.7781,1.664,1.5609,1.458,1.4298,1.4298,1.4298,1.4298,1.4004,1.2926,1.195,1.117,1.117,0.9509,0.7942,0.7646,0.7646,0.7543,0.7238,0.7238,0.7238,0.7238,0.7238,0.7241,0.7456,0.7163,0.6968,0.7181,0.6679,0.6377,0.6377,0.6377,0.566,0.3932,0.2416,0.1711,0.1912,0.1007,0.0403,0.0403,0.0403,-0.0202,-0.1617,-0.1617,-0.1602,-0.1571,-0.1768,-0.1945,-0.1907,-0.3141,-0.3896,2.7938,0.0,0.0,0.0,0.0,0.0,0.0,3.8544,0.0,0.0,0.0,0.0,0.0,0.0,0.0,0.0,0.0,0.0,0.0,0.0,0.0,0.0,0.0,0.0,0.0,0.0,0.0,0.0,0.0,0.0,0.0,0.0,0.0,0.0,3.5239,3.4534,3.4484,3.3882,3.3698,3.3966,3.413,3.4406,3.4786,3.381,3.3129,3.2587,3.1737,3.0847,2.9886,2.8173,2.7015,2.6247,2.441,2.3202,2.2539,2.2071,2.1507,2.0883,2.0883,2.0201,1.9178,1.7781,1.664,1.5609,1.458,1.4298,1.4298,1.4118,1.3522,1.2829,1.2538,1.097,0.9596,0.9998,0.8821,0.7746,0.7646,0.7444,0.7341,0.735,0.7453,0.7356,0.7256,0.716,0.7263,0.7275,0.5949,0.4732,0.4435,0.4236,0.4135,0.4135,0.3426,0.2922,0.2823,0.1511,0.0403,-0.0504,-0.0808,-0.0706,0.0101,-0.0605,-0.1212,-0.1617,-0.1819,-0.1903,-0.1866,-0.2257,-0.2796,-0.3356,-0.391,-0.489,2.9797,0.0,0.0,0.0,0.0,0.0,0.0,0.0,0.0,0.0,0.0,0.0,0.0,0.0,0.0,0.0,0.0,0.0,0.0,0.0,0.0,0.0,0.0,0.0,0.0,0.0,0.0,0.0,0.0,0.0,0.0,0.0,0.0,0.0,3.5112,3.4464,3.4126,3.3882,3.3751,3.3587,3.3927,3.4188,3.4397,3.3373,3.2587,3.194,3.0812,2.9625,2.8477,2.7151,2.6041,2.5161,2.3652,2.2589,2.1919,2.1624,2.1238,2.0874,2.0397,1.9628,1.8601,1.7124,1.5981,1.5045,1.4394,1.4112,1.4112,1.3835,1.3039,1.2047,1.1755,1.0186,0.8905,0.9312,0.8428,0.7444,0.7353,0.725,0.7153,0.7065,0.6353,0.5741,0.5644,0.5646,0.5851,0.6782,0.4338,0.2317,0.2016,0.1915,0.1814,0.131,0.0705,0.0504,0.0807,0.0101,-0.0707,-0.1516,-0.1617,-0.1313,-0.0706,-0.1212,-0.1617,-0.1718,-0.1921,-0.2002,-0.216,-0.2551,-0.3171,-0.4062,-0.4793,-0.5918,3.377,0.0,0.0,0.0,0.0,0.0,0.0,0.0,0.0,0.0,0.0,0.0,0.0,0.0,0.0,0.0,0.0,0.0,0.0,0.0,0.0,0.0,0.0,0.0,0.0,0.0,0.0,0.0,0.0,0.0,0.0,0.0,0.0,3.5424,3.5142,3.4696,3.408,3.3834,3.3686,3.3587,3.3639,3.3901,3.4236,3.2895,3.194,3.1223,2.9385,2.8017,2.7189,2.6711,2.5523,2.4019,2.2811,2.1961,2.132,2.1006,2.0781,2.0687,1.962,1.8655,1.7544,1.6177,1.5045,1.4202,1.3925,1.3835,1.3835,1.3443,1.2646,1.1565,1.0489,0.9399,0.8612,0.8916,0.8031,0.7144,0.7059,0.6859,0.6561,0.6475,0.4847,0.3325,0.3022,0.2922,0.353,0.5569,0.2526,-0.0,-0.0,-0.0101,-0.0505,-0.1516,-0.1617,-0.1617,-0.1617,-0.1617,-0.1617,-0.1617,-0.1617,-0.1617,-0.1617,-0.1617,-0.1718,-0.2022,-0.2021,-0.2203,-0.2457,-0.265,-0.3273,-0.427,-0.5537,-0.674,0.0,3.3844,0.0,0.0,0.0,0.0,0.0,0.0,0.0,0.0,0.0,0.0,0.0,0.0,0.0,0.0,0.0,0.0,0.0,0.0,0.0,0.0,0.0,0.0,0.0,0.0,0.0,0.0,0.0,0.0,0.0,0.0,0.0,3.461,3.398,3.3673,3.384,3.3234,3.3146,0.0,3.4018,3.3975,3.3429,3.2278,3.0878,2.9349,2.8147,2.7249,2.6689,2.5811,2.4737,2.3535,2.2706,2.1961,2.132,2.0517,2.0295,2.0099,1.8838,1.7772,1.676,1.5783,1.4663,1.3732,1.3835,1.3738,1.3346,1.2349,1.1272,1.0194,0.9118,0.7925,0.703,0.7238,0.715,0.7056,0.6962,0.5443,0.4537,0.6078,0.5977,0.4651,0.1312,0.0707,0.0808,0.1313,0.0606,-0.0,-0.0,-0.0707,-0.1314,-0.1617,-0.1617,-0.1617,-0.1617,-0.1617,-0.1617,-0.1617,-0.1617,-0.1617,-0.1617,-0.1617,-0.1718,-0.2022,-0.2222,-0.2417,-0.2708,-0.2965,-0.3902,-0.5691,-0.6076,-0.7154,0.0,0.0,0.0,0.0,0.0,0.0,0.0,0.0,0.0,0.0,0.0,0.0,0.0,0.0,0.0,0.0,0.0,0.0,0.0,0.0,0.0,0.0,0.0,0.0,0.0,0.0,0.0,0.0,0.0,0.0,0.0,3.6321,3.5479,3.4312,3.3845,3.3692,3.3815,3.3066,3.3117,3.3979,3.391,3.3053,3.1575,3.0973,2.9791,2.8006,2.7066,2.633,2.5889,2.504,2.4047,2.2862,2.2227,2.1338,2.0473,2.0038,1.9455,1.8793,1.7647,1.6689,1.5704,1.4802,1.4004,1.3539,1.3539,1.3443,1.3044,1.176,1.0685,0.9604,0.8524,0.7332,0.6437,0.6539,0.6645,0.6448,0.5441,0.4433,0.3627,0.3435,0.3334,0.2624,0.0404,-0.0,-0.0,-0.0,-0.0404,-0.0808,-0.0808,-0.101,-0.1314,-0.1617,-0.1617,-0.1617,-0.1617,-0.1617,-0.1617,-0.1617,-0.1617,-0.1617,-0.1819,-0.1819,-0.192,-0.2222,-0.2423,-0.2725,-0.3027,-0.3595,-0.4738,-0.644,-0.6975,-0.814,0.0,0.0,0.0,0.0,0.0,0.0,0.0,0.0,0.0,0.0,0.0,0.0,0.0,0.0,0.0,0.0,0.0,0.0,0.0,0.0,0.0,0.0,0.0,0.0,0.0,0.0,0.0,0.0,0.0,0.0,3.643,3.5861,3.5067,3.4109,3.3988,3.3827,3.3584,3.2895,3.3064,3.4014,3.3032,3.1509,2.9666,2.941,2.8477,2.7045,2.6139,2.5564,2.5135,2.4414,2.3437,2.2306,2.1526,2.0546,1.9546,1.9363,1.8619,1.7404,1.6379,1.552,1.4663,1.3727,1.3443,1.334,1.3102,1.2893,1.249,1.1172,1.0117,0.9068,0.7987,0.7015,0.6437,0.6437,0.6439,0.5937,0.413,0.4232,0.393,0.1615,0.0504,-0.0,-0.0,-0.0,-0.0101,-0.0202,-0.101,-0.1617,-0.1617,-0.1212,-0.1111,-0.1516,-0.1617,-0.1617,-0.1617,-0.1617,-0.1617,-0.1617,-0.1617,-0.1819,-0.2022,-0.2122,-0.2222,-0.2422,-0.2724,-0.2927,-0.323,-0.4332,-0.5487,-0.6666,-0.8,-0.9091,0.0,0.0,0.0,0.0,0.0,0.0,0.0,0.0,0.0,0.0,0.0,0.0,0.0,0.0,0.0,0.0,0.0,0.0,0.0,0.0,0.0,0.0,0.0,0.0,0.0,0.0,0.0,0.0,0.0,0.0,3.643,3.5861,3.4854,3.3422,3.3297,3.3179,3.283,3.2202,3.2202,3.2694,3.0929,2.9735,2.9044,2.7689,2.6725,2.6027,2.5502,2.5285,2.5114,2.4005,2.3086,2.2306,2.1168,2.0266,1.9455,1.8635,1.7792,1.6842,1.5622,1.4765,1.3902,1.3335,1.3055,1.292,1.2813,1.2073,1.0977,0.9755,0.8775,0.7828,0.6772,0.6462,0.6437,0.6437,0.6448,0.6358,0.6057,0.607,0.5977,0.5571,0.2526,-0.0,-0.0,-0.0,-0.0303,-0.1212,-0.1516,-0.1617,-0.1617,-0.1516,-0.1516,-0.1617,-0.1617,-0.1617,-0.1617,-0.1617,-0.1617,-0.1617,-0.1819,-0.1921,-0.2022,-0.2424,-0.2725,-0.2725,-0.2826,-0.2927,-0.323,-0.4531,-0.572,-0.6787,-0.824,-0.9415,2.9665,0.0,0.0,0.0,0.0,0.0,0.0,0.0,0.0,0.0,0.0,0.0,0.0,0.0,0.0,0.0,0.0,0.0,0.0,0.0,0.0,0.0,0.0,0.0,0.0,0.0,0.0,0.0,0.0,3.5845,3.5879,3.5234,3.4341,3.3213,3.2791,3.2434,3.2215,3.1499,3.11,3.0816,2.9782,2.8687,2.7707,2.6411,2.5756,2.5492,2.5037,2.4763,2.4569,2.3115,2.2236,2.1596,2.0175,1.9271,1.8635,1.7785,1.6642,1.5565,1.4634,1.369,1.2824,1.2642,1.2455,1.2438,1.2428,1.1641,1.058,0.9376,0.8475,0.7488,0.6449,0.6203,0.6257,0.6325,0.6352,0.6281,0.6348,0.6374,0.5974,0.4448,0.1413,-0.0808,-0.0505,-0.0404,-0.0606,-0.1111,-0.1415,-0.1617,-0.1617,-0.1617,-0.1617,-0.1617,-0.1617,-0.1617,-0.1617,-0.1617,-0.1617,-0.1819,-0.1921,-0.2122,-0.2424,-0.2624,-0.2826,-0.3027,-0.363,-0.4031,-0.4331,-0.6124,-0.7415,-0.8202,-0.9425,-1.0219,0.0,0.0,0.0,0.0,0.0,0.0,0.0,0.0,0.0,0.0,0.0,0.0,0.0,0.0,0.0,0.0,0.0,0.0,0.0,0.0,0.0,0.0,0.0,0.0,0.0,0.0,0.0,0.0,0.0,3.5292,3.5459,3.4758,3.3973,3.3213,3.2506,3.2018,3.1759,3.1048,3.0327,2.9363,2.8822,2.7804,2.6461,2.5472,2.5057,2.5037,2.4571,2.4108,2.3574,2.2042,2.1119,2.0501,1.8995,1.8193,1.7735,1.6892,1.5722,1.4444,1.3704,1.2842,1.214,1.214,1.214,1.2038,1.1699,1.0938,0.9911,0.8862,0.7959,0.7063,0.6225,0.6062,0.6108,0.62,0.623,0.6282,0.6337,0.5864,0.4547,0.1917,-0.0202,-0.1516,-0.1111,-0.101,-0.101,-0.101,-0.1314,-0.1617,-0.1617,-0.1617,-0.1617,-0.1617,-0.1617,-0.1617,-0.1617,-0.1617,-0.1819,-0.2022,-0.2122,-0.2424,-0.2826,-0.2826,-0.3128,-0.3632,-0.4732,-0.5231,-0.5229,-0.7515,-0.8806,-0.9197,-1.0395,-1.0923,0.0,0.0,0.0,0.0,0.0,0.0,0.0,0.0,0.0,0.0,0.0,0.0,0.0,0.0,0.0,0.0,0.0,0.0,0.0,0.0,0.0,0.0,0.0,0.0,0.0,0.0,0.0,0.0,0.0,3.4835,3.5474,3.4758,3.3973,3.3213,3.2506,3.1931,3.1487,3.1097,3.0202,2.884,2.7708,2.6715,2.5779,2.4977,2.4581,2.4464,2.4105,2.3385,2.2291,2.1034,1.9938,1.8921,1.7636,1.7213,1.7037,1.5885,1.4977,1.4147,1.3417,1.2689,1.214,1.214,1.214,1.1909,1.078,0.9723,0.8783,0.7556,0.6635,0.6004,0.5912,0.5999,0.6086,0.6094,0.6208,0.6384,0.6437,0.4448,0.1816,-0.0909,-0.1516,-0.1617,-0.1516,-0.1516,-0.1516,-0.1516,-0.1617,-0.1617,-0.1617,-0.1617,-0.1617,-0.1617,-0.1617,-0.1617,-0.1617,-0.1819,-0.2022,-0.2022,-0.2524,-0.2725,-0.2826,-0.3029,-0.3632,-0.4734,-0.6024,-0.6221,-0.5229,-0.7908,-0.9197,-0.9197,-1.0596,-1.1189,0.0,0.0,0.0,0.0,0.0,0.0,0.0,0.0,0.0,0.0,0.0,0.0,0.0,0.0,0.0,0.0,0.0,0.0,0.0,0.0,0.0,0.0,0.0,0.0,0.0,0.0,0.0,0.0,0.0,0.0,3.4141,3.3772,3.3283,3.2506,3.1676,3.0989,3.0599,2.9874,2.8894,2.773,2.673,2.5841,2.4946,2.4615,2.4454,2.4251,2.2972,2.2291,2.1912,2.0471,1.9196,1.8078,1.7056,1.6367,1.5924,1.4937,1.4104,1.3242,1.2439,1.1987,1.1602,1.1602,1.1602,1.1404,1.0343,0.9345,0.8448,0.7418,0.6471,0.5795,0.5795,0.5825,0.5603,0.4555,0.4054,0.3456,0.1676,0.0801,-0.0,-0.1314,-0.1617,-0.1617,-0.1617,-0.1617,-0.1617,-0.1617,-0.1617,-0.1617,-0.1617,-0.1617,-0.1617,-0.1617,-0.1617,-0.1617,-0.1617,-0.1819,-0.2122,-0.2221,-0.2624,-0.2927,-0.3029,-0.313,-0.3831,-0.5031,-0.6423,-0.7217,-0.7515,-0.9304,-1.0297,-1.0493,-1.0993,-1.1194,2.647,0.0,0.0,0.0,0.0,0.0,0.0,0.0,0.0,0.0,0.0,0.0,0.0,0.0,0.0,0.0,0.0,0.0,0.0,0.0,0.0,0.0,0.0,0.0,0.0,0.0,0.0,0.0,0.0,0.0,3.3064,3.3121,3.272,3.1663,3.0885,3.0381,3.0075,2.9197,2.8131,2.7069,2.6235,2.5337,2.454,2.4454,2.4292,2.4069,2.2197,2.1296,2.0994,1.9353,1.7976,1.6885,1.6305,1.5611,1.5,1.4209,1.3379,1.2534,1.1839,1.1483,1.1262,1.1262,1.1089,1.0646,0.9685,0.8807,0.7841,0.6874,0.6174,0.5741,0.5779,0.5428,0.4709,0.3097,0.2226,0.1135,-0.1056,-0.1278,-0.1203,-0.1514,-0.1617,-0.1617,-0.1617,-0.1617,-0.1617,-0.1617,-0.1617,-0.1617,-0.1617,-0.1617,-0.1617,-0.1617,-0.1718,-0.1718,-0.1718,-0.2021,-0.2323,-0.2522,-0.2826,-0.3027,-0.323,-0.3331,-0.423,-0.5724,-0.6924,-0.8117,-0.9505,-1.0498,-1.0998,-1.1194,-1.1194,-1.1389,0.0,0.0,0.0,0.0,0.0,0.0,0.0,0.0,0.0,0.0,0.0,0.0,0.0,0.0,0.0,0.0,0.0,0.0,0.0,0.0,0.0,0.0,0.0,0.0,0.0,0.0,0.0,0.0,0.0,3.2464,3.2362,3.284,3.2376,3.0773,3.0318,3.0075,3.0075,2.9028,2.7971,2.7069,2.6152,2.5348,2.4454,2.4292,2.4206,2.3973,2.1796,2.0391,1.9373,1.7714,1.6386,1.5445,1.5362,1.5006,1.4314,1.3646,1.2966,1.2283,1.1521,1.1262,1.1262,1.1267,1.0646,0.9685,0.8719,0.7845,0.6884,0.6002,0.5741,0.5679,0.5783,0.4979,0.3577,0.1794,0.0817,-0.0092,-0.1202,-0.1527,-0.1578,-0.1609,-0.1616,-0.1617,-0.1617,-0.1617,-0.1617,-0.1617,-0.1617,-0.1617,-0.1617,-0.1617,-0.1617,-0.1617,-0.1819,-0.2022,-0.2022,-0.2524,-0.2826,-0.2826,-0.3029,-0.323,-0.323,-0.3732,-0.4929,-0.6813,-0.7617,-0.8916,-1.0806,-1.1096,-1.1194,-1.1194,-1.1198,-1.1785,2.45,0.0,0.0,0.0,0.0,0.0,0.0,0.0,0.0,0.0,0.0,0.0,0.0,0.0,0.0,0.0,0.0,0.0,0.0,0.0,0.0,0.0,0.0,0.0,0.0,0.0,0.0,0.0,3.1477,3.1735,3.1593,3.1463,3.111,3.052,3.0228,3.0011,2.9869,2.8291,2.7395,2.7069,2.56,2.47,2.4292,2.4206,2.3657,2.2541,2.0953,1.9523,1.821,1.7423,1.6592,1.5696,1.5255,1.4511,1.3561,1.2875,1.2198,1.1607,1.1348,1.1262,1.1176,1.0472,1.012,0.9593,0.8017,0.7389,0.7024,0.6125,0.5739,0.5513,0.4533,0.3919,0.2993,0.1173,-0.0182,-0.111,-0.1388,-0.1494,-0.1521,-0.1574,-0.1602,-0.1617,-0.1617,-0.1617,-0.1617,-0.1617,-0.1617,-0.1617,-0.1617,-0.1617,-0.1718,-0.1819,-0.1921,-0.2122,-0.2322,-0.2624,-0.2826,-0.2826,-0.3029,-0.363,-0.463,-0.483,-0.6024,-0.8502,-0.8803,-0.96,-1.1096,-1.1194,-1.1194,-1.1194,-1.1585,-1.237,0.0,0.0,0.0,0.0,0.0,0.0,0.0,2.9779,0.0,0.0,0.0,0.0,0.0,0.0,0.0,0.0,0.0,0.0,0.0,0.0,0.0,0.0,0.0,0.0,0.0,0.0,0.0,3.0548,3.115,3.1526,3.1534,3.095,3.0457,3.0292,3.0075,2.9767,2.9287,2.781,2.6905,2.6565,2.4998,2.4193,2.4186,2.3724,2.2857,2.1761,2.0297,1.8961,1.7715,1.7102,1.6357,1.5624,1.4921,1.4203,1.3458,1.2661,1.2008,1.1483,1.13,1.1262,1.1176,1.0207,0.9648,0.9076,0.7598,0.6882,0.6615,0.5841,0.5552,0.5251,0.3981,0.3261,0.2332,0.0811,-0.0543,-0.1462,-0.1462,-0.1472,-0.1499,-0.156,-0.1585,-0.1602,-0.1615,-0.1617,-0.1617,-0.1617,-0.1617,-0.1617,-0.1617,-0.1617,-0.1718,-0.2022,-0.2121,-0.2322,-0.2522,-0.2826,-0.3128,-0.363,-0.393,-0.463,-0.5824,-0.6226,-0.722,-0.9197,-0.9402,-1.01,-1.1194,-1.1194,-1.1292,-1.1585,-1.2268,-1.2953,0.0,0.0,0.0,0.0,0.0,0.0,2.7951,2.8887,3.0208,0.0,0.0,0.0,0.0,0.0,0.0,0.0,0.0,0.0,0.0,0.0,0.0,0.0,0.0,0.0,0.0,3.1581,3.0563,3.0507,3.1023,3.1456,3.179,3.0797,3.0228,3.0075,2.9856,2.9378,2.8542,2.7557,2.6648,2.5819,2.4482,2.3916,2.4018,2.2822,2.1967,2.1256,1.96,1.8407,1.751,1.666,1.5987,1.5398,1.4621,1.4091,1.3592,1.2665,1.2034,1.1671,1.1462,1.1283,1.1094,1.0057,0.9283,0.8473,0.7286,0.6448,0.5794,0.5433,0.5216,0.4829,0.3706,0.2593,0.1475,0.0451,-0.0629,-0.144,-0.1436,-0.1454,-0.1487,-0.1545,-0.1562,-0.1574,-0.1598,-0.1605,-0.1608,-0.1611,-0.1612,-0.1613,-0.1617,-0.1617,-0.1718,-0.2021,-0.2322,-0.2522,-0.2826,-0.3029,-0.3632,-0.4533,-0.5031,-0.5727,-0.6816,-0.7717,-0.8513,-0.9395,-0.9908,-1.0507,-1.1292,-1.1292,-1.1585,-1.2078,-1.3055,-1.3539,0.0,0.0,0.0,0.0,0.0,0.0,2.4504,2.5622,2.6942,0.0,0.0,0.0,0.0,0.0,0.0,0.0,0.0,0.0,0.0,0.0,0.0,0.0,0.0,0.0,0.0,3.1694,3.1004,3.0563,3.043,3.0549,3.1071,3.0033,2.9668,3.0062,2.9856,2.9378,2.8542,2.7557,2.6648,2.5819,2.4305,2.349,2.3392,2.1903,2.0605,1.9565,1.8543,1.7416,1.626,1.6088,1.5935,1.5647,1.4515,1.3847,1.353,1.2258,1.1744,1.1693,1.1645,1.151,1.1029,0.9415,0.8767,0.8259,0.6656,0.5888,0.5555,0.5153,0.4577,0.3667,0.2279,0.123,0.0188,-0.0831,-0.1288,-0.1465,-0.144,-0.1421,-0.1418,-0.1455,-0.1501,-0.1529,-0.151,-0.1528,-0.1552,-0.1577,-0.158,-0.1689,-0.1917,-0.1921,-0.2122,-0.2625,-0.2725,-0.2826,-0.313,-0.313,-0.3331,-0.3531,-0.4531,-0.5827,-0.7021,-0.8308,-0.9497,-1.0792,-1.09,-1.1296,-1.1883,-1.1883,-1.2078,-1.2667,-1.3249,-1.3727,0.0,0.0,0.0,2.3642,0.0,0.0,0.0,2.5265,2.6264,0.0,0.0,0.0,0.0,0.0,0.0,0.0,0.0,0.0,0.0,0.0,0.0,0.0,0.0,0.0,0.0,3.1913,3.102,3.0041,2.9397,2.9063,2.8926,2.8599,2.8515,2.8672,2.8474,2.79,2.7035,2.6234,2.5363,2.4323,2.3309,2.2808,2.2679,2.0995,1.9734,1.8836,1.7904,1.6792,1.5602,1.549,1.529,1.5064,1.4038,1.351,1.3079,1.191,1.1602,1.1682,1.1564,1.1097,1.04,0.8996,0.8313,0.7599,0.6082,0.5456,0.5118,0.4944,0.4126,0.3,0.1875,0.0837,-0.0184,-0.1187,-0.1458,-0.145,-0.1419,-0.1401,-0.1386,-0.1371,-0.1406,-0.1446,-0.1476,-0.1506,-0.1531,-0.1547,-0.1659,-0.1873,-0.1991,-0.2109,-0.2323,-0.2725,-0.2826,-0.2927,-0.313,-0.323,-0.3531,-0.4334,-0.5529,-0.6825,-0.8315,-0.96,-1.0493,-1.1194,-1.1487,-1.1688,-1.198,-1.2467,-1.2861,-1.3152,-1.363,-1.4016,0.0,0.0,0.0,0.0,0.0,2.3838,0.0,0.0,0.0,0.0,0.0,0.0,0.0,0.0,0.0,0.0,0.0,0.0,0.0,0.0,0.0,0.0,0.0,0.0,0.0,3.1326,3.0273,2.9233,2.8183,2.7366,2.6916,2.7224,2.7366,2.7281,2.703,2.6463,2.5624,2.4859,2.3945,2.2859,2.232,2.197,2.1791,2.0104,1.8887,1.8194,1.7295,1.6316,1.5369,1.5014,1.4532,1.4146,1.3476,1.304,1.2622,1.1739,1.1537,1.1671,1.1483,1.0768,0.9777,0.8844,0.7814,0.6819,0.5589,0.5044,0.4727,0.4514,0.356,0.2445,0.1478,0.0548,-0.0449,-0.1262,-0.144,-0.1427,-0.1397,-0.1386,-0.1366,-0.1313,-0.1322,-0.1364,-0.1442,-0.148,-0.1598,-0.1516,-0.1832,-0.2055,-0.216,-0.2294,-0.2623,-0.2826,-0.2927,-0.2927,-0.323,-0.323,-0.3833,-0.5236,-0.6528,-0.7819,-0.9213,-1.0502,-1.1292,-1.1389,-1.1683,-1.198,-1.2273,-1.305,-1.3443,-1.3539,-1.401,-1.4298,0.0,0.0,0.0,0.0,2.3494,0.0,0.0,0.0,0.0,0.0,0.0,0.0,0.0,0.0,0.0,0.0,0.0,0.0,0.0,0.0,0.0,0.0,0.0,0.0,0.0,0.0,2.7876,2.8311,2.6524,2.5896,2.685,2.6729,2.6848,2.7268,2.703,2.6463,2.5624,2.4703,2.3785,2.2859,2.207,2.1221,2.0442,1.8923,1.7691,1.6836,1.5959,1.5543,1.5347,1.4692,1.4088,1.3476,1.279,1.2602,1.2645,1.1927,1.1677,1.1698,1.1671,1.0901,0.98,0.8987,0.7431,0.5746,0.4987,0.4869,0.4614,0.3341,0.2397,0.148,0.0378,-0.0554,-0.1262,-0.1469,-0.1455,-0.1427,-0.1397,-0.137,-0.1343,-0.1309,-0.1305,-0.1319,-0.1356,-0.156,-0.178,-0.1756,-0.2079,-0.2312,-0.2546,-0.2693,-0.2826,-0.313,-0.313,-0.313,-0.323,-0.323,-0.3531,-0.4133,-0.6129,-0.7521,-0.812,-1.0105,-1.1389,-1.1883,-1.1487,-1.1975,-1.3346,-1.3055,-1.3055,-1.3539,-1.401,-1.4298,0.0,0.0,0.0,0.0,0.0,0.0,0.0,0.0,2.3494,0.0,0.0,0.0,0.0,0.0,0.0,0.0,0.0,0.0,0.0,0.0,0.0,0.0,0.0,0.0,0.0,0.0,0.0,0.0,2.5754,2.4945,2.4725,2.4899,2.5074,2.5178,2.4909,2.4599,2.41,2.312,2.2366,2.1926,2.0918,2.0188,1.962,1.7985,1.7025,1.6617,1.5748,1.5173,1.4741,1.4062,1.3385,1.2711,1.2026,1.1835,1.1838,1.1581,1.1494,1.1406,1.0875,0.9925,0.8632,0.7108,0.5968,0.5132,0.4863,0.4708,0.4491,0.3946,0.2796,0.148,0.1027,-0.0275,-0.1438,-0.1451,-0.1444,-0.1423,-0.1376,-0.1356,-0.1334,-0.1446,-0.1436,-0.1526,-0.1643,-0.1699,-0.1756,-0.181,-0.2242,-0.258,-0.2697,-0.2874,-0.3016,-0.3181,-0.321,-0.323,-0.323,-0.3531,-0.3932,-0.4435,-0.6728,-0.8421,-0.9122,-1.0797,-1.1585,-1.159,-1.217,-1.2759,-1.3055,-1.3437,-1.3721,-1.401,-1.4202,-1.4394,2.5798,0.0,0.0,0.0,0.0,0.0,0.0,0.0,0.0,0.0,0.0,0.0,0.0,0.0,0.0,0.0,0.0,0.0,0.0,0.0,0.0,0.0,0.0,0.0,0.0,0.0,0.0,2.5327,2.4735,2.405,2.3173,2.369,2.3901,2.361,2.3375,2.3187,2.3001,2.1959,2.1359,2.1205,2.0089,1.9347,1.9057,1.7392,1.659,1.6436,1.5702,1.4999,1.4314,1.3646,1.2966,1.2363,1.1607,1.1262,1.1262,1.1262,1.1262,1.1176,1.012,0.8882,0.7386,0.5539,0.4906,0.4802,0.4684,0.4508,0.4264,0.3856,0.2697,0.1467,0.0922,-0.0364,-0.1436,-0.1436,-0.1436,-0.1419,-0.1276,-0.1348,-0.1412,-0.1586,-0.165,-0.1738,-0.1847,-0.1913,-0.1982,-0.1949,-0.2384,-0.2729,-0.2759,-0.3028,-0.3177,-0.3165,-0.3189,-0.3213,-0.3229,-0.3732,-0.4433,-0.5334,-0.7528,-0.9122,-0.992,-1.1194,-1.1785,-1.1683,-1.2565,-1.3147,-1.3244,-1.3817,-1.4202,-1.4298,-1.4394,-1.4496,0.0,0.0,0.0,2.4152,0.0,0.0,0.0,0.0,2.3494,0.0,0.0,0.0,0.0,0.0,0.0,0.0,0.0,0.0,0.0,0.0,0.0,0.0,0.0,0.0,0.0,0.0,0.0,2.3094,2.3109,2.3065,2.3075,2.369,2.3901,2.361,2.3375,2.3187,2.3001,2.1807,2.1215,2.1205,1.9942,1.9012,1.8454,1.7269,1.6399,1.5884,1.5562,1.4999,1.4314,1.3646,1.2966,1.2363,1.1607,1.1262,1.1262,1.1262,1.1262,1.1176,1.0024,0.8261,0.6239,0.5102,0.4727,0.4697,0.4422,0.4365,0.3972,0.2033,0.1457,0.099,-0.092,-0.1367,-0.1436,-0.1436,-0.1436,-0.1419,-0.1276,-0.1514,-0.166,-0.1586,-0.1729,-0.1887,-0.1888,-0.2086,-0.2317,-0.2334,-0.2662,-0.2921,-0.3034,-0.3052,-0.31,-0.3215,-0.3177,-0.3166,-0.3226,-0.3732,-0.4732,-0.6631,-0.8024,-0.9122,-0.992,-1.0801,-1.1683,-1.2764,-1.2273,-1.2754,-1.4298,-1.3727,-1.3823,-1.4298,-1.4592,-1.4688,0.0,0.0,3.1085,2.7486,0.0,0.0,0.0,0.0,0.0,0.0,0.0,0.0,0.0,0.0,0.0,0.0,0.0,0.0,0.0,0.0,0.0,0.0,0.0,0.0,0.0,0.0,0.0,2.3067,2.3838,2.397,2.3173,2.3265,2.3095,2.2453,2.2536,2.2269,2.1565,2.1207,2.1123,2.1401,1.9606,1.8689,1.8562,1.7172,1.6126,1.5529,1.5389,1.4681,1.3743,1.3151,1.2429,1.1688,1.1435,1.1262,1.1262,1.1262,1.1084,1.0549,0.8615,0.6834,0.5285,0.4678,0.4453,0.4522,0.44,0.4369,0.4095,0.2896,0.2021,0.1079,-0.0092,-0.0911,-0.1436,-0.1436,-0.1436,-0.1419,-0.1276,-0.1514,-0.1742,-0.1824,-0.1963,-0.2119,-0.2276,-0.237,-0.2446,-0.2548,-0.2771,-0.2917,-0.3129,-0.3144,-0.3065,-0.3106,-0.3419,-0.3655,-0.3726,-0.4533,-0.5434,-0.6434,-0.7431,-0.8524,-0.971,-1.0886,-1.1868,-1.2759,-1.3238,-1.3624,-1.3727,-1.3919,-1.4202,-1.4592,-1.4885,-1.4981,3.2242,3.306,0.0,2.9898,2.9779,0.0,2.6282,0.0,0.0,0.0,0.0,0.0,0.0,0.0,0.0,0.0,0.0,0.0,0.0,0.0,0.0,0.0,0.0,0.0,0.0,0.0,2.3331,2.3026,2.3811,2.3944,0.0,0.0,2.2689,2.1804,2.2083,2.1745,2.0818,2.0831,2.0879,2.0827,1.9244,1.8396,1.8062,1.6904,1.6089,1.5544,1.5339,1.4568,1.3465,1.2931,1.2207,1.1467,1.1381,1.1223,1.1112,1.1116,1.0289,0.9139,0.7386,0.5858,0.4561,0.4408,0.4338,0.4387,0.4387,0.4346,0.4045,0.2839,0.1998,0.1076,-0.009,-0.0901,-0.1436,-0.1525,-0.1436,-0.1419,-0.153,-0.1683,-0.1825,-0.1981,-0.2198,-0.2353,-0.251,-0.2511,-0.2491,-0.2578,-0.2708,-0.2853,-0.2971,-0.3193,-0.3318,-0.3363,-0.389,-0.4245,-0.4528,-0.5434,-0.6134,-0.6337,-0.7822,-0.9011,-0.9608,-1.1175,-1.2318,-1.2923,-1.3674,-1.3872,-1.3593,-1.416,-1.4496,-1.4694,-1.5077,-1.5267]},{"header":{"parameterUnit":"m.s-1","parameterCategory":1,"la1":30.6,"la2":29.2853,"lo1":-89.7004,"lo2":-87.6739,"dy":0.0162,"dx":0.0183,"nx":112,"ny":82,"refTime":"2023-04-05T12:00:00:Z","depth":0,"parameterNumber":3,"parameterNumberName":"V-component_of_WINDS"},"data":[0.0,0.0,0.0,0.0,0.0,0.0,0.0,0.0,0.0,0.0,0.0,0.0,0.0,0.0,0.0,0.0,0.0,0.0,0.0,0.0,0.0,0.0,0.0,0.0,0.0,0.0,0.0,0.0,0.0,0.0,0.0,0.0,0.0,0.0,0.0,0.0,0.0,0.0,0.0,0.0,0.0,0.0,0.0,0.0,0.0,0.0,0.0,0.0,0.0,0.0,0.0,0.0,0.0,0.0,0.0,0.0,0.0,0.0,0.0,0.0,0.0,0.0,0.0,0.0,0.0,0.0,0.0,0.0,0.0,0.0,0.0,0.0,0.0,0.0,0.0,0.0,0.0,0.0,0.0,0.0,0.0,0.0,0.0,0.0,0.0,0.0,0.0,0.0,0.0,0.0,0.0,0.421,0.4561,0.4759,0.4673,0.4679,0.4921,0.5387,0.0,0.0,0.0,0.0,0.0,0.0,0.0,0.0,0.0,0.0,0.0,0.0,0.0,0.0,0.0,0.0,0.0,0.0,0.0,0.0,0.0,0.0,0.0,0.0,0.0,0.0,0.0,0.0,0.0,0.0,0.0,0.0,0.0,0.0,0.0,0.0,0.0,0.0,0.0,0.0,0.0,0.0,0.0,0.0,0.0,0.0,0.0,0.0,0.0,0.0,0.0,0.0,0.0,0.0,0.0,0.0,0.0,0.0,0.0,0.0,0.0,0.0,0.0,0.0,0.0,0.0,0.0,0.0,0.0,0.0,0.0,0.0,0.0,0.0,0.0,0.0,0.0,0.0,0.0,0.0,0.0,0.0,0.0,0.0,0.0,0.0,0.0,0.0,0.0,0.0,0.0,0.0,0.0,0.0,0.0,0.0,0.0,0.0,0.0,0.0,0.0,0.0,0.0,0.0,0.3454,0.428,0.4526,0.4575,0.4485,0.4549,0.4667,0.4821,0.0,0.0,0.0,0.0,0.0,0.0,0.0,0.0,0.0,0.0,0.0,0.0,0.0,0.0,0.0,0.0,0.0,0.0,0.0,0.0,0.0,0.0,0.0,0.0,0.0,0.0,0.0,0.0,0.0,0.0,0.0,0.0,0.0,0.0,0.0,0.0,0.0,0.0,0.0,0.0,0.0,0.0,0.0,0.0,0.0,0.0,0.0,0.0,0.0,0.0,0.0,0.0,0.0,0.0,0.0,0.0,0.0,0.0,0.0,0.0,0.0,0.0,0.0,0.0,0.0,0.0,0.0,0.0,0.0,0.0,0.0,0.0,0.0,0.0,0.0,0.0,0.0,0.0,0.0,0.0,0.0,0.0,0.0,0.0,0.0,0.0,0.0,0.0,0.0,0.0,0.0,0.0,0.0,0.0,0.0,0.0,0.0,0.0,0.0,0.0,0.0,0.0,0.0,0.3263,0.3676,0.4469,0.4547,0.4555,0.4514,0.4549,0.4652,0.4661,0.4945,0.0,0.0,0.0,0.0,0.0,0.0,0.0,0.0,0.0,0.0,0.0,0.0,0.0,0.0,0.0,0.0,0.0,0.0,0.0,0.0,0.0,0.0,0.0,0.0,0.0,0.0,0.0,0.0,0.0,0.0,0.0,0.0,0.0,0.0,0.0,0.0,0.0,0.0,0.0,0.0,0.0,0.0,0.0,0.0,0.0,0.0,0.0,0.0,0.0,0.0,0.0,0.0,0.0,0.0,0.0,0.0,0.0,0.0,0.0,0.0,0.0,0.0,0.0,0.0,0.0,0.0,0.0,0.0,0.0,0.0,0.0,0.0,0.0,0.0,0.0,0.0,0.0,0.0,0.0,0.0,0.0,0.0,0.0,0.0,0.0,0.0,0.0,0.0,0.0,0.0,0.0,0.0,0.0,0.0,0.0,0.0,0.0,0.0,0.0,0.0,0.0,0.0,0.3485,0.3867,0.4471,0.4526,0.454,0.454,0.4368,0.4286,0.4498,0.4299,0.0,0.0,0.0,0.0,0.0,0.0,0.0,0.0,0.0,0.0,0.0,0.0,0.0,0.0,0.0,0.0,0.0,0.0,0.0,0.0,0.0,0.0,0.0,0.0,0.0,0.0,0.0,0.0,0.0,0.0,0.0,0.0,0.0,0.0,0.0,0.0,0.0,0.0,0.0,0.0,0.0,0.0,0.0,0.0,0.0,0.0,0.0,0.0,0.0,0.0,0.0,0.0,0.0,0.0,0.0,0.0,0.0,0.0,0.0,0.0,0.0,0.0,0.0,0.0,0.0,0.0,0.0,0.0,0.0,0.0,0.0,0.0,0.0,0.0,0.0,0.0,0.0,0.0,0.0,0.0,0.0,0.0,0.0,0.0,0.0,0.0,0.0,0.0,0.0,0.0,0.0,0.0,0.0,0.0,0.0,0.0,0.0,0.0,0.0,0.0,0.0,0.0,0.2883,0.3303,0.4224,0.4393,0.4444,0.4444,0.367,0.3463,0.3926,0.3164,0.0,0.0,0.0,0.0,0.0,0.0,0.0,0.0,0.0,0.0,0.0,0.0,0.0,0.0,0.0,0.0,0.0,0.0,0.0,0.0,0.0,0.0,0.0,0.0,0.0,0.0,0.0,0.0,0.0,0.0,0.0,0.0,0.0,0.0,0.0,0.0,0.0,0.0,0.0,0.0,0.0,0.0,0.0,0.0,0.0,0.0,0.0,0.0,0.0,0.0,0.0,0.0,0.0,0.0,0.0,0.0,0.0,0.0,0.0,0.0,0.0,0.0,0.0,0.0,0.0,0.0,0.0,0.0,0.0,0.0,0.0,0.0,0.0,0.0,0.0,0.0,0.0,0.0,0.0,0.0,0.0,0.0,0.0,0.0,0.0,0.0,0.0,0.0,0.0,0.0,0.0,0.0,0.0,0.0,0.0,0.0,0.0,0.0,0.0,0.0,0.0,0.0,0.1425,0.2039,0.0,0.3532,0.3498,0.3542,0.3242,0.2839,0.2337,0.0,0.0,0.0,0.0,0.0,0.0,0.0,0.0,0.0,0.0,0.0,0.0,0.0,0.0,0.0,0.0,0.0,0.0,0.0,0.0,0.0,0.0,0.0,0.0,0.0,0.0,0.0,0.0,0.0,0.0,0.0,0.0,0.0,0.0,0.0,0.0,0.0,0.0,0.0,0.0,0.0,0.0,0.0,0.0,0.0,0.0,0.0,0.0,0.0,0.0,0.0,0.0,0.0,0.0,0.0,0.0,0.0,0.0,0.0,0.0,0.0,0.0,0.0,0.0,0.0,0.0,0.0,0.0,0.0,0.0,0.0,0.0,0.0,0.0,0.0,0.0,0.0,0.0,0.0,0.0,0.0,0.0,0.0,0.0,0.0,0.0,0.0,0.0,0.0,0.0,0.0,0.0,0.0,0.0,0.0,0.0,0.0,0.0,0.0,0.0,0.0,0.0,0.0315,0.0423,0.0986,0.0,0.2467,0.2509,0.2543,0.2307,0.1924,0.1338,0.0,0.0,0.0,0.0,0.0,0.0,0.0,0.0,0.0,0.0,0.0,0.0,0.0,0.0,0.0,0.0,0.0,0.0,0.0,0.0,0.0,0.0,0.0,0.0,0.0,0.0,0.0,0.0,0.0,0.0,0.0,0.0,0.0,0.0,0.0,0.0,0.0,0.0,0.0,0.0,0.0,0.0,0.0,0.0,0.0,0.0,0.0,0.0,0.0,0.0,0.0,0.0,0.0,0.0,0.0,0.0,0.0,0.0,0.0,0.0,0.0,0.0,0.0,0.0,0.0,0.0,0.0,0.0,0.0,0.0,0.0,0.0,0.0,0.0,0.0,0.0,0.0,0.0,0.0,0.0,0.0,0.0,0.0,0.0,0.0,0.0,0.0,0.0,0.0,0.0,0.0,0.0,0.0,0.0,0.0,0.0,0.0,0.0,0.0,0.0,0.0,0.0,0.0162,-0.0088,0.0,0.114,0.1356,0.147,0.147,0.0577,0.0456,0.0,0.0,0.0,0.0,0.0,0.0,0.0,0.0,0.0,0.0,0.0,0.0,0.0,0.0,0.0,0.0,0.0,0.0,0.0,0.0,0.0,0.0,0.0,0.0,0.0,0.0,0.0,0.0,0.0,0.0,0.0,0.0,0.0,0.0,0.0,0.0,0.0,0.0,0.0,0.0,0.0,0.0,0.0,0.0,0.0,0.0,0.0,0.0,0.0,0.0,0.0,0.0,0.0,0.0,0.0,0.0,0.0,0.0,0.0,0.0,0.0,0.0,0.0,0.0,0.0,0.0,0.0,0.0,0.0,0.0,0.0,0.0,0.0,0.0,0.0,0.0,0.0,0.0,0.0,0.0,0.0,0.0,0.0,0.0,0.0,0.0,0.0,0.0,0.0,0.0,0.0,0.0,0.0,0.0,0.0,0.0,0.0,0.0,0.0,0.0,0.0,0.0,0.0,-0.133,-0.1545,-0.1158,0.0194,-0.0296,-0.0698,-0.0698,-0.1546,-0.1919,-0.1754,0.0,0.0,0.0,0.0,0.0,0.0,0.0,0.0,0.0,0.0,0.0,0.0,0.0,0.0,0.0,0.0,0.0,0.0,0.0,0.0,0.0,0.0,0.0,0.0,0.0,0.0,0.0,0.0,0.0,0.0,0.0,0.0,0.0,0.0,0.0,0.0,0.0,0.0,0.0,0.0,0.0,0.0,0.0,0.0,0.0,0.0,0.0,0.0,0.0,0.0,0.0,0.0,0.0,0.0,0.0,0.0,0.0,0.0,0.0,0.0,0.0,0.0,0.0,0.0,0.0,0.0,0.0,0.0,0.0,0.0,0.0,0.0,0.0,0.0,0.0,0.0,0.0,0.0,0.0,0.0,0.0,0.0,0.0,0.0,0.0,0.0,0.0,0.0,0.0,0.0,0.0,0.0,0.0,0.0,0.0,0.0,0.0,0.0,0.0,0.0,0.0,0.0,-0.2801,-0.3241,-0.3238,-0.2174,-0.2594,-0.2912,-0.2912,-0.3296,-0.3587,-0.3587,0.0,0.0,0.0,0.0,0.0,0.0,0.0,0.0,0.0,0.0,0.0,0.0,0.0,0.0,0.0,0.0,0.0,0.0,0.0,0.0,0.0,0.0,0.0,0.0,0.0,0.0,0.0,0.0,0.0,0.0,0.0,0.0,0.0,0.0,0.0,0.0,0.0,0.0,0.0,0.0,0.0,0.0,0.0,0.0,0.0,0.0,0.0,0.0,0.0,0.0,0.0,0.0,0.0,0.0,0.0,0.0,0.0,0.0,0.0,0.0,0.0,0.0,0.0,0.0,0.0,0.0,0.0,0.0,0.0,0.0,0.0,0.0,0.0,0.0,0.0,0.0,0.0,0.0,0.0,0.0,0.0,0.0,0.0,0.0,0.0,0.0,0.0,0.0,0.0,0.0,0.0,0.0,0.0,0.0,0.0,0.0,0.0,0.0,0.0,0.0,0.0,0.0,-0.4151,-0.4951,-0.5429,-0.522,-0.5027,-0.4924,-0.4924,-0.4962,-0.4827,-0.4533,0.0,0.0,0.0,0.0,0.0,0.0,0.0,0.0,0.0,0.0,0.0,0.0,0.0,0.0,0.0,0.0,0.0,0.0,0.0,0.0,0.0,0.0,0.0,0.0,0.0,0.0,0.0,0.0,0.0,0.0,0.0,0.0,0.0,0.0,0.0,0.0,0.0,0.0,0.0,0.0,0.0,0.0,0.0,0.0,0.0,0.0,0.0,0.0,0.0,0.0,0.0,0.0,0.0,0.0,0.0,0.0,0.0,0.0,0.0,0.0,-0.5312,0.0,0.0,0.0,0.0,0.0,0.0,0.0,0.0,0.0,0.0,0.0,0.0,0.0,0.0,0.0,0.0,0.0,0.0,0.0,0.0,0.0,0.0,0.0,0.0,0.0,0.0,0.0,0.0,0.0,0.0,0.0,0.0,0.0,0.0,0.0,0.0,0.0,0.0,0.0,0.0,0.0,-0.5053,-0.5334,-0.5504,-0.5227,-0.5732,-0.6032,-0.6032,-0.6692,-0.672,-0.5786,0.0,0.0,0.0,0.0,0.0,0.0,0.0,0.0,0.0,0.0,0.0,0.0,0.0,0.0,0.0,0.0,0.0,0.0,0.0,0.0,0.0,0.0,0.0,0.0,0.0,0.0,0.0,0.0,0.0,0.0,0.0,0.0,0.0,0.0,0.0,0.0,0.0,0.0,0.0,0.0,0.0,0.0,0.0,0.0,0.0,0.0,0.0,0.0,0.0,0.0,0.0,0.0,0.0,0.0,0.0,0.0,0.0,0.0,0.0,0.0,0.0,-0.5513,0.0,0.0,0.0,0.0,0.0,0.0,0.0,0.0,0.0,0.0,0.0,0.0,0.0,0.0,0.0,0.0,0.0,0.0,0.0,0.0,0.0,0.0,0.0,0.0,0.0,0.0,0.0,0.0,0.0,0.0,0.0,0.0,0.0,0.0,0.0,0.0,0.0,0.0,0.0,0.0,-0.6233,-0.689,-0.7226,-0.7129,-0.7723,-0.8216,-0.8315,-0.9046,-0.9173,-0.8438,-0.8194,0.0,0.0,0.0,0.0,0.0,0.0,0.0,0.0,0.0,0.0,0.0,0.0,0.0,0.0,0.0,0.0,0.0,0.0,0.0,0.0,0.0,0.0,0.0,0.0,0.0,0.0,0.0,0.0,0.0,0.0,0.0,0.0,0.0,0.0,0.0,0.0,0.0,0.0,0.0,0.0,0.0,0.0,0.0,0.0,0.0,0.0,0.0,0.0,0.0,0.0,0.0,0.0,0.0,-0.5825,-0.5703,-0.5499,-0.5606,-0.5721,-0.581,-0.5925,-0.6051,-0.6062,0.0,0.0,0.0,0.0,0.0,0.0,0.0,0.0,0.0,0.0,0.0,0.0,0.0,0.0,0.0,0.0,0.0,0.0,0.0,0.0,0.0,0.0,0.0,0.0,0.0,-0.3849,-0.3526,0.0,0.0,0.0,0.0,0.0,0.0,0.0,0.0,0.0,0.0,0.0,0.0,-0.7591,-0.8536,-0.9236,-0.9236,-0.9715,-1.0194,-1.0391,-1.1009,-1.1288,-1.1071,-1.0612,-1.0159,0.0,0.0,0.0,0.0,0.0,0.0,0.0,0.0,0.0,0.0,0.0,0.0,0.0,0.0,0.0,0.0,0.0,0.0,0.0,0.0,0.0,0.0,0.0,0.0,0.0,0.0,0.0,0.0,0.0,0.0,0.0,0.0,-0.5281,-0.5298,0.0,0.0,0.0,0.0,0.0,0.0,0.0,0.0,0.0,0.0,0.0,0.0,0.0,-0.57,-0.5733,-0.5937,-0.5986,-0.5885,-0.6195,-0.5992,-0.5504,-0.6079,-0.6041,-0.5678,-0.6276,0.0,-0.6075,-0.592,0.0,0.0,0.0,0.0,0.0,0.0,0.0,0.0,0.0,0.0,0.0,0.0,0.0,0.0,0.0,0.0,0.0,0.0,0.0,0.0,0.0,0.0,-0.6926,-0.6232,-0.596,-0.5971,0.0,-0.4912,-0.3978,-0.3962,-0.4536,0.0,0.0,0.0,0.0,0.0,0.0,0.0,-0.8579,-0.8993,-0.9236,-0.9236,-0.9908,-1.0391,-1.0391,-1.1239,-1.1804,-1.1581,-1.1119,-1.0701,-1.0434,-1.0778,0.0,0.0,0.0,0.0,0.0,0.0,0.0,0.0,0.0,0.0,0.0,0.0,0.0,0.0,0.0,0.0,0.0,0.0,0.0,0.0,0.0,0.0,0.0,0.0,0.0,0.0,0.0,0.0,0.0,-0.5162,-0.5265,-0.5265,-0.5235,-0.5162,0.0,0.0,0.0,0.0,0.0,0.0,0.0,0.0,0.0,-0.7289,-0.6844,-0.6608,-0.6677,-0.639,-0.6225,-0.6111,-0.6331,-0.6278,-0.5979,-0.6286,-0.6203,-0.6051,-0.6366,-0.6429,-0.6274,-0.6157,-0.5977,-0.5752,0.0,0.0,0.0,0.0,-0.6254,-0.6381,-0.7015,-0.7295,0.0,0.0,0.0,0.0,0.0,0.0,0.0,0.0,0.0,0.0,0.0,0.0,0.0,-0.6889,-0.6822,-0.6822,-0.6617,-0.6547,-0.6179,0.0,-0.5085,-0.5144,-0.5784,0.0,0.0,0.0,0.0,0.0,-0.9762,-1.0577,-1.1179,-1.1179,-1.1858,-1.2383,-1.2337,-1.3093,-1.3677,-1.3789,-1.3653,-1.3523,-1.3655,-1.3586,-1.3313,0.0,0.0,0.0,0.0,0.0,0.0,0.0,0.0,0.0,0.0,0.0,0.0,0.0,0.0,0.0,0.0,0.0,0.0,0.0,0.0,0.0,0.0,0.0,0.0,0.0,0.0,0.0,0.0,-0.5448,-0.5644,-0.5333,-0.5879,-0.6048,0.0,0.0,0.0,0.0,0.0,0.0,-0.7334,-0.7875,-0.8276,-0.8475,-0.7963,-0.7736,-0.7801,-0.726,-0.697,-0.6849,-0.6973,-0.6869,-0.6657,-0.6679,-0.6589,-0.6317,-0.6597,-0.6637,-0.6429,-0.6344,-0.6222,-0.607,-0.5893,-0.5787,-0.583,-0.6687,-0.6982,-0.7118,-0.8291,-0.8607,-0.8508,-0.7999,0.0,-0.756,-0.6774,0.0,0.0,0.0,0.0,-0.6971,-0.7498,-0.7657,-0.7701,-0.7977,-0.8018,-0.7918,-0.7813,-0.7969,-0.7917,0.0,-0.6135,-0.5977,-0.693,0.0,0.0,0.0,0.0,-1.0582,-1.1066,-1.1993,-1.2727,-1.2727,-1.3511,-1.3987,-1.38,-1.4631,-1.5248,-1.5676,-1.5562,-1.5745,-1.6231,-1.6142,-1.5902,-1.5573,0.0,0.0,0.0,0.0,0.0,0.0,0.0,0.0,0.0,0.0,0.0,0.0,0.0,0.0,0.0,0.0,0.0,0.0,0.0,0.0,0.0,0.0,0.0,0.0,0.0,0.0,0.0,0.0,0.0,-0.5822,-0.7272,0.0,0.0,0.0,0.0,-0.7994,-0.8009,-0.8158,-0.8377,-0.8489,-0.8475,-0.8457,-0.8619,-0.863,-0.8475,-0.8641,-0.8641,-0.8479,-0.8645,-0.8245,-0.7421,-0.7464,-0.7129,-0.6426,-0.7229,-0.7132,-0.6437,-0.6431,-0.6293,-0.6083,-0.6072,-0.5931,-0.5849,-0.691,-0.7286,-0.7442,-0.866,-0.9022,-0.9097,-0.9042,-0.8871,-0.8671,-0.8874,-0.8745,0.0,0.0,-1.0053,-1.0199,-1.0706,-1.0865,-1.072,-1.0353,-1.0212,-1.0212,-1.0212,-0.9152,-0.8106,0.0,-0.8339,-0.8818,-0.8713,0.0,-0.9054,-1.0107,-1.0481,-1.1071,-1.2229,-1.2571,-1.2727,-1.2727,-1.3613,-1.4177,-1.3794,-1.4731,-1.5616,-1.6264,-1.5778,-1.5933,-1.7014,-1.7401,-1.7042,-1.5819,-1.7234,0.0,0.0,0.0,0.0,0.0,0.0,0.0,0.0,0.0,0.0,0.0,0.0,0.0,0.0,0.0,0.0,0.0,0.0,0.0,0.0,0.0,0.0,0.0,0.0,0.0,0.0,0.0,0.0,-0.7354,-0.7945,0.0,-0.7698,-0.8575,-0.8889,-0.8428,-0.9473,-0.9862,-0.9518,-1.0125,-1.036,-1.0201,-0.9888,-0.9644,-0.9348,-0.8935,-0.8739,-0.8575,-0.8743,-0.8594,-0.8343,-0.84,-0.8226,-0.7928,-0.8226,-0.8226,-0.7935,-0.8126,-0.745,-0.6312,-0.6312,-0.66,-0.7192,-0.7486,-0.8378,-0.9501,-0.9887,-1.036,-1.0763,-1.0186,-0.9673,-0.9187,-0.9305,-0.9259,-0.9168,-0.9477,-0.9481,-0.967,-1.0228,-1.0419,-1.0501,-1.082,-1.09,-1.09,-1.0708,-1.0201,-0.993,-1.0188,-0.9184,-0.837,-0.8758,-0.9561,-1.019,-1.0386,-1.1731,-1.2995,-1.3535,-1.4226,-1.4663,-1.4663,-1.5057,-1.5337,-1.5388,-1.5722,-1.6382,-1.7355,-1.7193,-1.7532,-1.8438,-1.8638,-1.8514,-1.8083,-1.856,-1.8219,0.0,0.0,0.0,0.0,0.0,0.0,0.0,0.0,0.0,0.0,0.0,0.0,0.0,0.0,0.0,0.0,0.0,0.0,0.0,0.0,0.0,0.0,0.0,0.0,0.0,0.0,-0.8206,-0.7351,-0.8325,-0.8652,-0.7952,-0.9237,-0.9832,-0.9068,-1.0356,-1.103,-1.0509,-1.1074,-1.1345,-1.1198,-1.083,-1.0444,-1.0127,-0.982,-0.9551,-0.9433,-0.9555,-0.9517,-0.9221,-0.9221,-0.9023,-0.8825,-0.918,-0.9103,-0.8918,-0.9388,-0.8776,-0.7366,-0.7366,-0.7833,-0.8433,-0.8639,-0.9534,-1.0689,-1.0963,-1.1444,-1.1925,-1.1397,-1.0864,-1.0432,-1.0432,-1.0432,-1.0408,-1.0285,-1.0207,-1.0223,-1.0554,-1.0558,-1.0595,-1.1114,-1.1194,-1.1194,-1.0998,-1.1091,-1.138,-1.1775,-1.0377,-0.9304,-1.0027,-1.0886,-1.1467,-1.131,-1.2888,-1.4184,-1.4372,-1.5091,-1.5772,-1.6047,-1.6051,-1.6141,-1.6578,-1.6227,-1.6521,-1.7934,-1.7795,-1.8309,-1.952,-1.9217,-1.9124,-1.9394,-1.9637,-1.9183,-1.7938,0.0,0.0,0.0,0.0,0.0,0.0,0.0,0.0,0.0,0.0,0.0,0.0,0.0,0.0,0.0,0.0,0.0,0.0,0.0,0.0,0.0,0.0,0.0,-0.6923,-0.7861,-0.7855,-0.6048,-0.8346,-0.9389,-0.7631,-0.9702,-1.0904,-1.0126,-1.0806,-1.1288,-1.1505,-1.1321,-1.1203,-1.1194,-1.1203,-1.1109,-1.091,-1.1099,-1.1194,-1.1194,-1.1194,-1.0801,-1.0019,-1.0019,-0.9624,-0.8939,-0.9907,-0.988,-0.9286,-1.019,-1.0164,-0.953,-0.9421,-0.9421,-0.9533,-1.0268,-1.0589,-1.0724,-1.176,-1.2276,-1.2441,-1.2441,-1.2441,-1.2441,-1.2441,-1.2441,-1.2436,-1.2432,-1.229,-1.2087,-1.1865,-1.1661,-1.1463,-1.1246,-1.1194,-1.1194,-1.1194,-1.1765,-1.2339,-1.2436,-1.2063,-1.197,-1.2635,-1.2727,-1.278,-1.2975,-1.3791,0.0,-1.4581,-1.514,-1.5844,-1.6632,-1.6431,-1.6541,-1.7054,-1.6014,-1.6194,-1.7954,-1.7565,-1.811,-2.011,-1.9136,-1.8856,-1.9657,-2.0267,-2.0437,-2.0083,0.0,0.0,0.0,0.0,0.0,0.0,0.0,0.0,0.0,0.0,0.0,0.0,0.0,0.0,0.0,0.0,0.0,0.0,0.0,0.0,0.0,0.0,-0.7927,-0.729,-0.8581,-0.9437,-0.886,-0.9989,-1.0658,-1.0158,-1.0738,-1.1161,-1.1116,-1.1185,-1.1288,-1.1505,-1.1463,-1.1354,-1.1198,-1.1345,-1.1326,-1.1113,-1.1165,-1.1194,-1.1194,-1.1194,-1.1096,-1.09,-1.09,-1.0785,-1.0724,-1.1084,-1.1087,-1.112,-1.154,-1.1521,-1.1186,-0.9886,-0.9809,-1.0449,-1.0028,-1.0325,-1.1091,-1.2013,-1.2394,-1.2441,-1.2441,-1.2441,-1.2441,-1.2441,-1.2441,-1.2408,-1.2261,-1.2181,-1.2054,-1.1694,-1.1562,-1.1463,-1.1246,-1.1194,-1.1385,-1.2155,-1.2441,-1.3017,-1.4274,-1.4472,-1.4088,-1.3119,-1.3511,-1.3927,-1.3902,-1.5376,0.0,-1.6508,-1.7061,-1.7199,-1.6588,-1.6417,-1.646,-1.6767,-1.72,-1.8011,-1.9483,-1.9889,-2.0318,-2.0914,-2.0586,-2.0852,-2.1722,-2.0959,-2.1041,0.0,0.0,0.0,0.0,0.0,0.0,0.0,0.0,0.0,0.0,0.0,0.0,0.0,0.0,0.0,0.0,0.0,0.0,0.0,0.0,0.0,0.0,-0.8184,-0.8442,-0.7966,-0.91,-0.992,-0.9521,-1.0281,-1.0726,-1.0324,-1.0924,-1.1179,-1.0997,-1.1114,-1.1288,-1.1505,-1.143,-1.1406,-1.1453,-1.1496,-1.1496,-1.1458,-1.1458,-1.1458,-1.1458,-1.1458,-1.1458,-1.1458,-1.1458,-1.1524,0.0,-1.1642,-1.1709,-1.1827,-1.1954,-1.2006,0.0,0.0,0.0,0.0,0.0,-1.1142,-1.1673,-1.2219,-1.2441,-1.2441,-1.2441,-1.2441,-1.2441,-1.2441,-1.2441,-1.2436,-1.2408,-1.2276,-1.2101,-1.1945,-1.1775,-1.159,-1.1383,-1.1331,-1.1594,-1.2462,-1.3017,-1.3788,-1.5324,-1.5818,0.0,-1.5399,-1.5507,-1.5584,-1.5389,-1.6771,-1.7819,-1.7566,-1.7948,-1.8103,-1.7801,-1.764,-1.7729,-1.822,-1.8467,0.0,0.0,0.0,-2.1073,-2.1607,-2.2052,0.0,0.0,0.0,-2.3498,-2.4927,0.0,0.0,0.0,-2.5265,-2.6284,0.0,0.0,0.0,0.0,0.0,0.0,0.0,0.0,0.0,0.0,0.0,0.0,0.0,0.0,0.0,0.0,-0.8243,-0.8851,-0.895,-0.9565,-0.9772,-0.9053,-0.9903,-1.0213,-0.9497,-1.0729,-1.1254,-1.0552,-1.0979,-1.1359,-1.1576,0.0,0.0,0.0,0.0,-1.1638,-1.1813,-1.1817,-1.1817,-1.1817,-1.1817,-1.1817,-1.1817,-1.1817,-1.1831,-1.185,-1.1827,-1.1831,-1.185,-1.1827,-1.1817,-1.1855,-1.2252,-1.2417,-1.2441,-1.2441,-1.2441,-1.2441,-1.2441,0.0,0.0,-1.2441,-1.2441,-1.2441,-1.2441,-1.2441,-1.2479,-1.2677,-1.246,-1.2209,-1.2469,-1.2336,-1.2005,-1.1894,-1.1947,-1.2194,-1.2954,-1.387,-1.4827,-1.5852,-1.6718,-1.7478,-1.8342,-1.8056,-1.7568,-1.7102,-1.8184,-1.8807,-1.8192,-1.8423,-1.896,-1.972,0.0,0.0,-2.0522,-1.9802,-1.9778,-2.1014,-2.0959,-2.1413,-2.2754,-2.3672,-2.446,-2.511,-2.5944,-2.6894,-2.7936,-2.8743,-2.9222,-2.9293,-2.7332,-2.7556,0.0,0.0,0.0,0.0,0.0,0.0,0.0,0.0,0.0,0.0,0.0,0.0,0.0,0.0,0.0,-0.8986,-0.9092,-0.9225,-0.9827,-1.0161,-1.0305,-1.0049,-1.091,-1.1447,-1.1339,-1.155,-1.1728,-1.1791,-1.1714,-1.1794,-1.2006,-1.1813,0.0,-1.1813,-1.1779,-1.1779,-1.1817,-1.1817,-1.1817,-1.1817,0.0,0.0,-1.1817,-1.1817,-1.1912,-1.2068,-1.1893,-1.1917,-1.2063,-1.1888,-1.1817,-1.1841,-1.2096,-1.2299,-1.2441,-1.2441,-1.2441,-1.2441,-1.2441,-1.2441,-1.2441,-1.2441,-1.2441,-1.2441,-1.2441,-1.2441,0.0,-1.2488,-1.2446,-1.2562,-1.327,-1.3483,-1.3559,-1.4338,-1.4482,-1.4767,-1.5825,-1.6209,-1.6538,-1.7284,-1.8183,-1.8856,-1.8751,-1.8326,-1.8149,-1.8856,-1.9906,-2.0425,-2.011,-2.057,-2.0703,-2.0274,-2.0188,-2.0362,-2.0747,-2.0964,-2.1617,-2.2843,-2.3621,-2.4625,-2.5766,-2.6056,-2.6742,-2.81,-2.7902,-2.851,-2.988,-3.0159,-3.0719,-3.1612,-3.0825,-3.116,0.0,0.0,0.0,0.0,0.0,0.0,0.0,0.0,0.0,0.0,0.0,-0.5812,0.0,0.0,-0.7573,-0.8549,-0.9284,-0.9883,-1.0196,-1.0845,-1.0954,-0.9824,-1.101,-1.1768,-1.1335,-1.1659,-1.2025,-1.2134,-1.194,-1.1865,-1.1973,-1.1874,-1.1869,-1.1978,-1.1978,-1.2025,-1.2129,-1.2129,-1.2129,-1.2129,-1.2129,-1.2129,-1.2129,-1.2129,-1.2186,-1.2276,-1.2068,-1.2039,-1.2115,-1.1798,-1.1666,-1.1676,-1.1784,-1.195,-1.2139,-1.2247,-1.229,-1.2304,-1.2403,-1.2441,-1.2441,-1.2441,-1.2441,-1.2545,-1.3088,-1.3305,-1.3434,-1.4086,-1.4245,-1.4256,-1.49,-1.4915,-1.4966,-1.5221,-1.5366,-1.5636,-1.6613,-1.6787,-1.7189,-1.8341,-1.8941,-1.9483,-2.0127,-2.0051,-2.0042,-2.0503,-2.123,-2.1695,-2.1695,-2.2224,-2.2524,-2.2121,-2.2766,-2.3293,-2.341,-2.4084,-2.4607,-2.5004,-2.5815,-2.6746,-2.7679,-2.8088,-2.8954,-3.0447,-3.0303,-3.0533,-3.13,-3.1695,-3.2166,-3.275,-3.3197,-3.3921,0.0,0.0,0.0,0.0,0.0,0.0,0.0,0.0,-0.5515,-0.5689,-0.5776,-0.5912,-0.6496,-0.707,-0.7579,-0.8001,-0.9308,-1.0203,-1.0157,-1.1159,-1.123,-0.9519,-1.1022,-1.187,-1.1215,-1.1763,-1.2195,-1.2195,-1.2035,-1.194,-1.194,-1.194,-1.202,-1.2191,-1.2195,-1.2276,-1.2436,-1.2441,-1.2441,-1.2441,-1.2441,-1.2441,-1.2441,-1.2441,-1.2441,-1.2427,-1.2228,-1.2115,-1.2049,-1.1713,-1.1576,-1.1576,-1.1576,-1.1676,-1.1846,-1.2058,-1.2162,-1.2224,-1.2596,-1.2762,-1.2762,-1.2975,-1.3083,-1.33,-1.4272,-1.4487,-1.4741,-1.5808,-1.603,-1.6022,-1.6349,-1.6353,-1.6231,-1.6522,-1.6568,-1.6819,-1.7694,-1.7946,-1.8229,-1.9495,-1.989,-2.0305,-2.15,-2.1961,-2.2227,-2.1971,-2.2422,-2.2872,-2.3047,-2.3714,-2.4221,-2.4457,-2.5492,-2.6255,-2.64,-2.714,-2.7529,-2.7381,-2.7889,-2.8613,-2.9539,-3.0215,-3.1106,-3.2345,-3.2516,-3.2574,-3.2574,-3.3297,-3.363,-3.3685,-3.5094,-3.5993,-0.4599,-0.4678,-0.4961,-0.5322,-0.5474,-0.5608,0.0,0.0,-0.6198,-0.6448,-0.6586,-0.6883,-0.7669,-0.7878,-0.815,-0.8783,-0.9102,-0.9406,-0.9391,-1.0286,-1.0679,-0.9836,-1.1293,-1.2295,-1.2186,-1.2295,-1.2408,-1.2408,-1.2384,-1.237,-1.237,-1.237,-1.238,-1.2403,-1.2408,-1.2417,-1.2441,-1.2441,-1.2441,-1.2441,-1.2441,-1.2441,-1.2441,-1.2441,-1.2441,-1.2427,-1.2228,-1.203,-1.185,-1.1803,-1.1784,-1.1784,-1.1784,-1.1798,-1.1846,-1.2058,-1.2252,-1.2516,-1.3619,-1.3954,-1.4164,-1.5221,-1.5541,-1.5541,-1.5648,-1.5755,-1.5761,-1.5897,-1.5885,-1.6187,-1.7192,-1.7391,-1.7877,-1.9796,-2.0302,-2.0594,-2.1661,-2.1854,-2.1753,-2.1256,-2.1872,-2.2306,-2.1823,-2.3096,-2.3887,-2.3047,-2.3724,-2.4145,-2.3963,-2.4734,-2.5641,-2.6603,-2.6849,-2.73,-2.7948,-2.8422,-2.9017,-2.968,-3.0065,-3.1033,-3.2815,-3.2982,-3.3312,-3.4027,-3.4041,-3.4041,-3.4041,-3.4795,-3.5124,-3.519,-3.6523,-3.6874,-0.5301,-0.5279,-0.532,0.0,-0.5719,-0.582,-0.607,-0.6143,-0.6249,-0.6556,-0.6717,-0.6907,-0.7223,-0.7328,-0.7416,0.0,-0.8299,-0.8707,-0.8711,-0.9593,-1.0268,-1.0562,-1.1232,-1.1673,-1.1673,-1.211,-1.2441,-1.2441,-1.1891,-1.1891,-1.2332,-1.1891,-1.1891,-1.2327,-1.2441,-1.2441,-1.2441,-1.2441,-1.2441,-1.2441,-1.2441,-1.2441,-1.2441,-1.2441,-1.2441,-1.2436,-1.2351,-1.2195,-1.2006,-1.2006,-1.1931,-1.1817,-1.1817,-1.1893,-1.2016,-1.2106,-1.2607,-1.3331,-1.4008,-1.4595,-1.5227,-1.5755,-1.5861,-1.6074,-1.6723,-1.6935,-1.7041,-1.7674,-1.7884,-1.8094,-1.9228,-1.9546,-1.9952,-2.1481,-2.1785,-2.1988,-2.2391,-2.2484,-2.246,-2.2283,-2.251,-2.2908,-2.3242,-2.3973,-2.4584,-2.4648,-2.4988,-2.5242,-2.5062,-2.6213,-2.7659,-2.9319,-2.9487,-2.9783,-3.0494,-3.1116,-3.1422,-3.1364,-3.2202,-3.2911,-3.3369,-3.3354,-3.3485,-3.368,-3.3318,-3.3485,-3.4262,-3.4658,-3.5347,-3.6461,-3.7115,-3.7605,-0.5529,0.0,0.0,-0.5836,-0.5977,-0.6051,-0.6051,-0.6143,-0.6306,-0.6564,-0.6717,-0.6801,-0.6801,-0.6831,-0.6842,-0.6806,-0.7645,-0.8376,-0.8592,-0.9226,-1.0186,-1.1337,-1.1236,-1.1236,-1.1455,-1.2005,-1.2441,-1.2441,-1.1782,-1.1782,-1.2332,-1.1782,-1.1782,-1.2327,-1.2441,-1.2441,-1.2441,-1.2441,-1.2441,-1.2441,-1.2441,-1.2441,-1.2441,-1.2441,-1.2441,-1.2441,-1.2441,-1.2356,-1.2224,-1.2224,-1.2129,-1.1987,-1.2302,-1.2504,-1.2753,-1.3067,-1.3482,-1.4028,-1.4849,-1.566,-1.6393,-1.6711,-1.6823,-1.7035,-1.7793,-1.8108,-1.8318,-1.9465,-1.9783,-1.9983,-2.1089,-2.1387,-2.1582,-2.2693,-2.2985,-2.2985,-2.3294,-2.3313,-2.3358,-2.373,-2.3615,-2.3803,-2.4864,-2.5168,-2.5495,-2.6307,-2.6637,-2.6719,-2.6472,-2.7912,-2.9499,-3.1071,-3.1381,-3.1763,-3.2431,-3.2889,-3.3169,-3.3192,-3.4051,-3.4508,-3.4233,-3.4218,-3.408,-3.3888,-3.3591,-3.3769,-3.4501,-3.4942,-3.5869,-3.7192,-3.771,-3.8407,0.0,0.0,-0.5458,-0.5814,-0.6165,-0.642,-0.642,-0.6516,-0.6605,-0.6616,-0.6717,-0.6801,-0.6801,-0.6899,-0.694,-0.6823,-0.7538,-0.8481,-0.9455,-0.9567,-1.0274,-1.2087,-1.1564,-1.1455,0.0,-1.2327,-1.2441,-1.2441,-1.2332,-1.2332,-1.2441,-1.2332,-1.2332,-1.2441,-1.2441,-1.2441,-1.2441,-1.2441,-1.2441,-1.2441,-1.2441,-1.2441,-1.2441,-1.2441,-1.2441,-1.2441,-1.2441,-1.2436,-1.2427,-1.2427,-1.2427,-1.2526,-1.3717,-1.4153,-1.4261,-1.5429,-1.5108,-1.4476,-1.6723,-1.7477,-1.7687,-1.8848,-1.9168,-1.9168,-1.9272,-1.9279,-1.948,-2.0585,-2.0885,-2.1081,-2.2181,-2.2484,-2.2685,-2.3791,-2.4088,-2.4295,-2.543,-2.5295,-2.5352,-2.6321,-2.5692,-2.5336,-2.6346,-2.6903,-2.7325,-2.7936,-2.8755,-2.9003,-2.8176,-2.9807,-3.1145,-3.122,-3.1776,-3.2431,-3.3087,-3.3213,-3.3822,-3.524,-3.532,-3.5657,-3.6399,-3.6399,-3.6091,-3.5431,-3.5935,-3.588,-3.5291,-3.6517,-3.7148,-3.7235,-3.8681,-3.9385,0.0,0.0,-0.5912,-0.6187,-0.6347,-0.6437,-0.6437,-0.6529,-0.6619,-0.6619,-0.6651,-0.6657,-0.6575,-0.666,-0.6728,-0.6687,-0.7063,-0.7548,-0.7959,-0.7971,-0.8426,-0.9688,-0.9585,0.0,0.0,0.0,0.0,-1.2441,-1.1337,-1.1227,-1.2327,-1.1337,-1.1227,-1.2332,-1.2441,-1.2441,-1.2441,-1.2441,-1.2441,-1.2441,-1.2441,-1.2441,-1.2441,-1.2441,-1.2441,-1.2441,-1.2441,-1.2871,-1.363,-1.363,-1.4051,-1.4793,-1.512,-1.5334,-1.5441,-1.6617,-1.6829,-1.6617,-1.7371,-1.8115,-1.8743,-1.9168,-1.9783,-2.038,-2.038,-2.0885,-2.1489,-2.1887,-2.1988,-2.219,-2.3285,-2.3592,-2.3791,-2.4913,-2.5674,-2.6224,-2.6638,-2.7076,-2.7427,-2.7093,-2.6797,-2.6802,-2.7483,-2.7731,-2.8187,-2.9369,-2.9781,-3.0012,-3.0126,-3.0758,-3.1502,-3.2434,-3.2747,-3.3157,-3.3905,-3.438,-3.4861,-3.54,-3.5879,-3.6211,-3.6492,-3.6456,-3.6334,-3.6099,-3.6238,-3.6589,-3.7208,-3.7221,-3.8101,-3.9597,-3.975,-4.0199,0.0,-0.5844,-0.6086,-0.6366,-0.6437,-0.6437,-0.6437,-0.6497,-0.6564,-0.6611,-0.6518,-0.6418,-0.6382,-0.6442,-0.648,-0.6434,-0.6668,-0.7,-0.7442,-0.7245,-0.7494,-0.8799,-0.8706,-0.8813,0.0,0.0,0.0,-1.1446,-1.0457,-1.046,-1.1891,-1.0899,-1.0899,-1.2327,-1.2441,-1.2441,-1.2441,-1.2441,-1.2441,-1.2441,-1.2441,-1.2441,-1.2441,-1.2441,-1.2654,-1.3088,-1.3088,-1.3732,-1.4804,-1.4804,-1.5227,-1.5968,-1.6399,-1.6505,-1.6717,-1.8192,-1.8819,-1.8819,-1.8819,-1.9242,-1.9983,-2.0285,-2.0885,-2.1481,-2.1481,-2.1988,-2.2584,-2.2985,-2.3367,-2.3854,-2.4954,-2.5431,-2.5915,-2.6638,-2.7295,-2.7746,-2.7746,-2.8343,-2.8756,-2.8408,-2.8252,-2.8463,-2.9052,-2.9167,-2.9654,-3.0807,-3.1254,-3.1415,-3.122,-3.1649,-3.2218,-3.3073,-3.3422,-3.3905,-3.4647,-3.5124,-3.5529,-3.58,-3.6445,-3.6846,-3.6846,-3.6975,-3.6956,-3.6701,-3.6896,-3.7242,-3.7799,-3.805,-3.8958,-4.0435,-4.0607,-4.1098,-0.5784,-0.592,-0.601,-0.6352,-0.6437,-0.6437,-0.6437,-0.6439,-0.6472,-0.6573,-0.6323,-0.6116,0.0,0.0,-0.623,-0.6113,-0.6407,-0.6995,-0.7947,-0.7343,-0.7541,0.0,0.0,0.0,0.0,0.0,0.0,-0.9688,0.0,-1.0131,-1.1017,-1.1126,-1.1455,-1.2332,-1.2441,-1.2441,-1.2441,-1.2441,-1.2441,-1.2441,-1.2441,-1.2441,-1.2441,-1.2436,-1.3088,-1.4169,-1.4277,-1.4911,-1.5968,-1.5968,-1.6074,-1.618,-1.7358,-1.7793,-1.7996,-2.0158,-2.0987,-2.0987,-2.1089,-2.0987,-2.1191,-2.219,-2.2584,-2.2584,-2.2685,-2.2685,-2.2976,-2.4079,-2.5032,-2.5972,-2.6979,-2.8028,-2.868,-2.8773,-2.8762,-2.8855,-2.8855,-2.9094,-2.9519,-3.028,-3.0165,-3.0248,-3.1021,-3.1274,-3.1636,-3.2321,-3.3059,-3.3003,-3.1576,-3.2506,-3.3283,-3.3353,-3.3959,-3.4714,-3.54,-3.5464,-3.58,-3.6538,-3.7118,-3.7401,-3.746,-3.8067,-3.8082,-3.7454,-3.7972,-3.7917,-3.7319,-3.9016,-3.9853,-3.9954,-4.1296,-4.199,-0.5958,-0.6168,-0.6323,-0.6412,-0.6437,-0.6437,-0.6437,-0.6507,-0.6505,-0.6268,-0.6149,-0.6013,0.0,0.0,0.0,-0.6227,-0.6671,0.0,-0.7385,-0.7281,0.0,-0.7808,0.0,-0.7598,-0.7817,-0.7814,0.0,0.0,-0.9027,-1.0131,-1.1017,-1.1126,-1.1455,-1.2332,-1.2441,-1.2441,-1.2441,-1.2441,-1.2441,-1.2441,-1.2441,-1.2441,-1.2436,-1.3305,-1.3954,-1.4272,-1.512,-1.608,-1.7153,-1.7153,-1.7681,-1.852,-1.965,-2.0063,-2.0261,-2.1582,-2.2089,-2.219,-2.2994,-2.2785,-2.219,-2.2383,-2.3085,-2.3881,-2.4622,-2.5412,-2.6204,-2.7243,-2.7714,-2.7996,-2.8204,-2.8495,-2.8855,-2.9293,-3.0022,-3.0664,-3.1163,-3.1956,-3.2347,-3.1687,-3.1604,-3.171,-3.1971,-3.3002,-3.3822,-3.3959,-3.4298,-3.4298,-3.3822,-3.4148,-3.4633,-3.5175,-3.537,-3.5785,-3.6538,-3.66,-3.6815,-3.7429,-3.7605,-3.7879,-3.8374,-3.8941,-3.9196,-3.8997,-3.9863,-4.0259,-4.007,-4.0857,-4.1467,-4.18,-4.2293,-4.2711,-0.6176,-0.6336,-0.6437,-0.6437,-0.6437,-0.641,-0.6306,-0.6336,-0.6312,-0.6056,-0.588,0.0,0.0,0.0,0.0,0.0,0.0,0.0,-0.7528,-0.7214,-0.704,0.0,-0.7154,0.0,-0.7154,-0.7154,-0.7154,0.0,-0.8146,-0.9247,-1.046,-1.0574,-1.1122,-1.2332,-1.2441,-1.2441,-1.2441,-1.2441,-1.2441,-1.2441,-1.2441,-1.2654,-1.3197,-1.3846,-1.4702,-1.5767,0.0,-1.7252,-1.8429,-1.8826,-1.945,-2.0086,-2.1183,-2.1582,-2.1684,-2.2793,-2.3466,-2.4042,-2.5051,-2.5324,-2.5101,-2.473,-2.5227,-2.6184,-2.6747,-2.7337,-2.8028,-2.8588,-2.9223,-2.9772,-2.9772,-3.0305,-3.1009,-3.1364,-3.1916,-3.2364,-3.2784,-3.3817,-3.447,-3.3964,-3.3716,-3.3551,-3.3353,-3.4027,-3.4728,-3.5124,-3.529,-3.5582,-3.6104,-3.5612,-3.5434,-3.5849,-3.618,-3.6538,-3.6938,-3.721,-3.746,-3.7764,-3.8318,-3.8761,-3.9086,-3.9645,-4.007,-4.0268,-4.0797,-4.1213,-4.142,-4.1895,-4.2284,-4.2598,-4.3014,-4.3373,-0.6382,-0.6437,-0.6437,-0.6437,-0.6437,-0.6374,-0.6138,-0.61,-0.6059,-0.5871,0.0,-0.5412,-0.5469,-0.5673,-0.6088,-0.6761,0.0,-0.6858,-0.7871,-0.7372,-0.6926,-0.713,-0.7154,-0.7154,-0.7154,-0.7154,-0.7265,-0.7376,-0.7376,-0.8036,-0.9688,-1.0017,-1.0785,-1.2327,-1.2441,-1.2441,-1.2441,-1.2441,-1.2441,-1.2441,-1.2545,-1.3197,-1.4169,-1.4487,-1.5773,-1.7582,0.0,0.0,-1.9576,-2.0483,-2.0987,-2.1183,-2.2282,-2.2785,-2.3076,-2.4079,-2.513,-2.6164,-2.7074,-2.8111,-2.8855,-2.7746,-2.8028,-2.8855,-2.8947,-2.9131,-2.9212,-2.9304,-3.0395,-3.1488,-3.1488,-3.2649,-3.3713,-3.3797,-3.3869,-3.4037,-3.4121,-3.5157,-3.6122,-3.6317,-3.5819,-3.5302,-3.4949,-3.4971,-3.529,-3.6087,-3.6353,-3.6948,-3.8084,-3.7055,-3.6275,-3.6322,-3.6937,-3.7285,-3.7285,-3.7738,-3.8035,-3.8092,-3.9086,-3.9697,-3.9851,-4.0336,-4.0819,-4.1258,-4.1303,-4.1552,-4.1937,-4.2404,-4.2714,-4.2884,-4.3542,-4.3905,-0.6426,-0.6437,-0.6437,-0.6437,-0.6437,-0.6374,-0.6138,-0.6165,0.0,0.0,-0.5494,-0.5436,-0.5159,-0.5303,-0.5673,-0.6146,0.0,0.0,0.0,0.0,-0.7108,0.0,0.0,0.0,0.0,0.0,0.0,0.0,0.0,-0.8702,-0.9798,-1.1118,-1.211,-1.2436,-1.2441,-1.2441,-1.2441,-1.2441,-1.2441,-1.2441,-1.3413,-1.3954,-1.4277,-1.6193,-1.7259,-1.7687,-1.8639,0.0,-2.0688,-2.0783,-2.1387,-2.2291,-2.3384,-2.4356,-2.5198,-2.63,-2.7263,-2.8193,-2.8402,-2.9487,-3.0496,-2.8947,-2.8925,-2.9647,-3.0485,-3.1175,-3.178,-3.2624,-3.2993,-3.3275,-3.3275,-3.3445,-3.3882,-3.4384,-3.5006,-3.5695,-3.6215,-3.664,-3.695,-3.7027,-3.6546,-3.6276,-3.6304,-3.6863,-3.7338,-3.7679,-3.8278,-3.8723,-3.8974,-3.8334,-3.8092,-3.8557,-3.8739,-3.8827,-3.8827,-3.892,-3.9172,-3.9577,-3.9783,-4.0285,-4.1139,-4.1248,-4.1561,-4.1973,-4.24,-4.2616,-4.2711,-4.3124,-4.3495,-4.3777,-4.3923,-4.4091,-0.6437,-0.6437,-0.6437,-0.6437,-0.6437,-0.6342,-0.5983,0.0,0.0,0.0,-0.5233,-0.5222,-0.505,-0.5262,0.0,0.0,0.0,0.0,0.0,0.0,0.0,0.0,0.0,0.0,0.0,0.0,0.0,0.0,0.0,-1.0025,-1.046,-1.1669,-1.2441,-1.2441,-1.2441,-1.2441,-1.2441,-1.2441,-1.2762,-1.3305,-1.3954,-1.4809,-1.5986,-1.7047,-1.7898,-1.8534,-1.9665,0.0,-2.0987,-2.2089,-2.3167,-2.423,-2.5334,-2.629,-2.7327,-2.7819,-2.8855,-3.0033,-3.0033,-3.1122,-3.2376,-3.1553,-3.1553,-3.1904,-3.2364,-3.2722,-3.3066,-3.353,-3.3966,-3.4288,-3.4746,-3.5074,-3.5561,-3.6332,-3.6788,-3.7153,-3.7546,-3.7667,-3.7812,-3.7901,-3.7735,-3.7639,-3.7799,-3.8113,-3.843,-3.8645,-3.8974,-3.9295,-3.9594,-3.9368,-3.9209,-3.9206,-3.9206,-3.9206,-3.9206,-3.9454,-3.9697,-4.0003,-4.048,-4.1001,-4.1472,-4.1735,-4.2074,-4.2555,-4.2806,-4.2995,-4.3232,-4.3563,-4.3846,-4.4005,-4.4279,-4.4501,-0.6423,-0.6437,-0.6437,-0.6437,-0.6437,-0.6312,-0.5841,-0.5733,0.0,0.0,-0.5018,-0.5018,-0.5018,0.0,-0.5566,0.0,0.0,0.0,0.0,0.0,0.0,0.0,0.0,0.0,0.0,0.0,0.0,0.0,0.0,0.0,-1.1345,-1.2005,-1.2441,-1.2441,-1.2441,-1.2441,-1.2441,-1.2654,-1.3305,-1.4169,-1.4702,-1.5873,-1.7582,-1.7898,-1.8527,-1.968,-2.0483,0.0,0.0,-2.3674,-2.5032,-2.6078,-2.7074,-2.8204,-2.9223,-2.9223,-3.0305,-3.1753,-3.1753,-3.2722,-3.3882,-3.3882,-3.3882,-3.3856,-3.374,-3.4017,-3.4332,-3.4201,-3.4831,-3.5561,-3.6174,-3.6738,-3.7372,-3.8175,-3.8341,-3.8455,-3.8756,-3.8804,-3.8831,-3.9036,-3.8958,-3.8904,-3.9073,-3.9115,-3.9139,-3.9348,-3.9454,-3.9714,-4.012,-4.017,-4.002,-3.961,-3.9558,-3.9558,-3.9558,-3.9969,-4.0203,-4.0334,-4.1047,-4.1604,-4.1778,-4.2157,-4.2577,-4.3032,-4.3032,-4.3214,-4.3615,-4.391,-4.4079,-4.4181,-4.4599,-4.49,-0.638,-0.6437,-0.6437,-0.6437,-0.6437,-0.6312,-0.5841,0.0,0.0,-0.5116,-0.5018,-0.5018,-0.5018,0.0,0.0,0.0,0.0,-0.5733,0.0,0.0,0.0,0.0,0.0,0.0,0.0,0.0,0.0,0.0,0.0,0.0,-1.2332,-1.2332,-1.2441,-1.2441,-1.2441,-1.2441,-1.2441,-1.3521,-1.4062,-1.4164,-1.6299,-1.7371,-1.7687,-1.8639,-1.9776,-2.0783,-2.0885,0.0,0.0,-2.5013,-2.6088,-2.7179,-2.8215,-2.9579,-3.0944,-3.0944,-3.2016,-3.3445,-3.3445,-3.3953,-3.4634,-3.4634,-3.4634,-3.4541,-3.3933,-3.5075,-3.6484,-3.5899,-3.6736,-3.7785,-3.7861,-3.7951,-3.8175,-3.9015,-3.9258,-3.9488,-4.0242,-4.043,-4.0459,-4.0522,-4.0025,-3.9625,-3.9785,-3.9784,-3.9783,-3.9902,-4.0385,-4.0776,-4.0823,-4.0823,-4.0823,-4.0776,-4.0728,-4.0728,-4.0728,-4.0776,-4.0977,-4.1338,-4.1428,-4.1864,-4.2729,-4.2806,-4.3032,-4.3444,-4.3513,-4.3664,-4.3942,-4.4048,-4.4308,-4.4726,-4.4776,-4.5004,-0.6372,-0.6437,-0.6437,-0.6437,-0.6385,-0.623,-0.591,0.0,-0.5675,-0.5255,-0.5168,-0.5168,-0.5015,-0.4977,0.0,0.0,0.0,0.0,-0.582,0.0,0.0,0.0,0.0,0.0,0.0,0.0,0.0,0.0,0.0,0.0,-1.2441,-1.2441,-1.2441,-1.2441,-1.2441,-1.2762,-1.3521,-1.3954,-1.4917,-1.6299,-1.7153,-1.8304,-1.965,-2.0071,-2.0885,-2.1887,-2.2593,0.0,0.0,-2.6098,-2.7798,-2.9659,-3.0033,-3.1211,-3.2735,-3.2735,-3.3348,-3.4371,-3.4828,-3.548,-3.6136,-3.6568,-3.6459,-3.5969,-3.5311,-3.6263,-3.7372,-3.637,-3.7037,-3.8001,-3.7678,-3.8286,-3.9072,-3.9369,-3.9834,-4.0171,-4.0059,-4.0089,-4.0106,-4.0121,-3.9914,-3.9943,-4.0443,-4.0474,-4.0483,-4.0549,-4.0776,-4.1012,-4.1237,-4.1328,-4.149,-4.1717,-4.1428,-4.1237,-4.1237,-4.1561,-4.1828,-4.1997,-4.2266,-4.2621,-4.3014,-4.3286,-4.3497,-4.3686,-4.3719,-4.3846,-4.4121,-4.4308,-4.4572,-4.4919,-4.5074,-4.5283,-0.6349,-0.6382,-0.6437,-0.6437,-0.6325,-0.6225,0.0,0.0,-0.582,-0.5471,-0.5398,-0.5323,-0.5171,-0.5093,-0.5063,-0.4974,-0.5099,-0.5301,-0.5409,-0.5888,0.0,0.0,0.0,0.0,0.0,0.0,0.0,0.0,0.0,0.0,0.0,-1.2762,-1.2762,-1.2441,-1.2762,-1.3305,-1.4169,-1.4917,-1.598,-1.7582,-1.8304,-1.9443,-2.0885,-2.1183,-2.2072,-2.3457,0.0,0.0,0.0,-2.7891,-2.9476,-3.1223,-3.1753,-3.2809,-3.405,-3.4275,-3.4772,-3.5507,-3.6253,-3.688,-3.7343,-3.7659,-3.7667,-3.7375,-3.6606,-3.7085,-3.7609,-3.647,-3.7334,-3.8452,-3.8165,-3.9014,-3.9902,-3.9902,-4.0323,-4.0605,-4.015,-4.0034,-4.0074,-4.0104,-4.012,-4.0269,-4.0823,-4.1012,-4.1088,-4.1088,-4.1209,-4.1401,-4.1717,-4.1803,-4.1997,-4.2306,-4.2103,-4.1913,-4.1803,-4.2162,-4.2426,-4.2544,-4.2886,-4.3177,-4.3301,-4.3615,-4.3837,-4.3929,-4.3929,-4.4091,-4.4457,-4.465,-4.4891,-4.5118,-4.5322,-4.5491,-0.6241,-0.636,-0.6437,-0.6437,-0.636,-0.631,0.0,0.0,-0.5961,-0.5614,-0.5559,-0.5559,-0.5559,-0.5401,-0.5321,-0.5318,-0.5093,-0.5146,-0.5414,-0.5659,0.0,0.0,0.0,0.0,0.0,0.0,0.0,0.0,0.0,0.0,0.0,-1.3521,-1.363,-1.2441,-1.3521,-1.4169,-1.4169,-1.6411,-1.7582,-1.7582,-1.9857,-2.0885,-2.0987,-2.1988,-2.3647,0.0,0.0,0.0,0.0,-3.0485,-3.1134,-3.1388,-3.3006,-3.405,-3.4786,-3.5548,-3.6267,-3.7,-3.78,-3.8101,-3.7999,-3.7287,-3.775,-3.8439,-3.7643,-3.736,-3.7157,-3.6567,-3.7957,-3.9642,-3.9843,-4.028,-4.0704,-4.0704,-4.0746,-4.0771,-4.0771,-4.0864,-4.0888,-4.0888,-4.0888,-4.0871,-4.0888,-4.1237,-4.1472,-4.1472,-4.1906,-4.2221,-4.2266,-4.2306,-4.2346,-4.2483,-4.2867,-4.2923,-4.2523,-4.2483,-4.2678,-4.3087,-4.3087,-4.3301,-4.3753,-4.3804,-4.3929,-4.4192,-4.4279,-4.4519,-4.5007,-4.5052,-4.5201,-4.54,-4.54,-4.5574,-0.5937,-0.6154,-0.6169,-0.608,-0.6019,-0.5957,-0.6043,0.0,-0.589,-0.5805,-0.5786,-0.5789,-0.5637,-0.5401,-0.5349,-0.5439,-0.5294,-0.5203,0.0,0.0,0.0,0.0,0.0,0.0,0.0,0.0,0.0,0.0,0.0,0.0,0.0,-1.3954,-1.4062,-1.3624,-1.4798,-1.5761,-1.6518,-1.7969,-1.9117,-1.9857,-2.1277,-2.2391,-2.3085,-2.4141,0.0,0.0,0.0,0.0,0.0,-3.0944,-3.2178,-3.3661,-3.4204,-3.4799,-3.5453,-3.6294,-3.683,-3.7281,-3.8694,-3.8904,-3.8627,-3.8933,-3.8917,-3.8701,-3.8399,-3.8716,-3.9125,-3.9277,-3.8886,-3.859,-3.9525,-3.9907,-4.0087,-4.0087,-4.0459,-4.0842,-4.0842,-4.0882,-4.0965,-4.1237,-4.1328,-4.1401,-4.1753,-4.1906,-4.1973,-4.2038,-4.2144,-4.2386,-4.2811,-4.2886,-4.3032,-4.3424,-4.3594,-4.3508,-4.2978,-4.3266,-4.3511,-4.3664,-4.3679,-4.3777,-4.3929,-4.4121,-4.425,-4.4346,-4.4546,-4.48,-4.5137,-4.5159,-4.5343,-4.5677,-4.5677,-4.5802,-0.5765,-0.5933,-0.5969,-0.5886,-0.581,0.0,0.0,-0.5964,-0.5937,-0.5937,-0.5983,-0.6022,-0.587,-0.5712,-0.5503,-0.551,0.0,0.0,0.0,0.0,0.0,0.0,0.0,0.0,0.0,0.0,0.0,0.0,0.0,0.0,0.0,-1.5232,-1.5446,-1.5446,-1.6187,-1.7028,-1.8185,-1.9317,-2.0451,-2.1489,-2.2584,-2.3674,-2.4749,-2.5702,0.0,0.0,0.0,0.0,0.0,-3.2277,-3.3395,-3.4716,-3.4964,-3.5521,-3.6387,-3.7141,-3.758,-3.8018,-3.9269,-3.9344,-3.8934,-3.9421,-3.9406,-3.9194,-3.925,-3.9349,-3.9548,-3.992,-3.9322,-3.8733,-3.9561,-4.0016,-4.022,-4.022,-4.0676,-4.1117,-4.1117,-4.1255,-4.1445,-4.176,-4.1785,-4.1913,-4.2262,-4.2422,-4.2562,-4.2582,-4.2754,-4.2996,-4.3371,-4.344,-4.3594,-4.391,-4.3974,-4.3905,-4.3619,-4.3791,-4.3929,-4.3929,-4.4079,-4.4151,-4.4151,-4.4411,-4.465,-4.4751,-4.49,-4.512,-4.5381,-4.5419,-4.5549,-4.58,-4.588,-4.5972,0.0,-0.5842,-0.5876,-0.5867,0.0,0.0,0.0,0.0,0.0,-0.6027,-0.6152,-0.6338,-0.6338,-0.6099,-0.5867,0.0,0.0,0.0,0.0,0.0,0.0,0.0,0.0,0.0,0.0,0.0,0.0,0.0,0.0,0.0,0.0,-1.7009,-1.7647,-1.7725,-1.7705,-1.8227,-1.9295,-2.0554,-2.1591,-2.2593,-2.3782,-2.4846,-2.5779,-2.6873,0.0,0.0,0.0,0.0,0.0,-3.4204,-3.4799,-3.4964,-3.5615,-3.6387,-3.7343,-3.8132,-3.8597,-3.8911,-3.9683,-3.9575,-3.8999,-3.8902,-3.9286,-3.9834,-4.0003,-3.9456,-3.8854,-3.9016,-3.9404,-3.9834,-4.0003,-4.0483,-4.0918,-4.0918,-4.1237,-4.1561,-4.1561,-4.1906,-4.2239,-4.2306,-4.2346,-4.2426,-4.2562,-4.2904,-4.3159,-4.3159,-4.3529,-4.3818,-4.3915,-4.3929,-4.3942,-4.4017,-4.4048,-4.4151,-4.443,-4.4162,-4.4036,-4.4048,-4.4308,-4.4438,-4.4438,-4.4751,-4.5052,-4.5302,-4.5323,-4.5454,-4.57,-4.578,-4.5803,-4.5819,-4.6014,-4.6114,-0.5423,0.0,-0.5676,-0.5563,-0.5554,-0.553,0.0,0.0,0.0,0.0,0.0,-0.6338,-0.6338,-0.6099,-0.5899,0.0,0.0,0.0,0.0,0.0,0.0,0.0,0.0,0.0,0.0,0.0,0.0,0.0,0.0,0.0,0.0,-1.7028,-1.7844,-1.9208,-1.895,-1.9277,-2.0459,-2.2374,-2.3484,-2.3791,-2.5635,-2.6597,-2.6884,-2.8669,0.0,0.0,0.0,0.0,-3.4733,-3.5074,-3.5655,-3.6494,-3.7078,-3.7448,-3.7757,-3.8421,-3.8841,-3.9069,-3.9368,-3.9375,-3.935,-3.9636,-3.9815,-4.0053,-4.0549,-4.022,-3.9783,-4.0269,-4.022,-4.0053,-4.0549,-4.1007,-4.1356,-4.1356,-4.1692,-4.2032,-4.2032,-4.218,-4.2404,-4.2772,-4.2867,-4.3032,-4.3426,-4.3548,-4.3649,-4.3697,-4.38,-4.3897,-4.3974,-4.4151,-4.4289,-4.4289,-4.4511,-4.4624,-4.4701,-4.4438,-4.4402,-4.4599,-4.4726,-4.4776,-4.4776,-4.5058,-4.5246,-4.5304,-4.5509,-4.5648,-4.57,-4.578,-4.5843,-4.5958,-4.6046,-4.6154,-0.5453,-0.542,-0.5464,-0.5449,-0.5428,-0.5449,-0.5467,0.0,0.0,0.0,0.0,-0.7155,-0.6934,-0.7223,0.0,0.0,0.0,0.0,0.0,0.0,0.0,0.0,0.0,0.0,0.0,0.0,0.0,0.0,0.0,0.0,0.0,-1.8252,-1.8833,-1.9429,-2.0173,-2.0821,-2.1527,-2.2867,-2.401,-2.4964,-2.651,-2.7652,-2.8588,-3.0056,-3.1223,0.0,0.0,0.0,-3.5987,-3.6318,-3.6958,-3.7843,-3.8115,-3.8297,-3.8424,-3.8771,-3.8898,-3.8867,-3.9217,-3.9493,-3.9702,-3.9918,-4.022,-4.0597,-4.1117,-4.1065,-4.0908,-4.11,-4.0943,-4.0814,-4.1356,-4.1666,-4.1821,-4.1888,-4.2221,-4.2598,-4.2619,-4.281,-4.3087,-4.3373,-4.3523,-4.3735,-4.403,-4.4181,-4.4279,-4.4308,-4.4308,-4.4336,-4.4346,-4.4493,-4.4572,-4.4572,-4.4751,-4.4915,-4.503,-4.49,-4.4811,-4.4849,-4.5011,-4.508,-4.508,-4.5361,-4.5524,-4.5522,-4.5677,-4.5742,-4.5742,-4.5862,-4.597,-4.6047,-4.6153,-4.6219,-0.5814,-0.569,-0.5719,-0.5564,-0.5624,-0.569,-0.569,0.0,0.0,0.0,0.0,0.0,0.0,0.0,0.0,0.0,0.0,0.0,0.0,0.0,0.0,0.0,0.0,0.0,0.0,0.0,0.0,0.0,0.0,0.0,0.0,-1.9713,-1.9997,-1.9625,-2.116,-2.2205,-2.2466,-2.3046,-2.4171,-2.6024,-2.721,-2.8751,-3.0508,-3.1211,-3.2339,0.0,0.0,0.0,-3.7084,-3.7663,-3.8264,-3.8898,-3.8986,-3.9098,-3.9213,-3.9174,-3.8963,-3.8718,-3.9282,-3.9686,-4.0003,-4.012,-4.0645,-4.1244,-4.164,-4.1864,-4.1948,-4.1803,-4.1717,-4.1717,-4.2157,-4.2279,-4.2342,-4.2426,-4.2829,-4.3177,-4.3265,-4.3627,-4.3961,-4.4005,-4.4221,-4.4402,-4.4438,-4.465,-4.48,-4.48,-4.48,-4.48,-4.48,-4.4849,-4.4891,-4.4891,-4.4966,-4.5099,-4.5323,-4.5381,-4.5265,-4.5055,-4.5246,-4.538,-4.5379,-4.5645,-4.5791,-4.58,-4.58,-4.5814,-4.5822,-4.6009,-4.6102,-4.6118,-4.623,-4.6303,-0.6876,-0.7125,-0.7265,-0.644,-0.6666,-0.706,-0.706,0.0,0.0,0.0,0.0,0.0,0.0,0.0,0.0,0.0,0.0,0.0,0.0,0.0,0.0,0.0,0.0,0.0,0.0,0.0,0.0,0.0,0.0,0.0,0.0,-1.9653,-2.039,-2.1876,-2.1463,-2.2016,-2.3493,-2.5006,-2.5892,-2.6272,-2.9038,-3.0843,-3.1918,-3.2857,-3.4152,-3.5561,0.0,-3.683,-3.8219,-3.8383,-3.8884,-3.9748,-4.027,-4.013,-3.957,-3.9468,-3.9386,-3.9314,-3.9768,-3.9935,-4.0103,-4.071,-4.1226,-4.1622,-4.1796,-4.2115,-4.2483,-4.2774,-4.2621,-4.2364,-4.2444,-4.2716,-4.2978,-4.2959,-4.3505,-4.4023,-4.4023,-4.4299,-4.4546,-4.4591,-4.4669,-4.4726,-4.4726,-4.4776,-4.48,-4.48,-4.48,-4.48,-4.48,-4.5052,-4.5222,-4.5222,-4.5437,-4.558,-4.5632,-4.57,-4.57,-4.5648,-4.57,-4.5712,-4.5718,-4.5766,-4.58,-4.58,-4.58,-4.5861,-4.5968,-4.6066,-4.6123,-4.6195,-4.6269,-4.6293,-0.7345,-0.7972,-0.8628,-0.8093,-0.7918,-0.7879,0.0,0.0,0.0,0.0,0.0,0.0,0.0,0.0,0.0,0.0,0.0,0.0,0.0,0.0,0.0,0.0,0.0,0.0,0.0,0.0,0.0,0.0,0.0,0.0,0.0,0.0,-2.1436,-2.1985,-2.2379,-2.3063,-2.4207,-2.6302,-2.7302,-2.724,-3.0142,-3.2141,-3.3089,-3.4389,-3.548,-3.6373,0.0,-3.8055,-3.9247,-3.9636,-4.02,-4.0774,-4.0732,-4.0219,-3.9501,-3.9033,-3.9072,-3.9473,-3.9952,-4.0351,-4.0707,-4.1041,-4.1463,-4.1906,-4.2162,-4.26,-4.3051,-4.3456,-4.3212,-4.2867,-4.3142,-4.3338,-4.3526,-4.3703,-4.4004,-4.4289,-4.4484,-4.4669,-4.4751,-4.4751,-4.4915,-4.503,-4.503,-4.5137,-4.5222,-4.5222,-4.5263,-4.5302,-4.5302,-4.5419,-4.551,-4.551,-4.5668,-4.5765,-4.5765,-4.5776,-4.5805,-4.5805,-4.5805,-4.5805,-4.58,-4.58,-4.5835,-4.5902,-4.5902,-4.5959,-4.6052,-4.6117,-4.6167,-4.6192,-4.6268,-4.6053,-0.7894,-0.8689,-0.9527,-0.9383,-0.8896,0.0,0.0,0.0,0.0,0.0,0.0,0.0,0.0,0.0,0.0,0.0,0.0,0.0,0.0,0.0,0.0,0.0,0.0,0.0,0.0,0.0,0.0,0.0,0.0,0.0,0.0,0.0,-2.2564,-2.2693,-2.3473,-2.4421,-2.5588,-2.7643,-2.8546,-2.8419,-3.1306,-3.3259,-3.4152,-3.5561,-3.6452,-3.7014,-3.8159,-3.9118,-3.9975,-4.0578,-4.1028,-4.1304,-4.0798,-4.0166,-3.9428,-3.8845,-3.9102,-3.968,-4.0235,-4.0784,-4.1192,-4.1373,-4.1735,-4.2203,-4.2659,-4.3123,-4.3594,-4.3923,-4.366,-4.3406,-4.3767,-4.3897,-4.4005,-4.426,-4.4411,-4.4572,-4.4825,-4.4943,-4.4985,-4.4985,-4.514,-4.5283,-4.5283,-4.5457,-4.5586,-4.5586,-4.5657,-4.5693,-4.5693,-4.5703,-4.5715,-4.5715,-4.5781,-4.5795,-4.5795,-4.5805,-4.5814,-4.5814,-4.5814,-4.5808,-4.5848,-4.5848,-4.5902,-4.6024,-4.6024,-4.6052,-4.6113,-4.6173,-4.6204,-4.6229,-4.628,-4.5948,-0.89,-0.9396,-0.9796,-0.9527,-0.9473,0.0,-1.1033,-1.0944,0.0,-1.1528,0.0,0.0,0.0,0.0,0.0,0.0,0.0,0.0,0.0,0.0,0.0,0.0,0.0,0.0,0.0,0.0,0.0,0.0,0.0,0.0,0.0,0.0,0.0,-2.543,-2.4708,-2.5543,-2.8231,-2.9254,-2.9774,-2.9834,-3.2764,-3.4677,-3.5453,-3.6439,-3.7246,-3.8127,-3.8797,-3.9364,-3.9975,-4.0578,-4.0763,-4.0672,-4.0625,-4.0144,-3.9512,-3.9634,-3.9935,-4.04,-4.0943,-4.1146,-4.1283,-4.1778,-4.2203,-4.2659,-4.3159,-4.3627,-4.3955,-4.4005,-4.3974,-4.3923,-4.3974,-4.4181,-4.4374,-4.4402,-4.4776,-4.514,-4.518,-4.5381,-4.5531,-4.5531,-4.5568,-4.5568,-4.5568,-4.5586,-4.5586,-4.5586,-4.5657,-4.5693,-4.5693,-4.5754,-4.5781,-4.5781,-4.5805,-4.58,-4.58,-4.58,-4.5833,-4.5893,-4.5827,-4.5861,-4.5978,-4.5988,-4.6024,-4.6078,-4.6084,-4.6132,-4.6189,-4.6208,-4.623,-4.6287,-4.6303,-4.6277,-0.9053,-0.9645,-1.0089,-0.9994,-0.9844,0.0,0.0,-1.1739,-1.1751,-1.189,-1.2403,0.0,0.0,0.0,0.0,0.0,0.0,0.0,0.0,0.0,0.0,0.0,0.0,0.0,0.0,0.0,0.0,0.0,0.0,0.0,0.0,0.0,0.0,-2.5735,-2.6132,-2.7423,-2.967,-3.0649,-3.1772,-3.2888,-3.5009,-3.6136,-3.6439,-3.7323,-3.8113,-3.8797,-3.9349,-3.992,-4.0493,-4.1055,-4.1112,-4.0785,-4.0094,-3.9573,-3.9161,-3.9609,-4.0086,-4.0594,-4.1163,-4.1363,-4.1525,-4.1966,-4.2422,-4.2829,-4.3248,-4.366,-4.4005,-4.4005,-4.4005,-4.4005,-4.4005,-4.4192,-4.4438,-4.4599,-4.4919,-4.5243,-4.5419,-4.5513,-4.5586,-4.5586,-4.5586,-4.5586,-4.5586,-4.5586,-4.5603,-4.5657,-4.5671,-4.5719,-4.5754,-4.5795,-4.5805,-4.5805,-4.58,-4.5819,-4.593,-4.5925,-4.5956,-4.6017,-4.5966,-4.5958,-4.5998,-4.6037,-4.6084,-4.6156,-4.6158,-4.5935,-4.544,-4.6005,-4.5724,-4.4692,-4.5191,-4.4841,-0.925,-0.9844,-1.0369,-1.0532,0.0,0.0,-1.1848,-1.2113,-1.218,-1.259,-1.2976,0.0,0.0,0.0,0.0,0.0,0.0,0.0,0.0,0.0,0.0,0.0,0.0,0.0,0.0,0.0,0.0,0.0,0.0,0.0,0.0,0.0,0.0,0.0,-2.727,-2.8672,-3.076,-3.1561,-3.3011,-3.51,-3.6382,-3.6985,-3.6936,-3.8037,-3.8723,-3.9177,-3.9849,-4.0424,-4.0867,-4.1522,-4.1374,-4.0759,-3.978,-3.9331,-3.9368,-4.024,-4.0857,-4.1371,-4.1684,-4.1973,-4.221,-4.2328,-4.2657,-4.3069,-4.3474,-4.3777,-4.4005,-4.4005,-4.4005,-4.4036,-4.4091,-4.4318,-4.4572,-4.4751,-4.5074,-4.5381,-4.5586,-4.564,-4.564,-4.5637,-4.5637,-4.5637,-4.5637,-4.5637,-4.5637,-4.5728,-4.5742,-4.5789,-4.5843,-4.5868,-4.5877,-4.5877,-4.5877,-4.5938,-4.6021,-4.6027,-4.6045,-4.6098,-4.6079,-4.6053,-4.606,-4.6104,-4.6158,-4.623,-4.623,-4.5834,-4.4992,-4.5605,-4.5133,-4.3708,-4.4226,-4.378,-0.979,-1.006,0.0,0.0,0.0,0.0,-1.2343,-1.2101,-1.2065,-1.3918,0.0,0.0,0.0,0.0,0.0,0.0,0.0,0.0,0.0,0.0,0.0,0.0,0.0,0.0,0.0,0.0,0.0,0.0,0.0,0.0,0.0,0.0,0.0,0.0,-2.7933,-2.8917,-3.1654,-3.2092,-3.3514,-3.6023,-3.6905,-3.7161,-3.6936,-3.8412,-3.9104,-3.9177,-4.0301,-4.0799,-4.0867,-4.1769,-4.145,-4.0453,-3.9698,-3.9645,-4.0188,-4.1681,-4.2439,-4.2816,-4.2816,-4.3076,-4.3328,-4.2928,-4.3069,-4.3474,-4.3892,-4.4005,-4.4005,-4.4005,-4.4005,-4.4079,-4.4346,-4.4599,-4.48,-4.48,-4.5222,-4.5622,-4.5693,-4.5693,-4.569,-4.57,-4.57,-4.57,-4.57,-4.57,-4.5719,-4.5783,-4.587,-4.5939,-4.5986,-4.6061,-4.6104,-4.6104,-4.6104,-4.6099,-4.6102,-4.6108,-4.6101,-4.6093,-4.6161,-4.6209,-4.6209,-4.6209,-4.623,-4.63,-4.63,-4.587,-4.4992,-4.5004,-4.4547,-4.3689,-4.3559,-4.3439,-0.901,0.0,0.0,0.0,0.0,0.0,0.0,-1.2524,0.0,0.0,0.0,0.0,0.0,0.0,0.0,0.0,0.0,0.0,0.0,0.0,0.0,0.0,0.0,0.0,0.0,0.0,0.0,0.0,0.0,0.0,0.0,0.0,0.0,0.0,-2.9439,-3.0823,-3.2581,-3.3735,-3.5201,-3.6905,-3.7575,-3.7878,-3.7796,-3.8723,-3.9307,-3.9707,-4.0439,-4.1122,-4.1706,-4.1378,-4.0815,-4.0034,-3.9834,-3.9986,-4.0453,-4.1729,-4.2439,-4.2816,-4.2816,-4.3076,-4.3328,-4.2928,-4.3069,-4.3474,-4.3892,-4.4005,-4.4005,-4.4104,-4.4229,-4.4374,-4.4457,-4.483,-4.5144,-4.5096,-4.5381,-4.5676,-4.5693,-4.5706,-4.5703,-4.5761,-4.5764,-4.58,-4.5816,-4.5851,-4.5854,-4.5931,-4.5964,-4.5988,-4.6056,-4.6095,-4.6104,-4.6104,-4.6103,-4.6118,-4.6164,-4.6167,-4.619,-4.6247,-4.6262,-4.6245,-4.6191,-4.6246,-4.6273,-4.63,-4.6292,-4.5878,-4.5,-4.4943,-4.413,-4.2641,-4.2555,-4.21,-0.961,0.0,0.0,0.0,0.0,0.0,0.0,0.0,0.0,0.0,0.0,0.0,0.0,0.0,0.0,0.0,0.0,0.0,0.0,0.0,0.0,0.0,0.0,0.0,0.0,0.0,0.0,0.0,0.0,0.0,0.0,0.0,0.0,0.0,-3.0522,-3.1858,-3.2955,-3.4478,-3.5878,-3.7302,-3.768,-3.797,-3.8202,-3.9075,-3.9707,-4.0154,-4.1075,-4.1724,-4.2021,-4.1216,-4.068,-4.0266,-4.0153,-4.0336,-4.0793,-4.1985,-4.2597,-4.2798,-4.3005,-4.3319,-4.3558,-4.3194,-4.3318,-4.3693,-4.3974,-4.4085,-4.4085,-4.4214,-4.4374,-4.4572,-4.465,-4.5014,-4.5285,-4.5263,-4.5475,-4.5706,-4.578,-4.5777,-4.5812,-4.5905,-4.593,-4.5932,-4.5963,-4.5983,-4.5996,-4.6066,-4.6105,-4.6133,-4.6167,-4.6171,-4.6175,-4.6173,-4.6186,-4.6208,-4.6243,-4.623,-4.6264,-4.6303,-4.63,-4.627,-4.6245,-4.6273,-4.63,-4.6296,-4.6308,-4.5855,-4.4968,-4.4928,-4.3968,-4.2188,-4.2071,-4.1455,-1.0972,0.0,0.0,0.0,0.0,0.0,0.0,0.0,0.0,0.0,0.0,0.0,0.0,0.0,0.0,0.0,0.0,0.0,0.0,0.0,0.0,0.0,0.0,0.0,0.0,0.0,0.0,0.0,0.0,0.0,0.0,0.0,0.0,-2.9856,-3.1228,-3.2355,-3.3199,-3.458,-3.5966,-3.7302,-3.736,-3.7651,-3.819,-3.9376,-4.0154,-4.069,-4.1965,-4.2329,-4.1868,-4.1131,-4.0845,-4.0776,-4.0525,-4.0659,-4.1175,-4.2363,-4.2843,-4.2889,-4.3302,-4.3683,-4.3973,-4.3558,-4.3693,-4.4036,-4.4165,-4.4214,-4.4214,-4.4314,-4.4467,-4.472,-4.4985,-4.5185,-4.5361,-4.5342,-4.5547,-4.5754,-4.5866,-4.5896,-4.596,-4.6071,-4.6113,-4.6111,-4.6112,-4.6118,-4.6135,-4.6189,-4.6259,-4.6308,-4.6308,-4.6308,-4.6306,-4.6303,-4.63,-4.63,-4.63,-4.63,-4.63,-4.63,-4.63,-4.63,-4.63,-4.63,-4.6296,-4.6303,-4.6284,-4.5865,-4.5011,-4.4941,-4.4039,-4.2403,-4.2059,-4.1388,0.0,-1.0997,0.0,0.0,0.0,0.0,0.0,0.0,0.0,0.0,0.0,0.0,0.0,0.0,0.0,0.0,0.0,0.0,0.0,0.0,0.0,0.0,0.0,0.0,0.0,0.0,0.0,0.0,0.0,0.0,0.0,0.0,0.0,-3.062,-3.1548,-3.2946,-3.4738,-3.5639,-3.649,0.0,-3.7781,-3.7899,-3.7784,-3.9506,-4.0977,-4.211,-4.2126,-4.1759,-4.1098,-4.071,-4.0367,-4.0154,-4.0337,-4.0659,-4.1175,-4.2537,-4.3032,-4.3103,-4.3584,-4.3987,-4.4236,-4.366,-4.3823,-4.4226,-4.4214,-4.4244,-4.4344,-4.453,-4.4795,-4.5052,-4.5322,-4.5526,-4.5673,-4.57,-4.5793,-4.5847,-4.5901,-4.5987,-4.6066,-4.6164,-4.6177,-4.6192,-4.6251,-4.6264,-4.6262,-4.627,-4.6285,-4.6308,-4.6308,-4.6303,-4.6309,-4.63,-4.63,-4.63,-4.63,-4.63,-4.63,-4.63,-4.63,-4.63,-4.63,-4.63,-4.6296,-4.6303,-4.6255,-4.6128,-4.5916,-4.5235,-4.4595,-4.3969,-4.2557,-4.1636,0.0,0.0,0.0,0.0,0.0,0.0,0.0,0.0,0.0,0.0,0.0,0.0,0.0,0.0,0.0,0.0,0.0,0.0,0.0,0.0,0.0,0.0,0.0,0.0,0.0,0.0,0.0,0.0,0.0,0.0,0.0,-2.8633,-2.9639,-3.0895,-3.1978,-3.3399,-3.517,-3.5928,-3.678,-3.7738,-3.7826,-3.8191,-3.8819,-3.9822,-4.1004,-4.2313,-4.1878,-4.1329,-4.0638,-4.0662,-4.0419,-4.0204,-4.0514,-4.099,-4.1515,-4.2247,-4.269,-4.2964,-4.3405,-4.3762,-4.4042,-4.392,-4.4079,-4.4285,-4.4285,-4.4314,-4.4393,-4.4669,-4.4938,-4.5182,-4.5438,-4.5645,-4.58,-4.5805,-4.5829,-4.5877,-4.5968,-4.6037,-4.6088,-4.622,-4.6227,-4.6215,-4.6287,-4.6308,-4.6308,-4.6308,-4.6307,-4.6301,-4.6301,-4.6297,-4.6309,-4.63,-4.63,-4.63,-4.63,-4.63,-4.63,-4.63,-4.63,-4.63,-4.6292,-4.6292,-4.6288,-4.6255,-4.6226,-4.6209,-4.619,-4.5679,-4.5084,-4.4418,-4.3428,-4.237,0.0,0.0,0.0,0.0,0.0,0.0,0.0,0.0,0.0,0.0,0.0,0.0,0.0,0.0,0.0,0.0,0.0,0.0,0.0,0.0,0.0,0.0,0.0,0.0,0.0,0.0,0.0,0.0,0.0,0.0,-2.8462,-2.93,-3.0216,-3.1119,-3.2253,-3.368,-3.539,-3.5899,-3.6722,-3.7943,-3.7665,-3.8394,-3.9908,-3.9927,-4.067,-4.1845,-4.1427,-4.0912,-4.042,-4.0632,-4.0595,-4.0449,-4.0913,-4.1436,-4.1917,-4.2002,-4.2315,-4.2808,-4.3232,-4.3526,-4.3823,-4.4207,-4.4314,-4.4325,-4.4233,-4.4233,-4.4288,-4.4397,-4.4709,-4.5073,-4.5297,-4.5576,-4.58,-4.58,-4.5819,-4.5867,-4.6046,-4.6056,-4.6083,-4.6241,-4.6247,-4.623,-4.6289,-4.6308,-4.6308,-4.6308,-4.6297,-4.63,-4.63,-4.6293,-4.6295,-4.6303,-4.63,-4.63,-4.63,-4.63,-4.63,-4.63,-4.63,-4.6292,-4.6303,-4.6279,-4.6255,-4.6206,-4.6189,-4.6196,-4.6196,-4.6047,-4.551,-4.4602,-4.4243,-4.3234,0.0,0.0,0.0,0.0,0.0,0.0,0.0,0.0,0.0,0.0,0.0,0.0,0.0,0.0,0.0,0.0,0.0,0.0,0.0,0.0,0.0,0.0,0.0,0.0,0.0,0.0,0.0,0.0,0.0,0.0,-2.8462,-2.93,-3.0432,-3.1856,-3.2155,-3.347,-3.6143,-3.5764,-3.5921,-3.6791,-3.7023,-3.7889,-3.9251,-3.9361,-4.0186,-4.1451,-4.0812,-4.0464,-4.0387,-4.0148,-4.0189,-4.0449,-4.11,-4.1552,-4.1959,-4.2351,-4.2691,-4.3032,-4.3511,-4.3809,-4.4091,-4.4306,-4.443,-4.4327,-4.3606,-4.3533,-4.362,-4.3109,-4.3618,-4.4393,-4.4645,-4.5264,-4.58,-4.58,-4.5877,-4.5969,-4.6009,-4.6106,-4.6177,-4.6208,-4.6259,-4.6289,-4.6308,-4.6308,-4.6307,-4.6293,-4.6303,-4.63,-4.63,-4.6303,-4.6303,-4.63,-4.63,-4.63,-4.63,-4.63,-4.63,-4.63,-4.6292,-4.6308,-4.6303,-4.6245,-4.6209,-4.6209,-4.6203,-4.6196,-4.6196,-4.6008,-4.5757,-4.5413,-4.4458,-4.3824,-0.9639,0.0,0.0,0.0,0.0,0.0,0.0,0.0,0.0,0.0,0.0,0.0,0.0,0.0,0.0,0.0,0.0,0.0,0.0,0.0,0.0,0.0,0.0,0.0,0.0,0.0,0.0,0.0,0.0,-2.8385,-2.9184,-2.996,-3.0921,-3.2074,-3.2506,-3.3734,-3.5778,-3.5292,-3.5619,-3.6888,-3.7778,-3.8592,-3.9205,-3.9715,-4.0236,-4.0796,-4.0067,-3.9823,-3.9897,-4.0239,-4.0531,-4.0832,-4.1596,-4.2044,-4.2351,-4.2673,-4.2796,-4.2763,-4.3111,-4.3092,-4.295,-4.3025,-4.3079,-4.3023,-4.264,-4.2699,-4.2834,-4.2733,-4.31,-4.358,-4.3805,-4.4136,-4.4523,-4.5007,-4.52,-4.5407,-4.5891,-4.6085,-4.6158,-4.6192,-4.6248,-4.6301,-4.6306,-4.6307,-4.6305,-4.6295,-4.6306,-4.63,-4.63,-4.63,-4.63,-4.63,-4.63,-4.63,-4.63,-4.63,-4.63,-4.6292,-4.6308,-4.6279,-4.6245,-4.6215,-4.6203,-4.619,-4.6127,-4.6074,-4.6027,-4.5744,-4.5533,-4.5358,-4.482,-4.4265,0.0,0.0,0.0,0.0,0.0,0.0,0.0,0.0,0.0,0.0,0.0,0.0,0.0,0.0,0.0,0.0,0.0,0.0,0.0,0.0,0.0,0.0,0.0,0.0,0.0,0.0,0.0,0.0,0.0,-2.8451,-2.9754,-3.0482,-3.1267,-3.2074,-3.2791,-3.3888,-3.5427,-3.5248,-3.5666,-3.6914,-3.8075,-3.8801,-3.9046,-3.9791,-4.01,-4.0067,-3.9322,-3.9149,-3.9428,-3.997,-4.0354,-4.0672,-4.144,-4.1841,-4.2037,-4.2341,-4.2331,-4.2247,-4.2493,-4.2333,-4.1991,-4.1991,-4.1991,-4.198,-4.1832,-4.1917,-4.2091,-4.2145,-4.2424,-4.278,-4.293,-4.3131,-4.346,-4.4117,-4.433,-4.4697,-4.5814,-4.6093,-4.6163,-4.621,-4.6269,-4.6303,-4.6295,-4.6297,-4.6297,-4.6297,-4.6309,-4.63,-4.63,-4.63,-4.63,-4.63,-4.63,-4.63,-4.63,-4.63,-4.6292,-4.6303,-4.6279,-4.6245,-4.6203,-4.6203,-4.6183,-4.6146,-4.5988,-4.5914,-4.5894,-4.5517,-4.5304,-4.5207,-4.5026,-4.464,0.0,0.0,0.0,0.0,0.0,0.0,0.0,0.0,0.0,0.0,0.0,0.0,0.0,0.0,0.0,0.0,0.0,0.0,0.0,0.0,0.0,0.0,0.0,0.0,0.0,0.0,0.0,0.0,0.0,-2.9101,-2.9767,-3.0482,-3.1267,-3.2074,-3.2791,-3.3943,-3.559,-3.5931,-3.6154,-3.6257,-3.7105,-3.7801,-3.8399,-3.9018,-3.9338,-3.9342,-3.8576,-3.8538,-3.9001,-3.874,-3.8921,-3.9447,-4.0081,-4.0306,-4.0381,-4.0848,-4.1148,-4.1379,-4.1601,-4.1829,-4.1991,-4.1991,-4.1991,-4.1875,-4.1312,-4.1292,-4.1323,-4.077,-4.1306,-4.2054,-4.2067,-4.2686,-4.3305,-4.3363,-4.3485,-4.4032,-4.58,-4.6192,-4.6214,-4.628,-4.6303,-4.63,-4.6303,-4.6303,-4.6303,-4.6303,-4.63,-4.63,-4.63,-4.63,-4.63,-4.63,-4.63,-4.63,-4.63,-4.6292,-4.6303,-4.6303,-4.624,-4.6209,-4.6203,-4.6209,-4.6146,-4.6007,-4.5757,-4.5711,-4.5894,-4.543,-4.5207,-4.5207,-4.5,-4.4876,0.0,0.0,0.0,0.0,0.0,0.0,0.0,0.0,0.0,0.0,0.0,0.0,0.0,0.0,0.0,0.0,0.0,0.0,0.0,0.0,0.0,0.0,0.0,0.0,0.0,0.0,0.0,0.0,0.0,0.0,-2.9941,-3.1082,-3.2001,-3.2791,-3.3673,-3.4569,-3.5355,-3.5919,-3.6488,-3.6966,-3.7648,-3.8311,-3.8969,-3.9202,-3.9325,-3.9382,-3.8422,-3.8415,-3.9126,-3.8908,-3.914,-3.9669,-4.0182,-4.051,-4.0686,-4.1038,-4.096,-4.0754,-4.1006,-4.0795,-4.0459,-4.0459,-4.0459,-4.0434,-4.0356,-4.0478,-4.0615,-4.0518,-4.0858,-4.1235,-4.1235,-4.1448,-4.1853,-4.2451,-4.3091,-4.3907,-4.5164,-4.5872,-4.6269,-4.6309,-4.63,-4.63,-4.63,-4.63,-4.63,-4.63,-4.63,-4.63,-4.63,-4.63,-4.63,-4.63,-4.63,-4.63,-4.63,-4.6292,-4.6279,-4.6236,-4.6215,-4.6196,-4.6209,-4.6203,-4.6111,-4.5936,-4.5703,-4.5565,-4.5517,-4.5225,-4.5049,-4.5004,-4.4924,-4.4895,-0.8537,0.0,0.0,0.0,0.0,0.0,0.0,0.0,0.0,0.0,0.0,0.0,0.0,0.0,0.0,0.0,0.0,0.0,0.0,0.0,0.0,0.0,0.0,0.0,0.0,0.0,0.0,0.0,0.0,0.0,-2.9771,-3.1294,-3.2577,-3.3659,-3.4452,-3.4949,-3.5213,-3.5894,-3.6662,-3.7429,-3.7994,-3.8645,-3.9272,-3.9325,-3.9448,-3.947,-3.8447,-3.8418,-3.9072,-3.8604,-3.877,-3.93,-3.9607,-3.9886,-4.0119,-4.0406,-4.0277,-4.0057,-4.0289,-4.0046,-3.9602,-3.9602,-3.965,-3.9731,-3.9956,-4.0139,-4.0339,-4.0534,-4.0706,-4.0848,-4.1119,-4.1226,-4.1334,-4.1682,-4.2481,-4.3344,-4.3991,-4.504,-4.5941,-4.6245,-4.63,-4.63,-4.63,-4.63,-4.63,-4.63,-4.63,-4.63,-4.63,-4.63,-4.63,-4.63,-4.6296,-4.6296,-4.6296,-4.6284,-4.625,-4.6201,-4.6203,-4.619,-4.6196,-4.6189,-4.6036,-4.5796,-4.565,-4.5453,-4.5203,-4.5023,-4.4943,-4.4895,-4.4895,-4.4846,0.0,0.0,0.0,0.0,0.0,0.0,0.0,0.0,0.0,0.0,0.0,0.0,0.0,0.0,0.0,0.0,0.0,0.0,0.0,0.0,0.0,0.0,0.0,0.0,0.0,0.0,0.0,0.0,0.0,-2.785,-2.9267,-3.1164,-3.2946,-3.4631,-3.503,-3.5213,-3.5213,-3.6006,-3.6784,-3.7429,-3.8051,-3.8662,-3.9325,-3.9448,-3.9501,-3.9506,-3.8721,-3.8553,-3.8856,-3.7771,-3.7685,-3.8228,-3.8262,-3.834,-3.8541,-3.8803,-3.9036,-3.9256,-3.9527,-3.9602,-3.9602,-3.962,-3.9731,-3.9956,-4.0158,-4.0358,-4.0592,-4.0771,-4.0848,-4.1054,-4.1809,-4.207,-4.1937,-4.1094,-4.1613,-4.2324,-4.2385,-4.3723,-4.5187,-4.6085,-4.628,-4.63,-4.63,-4.63,-4.63,-4.63,-4.63,-4.63,-4.63,-4.63,-4.63,-4.63,-4.6292,-4.6303,-4.6303,-4.624,-4.6203,-4.6203,-4.6209,-4.6196,-4.6196,-4.6138,-4.5928,-4.5587,-4.5519,-4.5342,-4.501,-4.4919,-4.4895,-4.4895,-4.4914,-4.4764,-0.7901,0.0,0.0,0.0,0.0,0.0,0.0,0.0,0.0,0.0,0.0,0.0,0.0,0.0,0.0,0.0,0.0,0.0,0.0,0.0,0.0,0.0,0.0,0.0,0.0,0.0,0.0,0.0,-2.6296,-2.7708,-2.9981,-3.2581,-3.4249,-3.4802,-3.5082,-3.5294,-3.5439,-3.6538,-3.7191,-3.7429,-3.8495,-3.9148,-3.9448,-3.9501,-3.9764,-4.0251,-3.9824,-3.9588,-3.9501,-3.8679,-3.8618,-3.9095,-3.9228,-3.9072,-3.8833,-3.9045,-3.9283,-3.9502,-3.9577,-3.9602,-3.9626,-3.9777,-3.9848,-3.9958,-4.0304,-4.0861,-4.142,-4.1602,-4.217,-4.2594,-4.2238,-4.2652,-4.2806,-4.1331,-4.1699,-4.2388,-4.2399,-4.2786,-4.3567,-4.507,-4.587,-4.63,-4.63,-4.63,-4.63,-4.63,-4.63,-4.63,-4.63,-4.63,-4.6296,-4.6292,-4.6308,-4.6279,-4.6231,-4.6215,-4.6203,-4.6203,-4.6209,-4.6127,-4.5978,-4.5958,-4.5757,-4.5323,-4.5285,-4.5163,-4.4919,-4.4895,-4.4895,-4.4895,-4.4796,-4.4605,0.0,0.0,0.0,0.0,0.0,0.0,0.0,-1.3259,0.0,0.0,0.0,0.0,0.0,0.0,0.0,0.0,0.0,0.0,0.0,0.0,0.0,0.0,0.0,0.0,0.0,0.0,0.0,-2.5519,-2.6138,-2.7769,-3.0719,-3.3336,-3.4883,-3.5001,-3.5213,-3.5474,-3.5846,-3.6906,-3.7546,-3.7764,-3.8494,-3.9096,-3.9468,-3.8904,-3.9193,-4.0079,-3.9834,-3.9752,-3.9789,-3.9568,-3.9247,-3.8914,-3.9126,-3.9289,-3.9364,-3.9259,-3.9586,-4.0046,-3.9733,-3.9602,-3.9626,-3.9826,-4.0186,-4.0519,-4.0504,-4.1127,-4.1764,-4.1564,-4.2175,-4.2765,-4.2313,-4.2629,-4.271,-4.132,-4.1442,-4.1869,-4.1869,-4.2142,-4.2923,-4.466,-4.5402,-4.587,-4.6241,-4.63,-4.63,-4.63,-4.63,-4.63,-4.63,-4.63,-4.6296,-4.6303,-4.626,-4.6231,-4.6201,-4.6203,-4.6183,-4.6127,-4.6083,-4.5978,-4.5783,-4.575,-4.5584,-4.5207,-4.5204,-4.5094,-4.4895,-4.4895,-4.487,-4.4796,-4.4613,-4.444,0.0,0.0,0.0,0.0,0.0,0.0,-1.2371,-1.2861,-1.3449,0.0,0.0,0.0,0.0,0.0,0.0,0.0,0.0,0.0,0.0,0.0,0.0,0.0,0.0,0.0,0.0,-2.4897,-2.5532,-2.5598,-2.638,-2.82,-3.124,-3.3609,-3.4927,-3.5213,-3.5424,-3.5797,-3.6368,-3.7071,-3.7706,-3.8278,-3.8245,-3.8648,-3.9387,-3.817,-3.8241,-3.9353,-3.9311,-3.9474,-3.9795,-4.0221,-3.9568,-3.8352,-3.8593,-3.9246,-4.0041,-3.9565,-3.9986,-4.0703,-3.9971,-3.9677,-3.9669,-3.9965,-4.0613,-4.1188,-4.08,-4.1296,-4.1886,-4.1265,-4.1726,-4.2382,-4.2358,-4.2401,-4.224,-4.1365,-4.1206,-4.1225,-4.1127,-4.1635,-4.2591,-4.425,-4.4719,-4.507,-4.5753,-4.5948,-4.6046,-4.6144,-4.6163,-4.6183,-4.63,-4.63,-4.6296,-4.6284,-4.6231,-4.6201,-4.6203,-4.6209,-4.6146,-4.6027,-4.5936,-4.5815,-4.5607,-4.5503,-4.538,-4.5166,-4.5156,-4.5061,-4.487,-4.487,-4.4796,-4.4685,-4.443,-4.4285,0.0,0.0,0.0,0.0,0.0,0.0,-1.0846,-1.1408,-1.1996,0.0,0.0,0.0,0.0,0.0,0.0,0.0,0.0,0.0,0.0,0.0,0.0,0.0,0.0,0.0,0.0,-2.421,-2.4995,-2.5532,-2.7762,-2.963,-3.0801,-3.3064,-3.4584,-3.5198,-3.5424,-3.5797,-3.6368,-3.7071,-3.7706,-3.8278,-3.8335,-3.852,-3.8739,-3.8323,-3.855,-3.9241,-3.954,-3.958,-3.9499,-3.9569,-3.9441,-3.922,-3.9612,-3.9933,-4.0145,-4.0408,-4.0621,-4.0778,-4.0609,-4.014,-3.9768,-4.0783,-4.0807,-4.0594,-4.1441,-4.1893,-4.2194,-4.2737,-4.3549,-4.4125,-4.3495,-4.3342,-4.3144,-4.2316,-4.2148,-4.1947,-4.1244,-4.0678,-4.062,-4.1654,-4.2982,-4.3782,-4.3255,-4.3743,-4.4445,-4.5148,-4.5246,-4.5515,-4.621,-4.6308,-4.6279,-4.6234,-4.6209,-4.6203,-4.6203,-4.6203,-4.6189,-4.6154,-4.6008,-4.5803,-4.5615,-4.5378,-4.5165,-4.4953,-4.4967,-4.4889,-4.4738,-4.4738,-4.4685,-4.4542,-4.4373,-4.4207,0.0,0.0,0.0,-1.0035,0.0,0.0,0.0,-1.1249,-1.1694,0.0,0.0,0.0,0.0,0.0,0.0,0.0,0.0,0.0,0.0,0.0,0.0,0.0,0.0,0.0,0.0,-2.4821,-2.5685,-2.6114,-2.7897,-2.919,-2.9954,-3.2043,-3.3386,-3.3868,-3.4542,-3.5232,-3.5876,-3.6441,-3.7077,-3.7814,-3.7484,-3.7586,-3.8119,-3.749,-3.7707,-3.862,-3.9061,-3.9084,-3.886,-3.9325,-3.9319,-3.8988,-3.9369,-3.9801,-4.0253,-4.0207,-4.0459,-4.0741,-4.0328,-4.0013,-3.9857,-4.0577,-4.0862,-4.1001,-4.1312,-4.1439,-4.1679,-4.2565,-4.2849,-4.2903,-4.2947,-4.2648,-4.2246,-4.1858,-4.1752,-4.1518,-4.0639,-4.0112,-3.9683,-3.9273,-4.0268,-4.142,-4.2259,-4.3118,-4.384,-4.4289,-4.4715,-4.5156,-4.5601,-4.6006,-4.625,-4.6209,-4.6203,-4.6196,-4.6203,-4.6196,-4.6154,-4.6066,-4.5859,-4.5665,-4.5417,-4.5163,-4.5004,-4.4895,-4.4821,-4.4789,-4.4712,-4.4578,-4.4487,-4.4401,-4.4237,-4.4116,0.0,0.0,0.0,0.0,0.0,-1.0613,0.0,0.0,0.0,0.0,0.0,0.0,0.0,0.0,0.0,0.0,0.0,0.0,0.0,0.0,0.0,0.0,0.0,0.0,0.0,-2.503,-2.6085,-2.6553,-2.7216,-2.8092,-2.9245,-3.1043,-3.2184,-3.2512,-3.3678,-3.4643,-3.5268,-3.5835,-3.6522,-3.7303,-3.6602,-3.6745,-3.7554,-3.6644,-3.6869,-3.7932,-3.8394,-3.8438,-3.828,-3.9112,-3.9127,-3.8603,-3.8862,-3.9546,-4.0337,-3.9951,-4.0234,-4.0703,-4.0046,-3.984,-3.9954,-4.0311,-4.1159,-4.187,-4.1067,-4.1078,-4.1489,-4.2063,-4.1743,-4.1451,-4.2337,-4.1832,-4.115,-4.1309,-4.1225,-4.0854,-3.9995,-3.9683,-3.9117,-3.7594,-3.7867,-3.9058,-4.1283,-4.2376,-4.3056,-4.3411,-4.4181,-4.4816,-4.4968,-4.5685,-4.6195,-4.6203,-4.6196,-4.6196,-4.6196,-4.6196,-4.613,-4.5953,-4.5728,-4.5505,-4.5283,-4.5042,-4.487,-4.4846,-4.477,-4.4712,-4.4632,-4.4411,-4.4314,-4.4285,-4.4097,-4.4005,0.0,0.0,0.0,0.0,-1.0522,0.0,0.0,0.0,0.0,0.0,0.0,0.0,0.0,0.0,0.0,0.0,0.0,0.0,0.0,0.0,0.0,0.0,0.0,0.0,0.0,0.0,-2.4554,-2.6056,-2.6065,-2.6933,-2.9173,-3.0748,-3.1855,-3.2497,-3.3678,-3.4643,-3.5268,-3.5943,-3.6626,-3.7303,-3.6731,-3.6755,-3.7261,-3.6939,-3.7091,-3.7593,-3.8059,-3.8231,-3.8225,-3.8524,-3.8707,-3.8862,-3.9073,-3.9667,-4.0412,-4.0589,-4.0722,-4.0797,-4.0703,-4.033,-4.0049,-4.0959,-4.2143,-4.2918,-4.1361,-4.1925,-4.2995,-4.2447,-4.2217,-4.2376,-4.3299,-4.232,-4.1289,-4.2064,-4.1654,-4.0854,-3.9995,-3.9234,-3.8453,-3.7497,-3.7379,-3.777,-3.8843,-3.9715,-4.0762,-4.2327,-4.329,-4.4119,-4.483,-4.5663,-4.6203,-4.6203,-4.6203,-4.6203,-4.6196,-4.6196,-4.6154,-4.6084,-4.5783,-4.5555,-4.5472,-4.5113,-4.4846,-4.4738,-4.4821,-4.4693,-4.4344,-4.443,-4.443,-4.4285,-4.4097,-4.4005,0.0,0.0,0.0,0.0,0.0,0.0,0.0,0.0,-1.0522,0.0,0.0,0.0,0.0,0.0,0.0,0.0,0.0,0.0,0.0,0.0,0.0,0.0,0.0,0.0,0.0,0.0,0.0,0.0,-2.598,-2.6517,-2.8194,-2.9282,-3.0283,-3.1232,-3.2462,-3.3549,-3.4579,-3.5264,-3.5794,-3.6133,-3.6231,-3.642,-3.6706,-3.7079,-3.7358,-3.7542,-3.802,-3.8274,-3.8401,-3.8634,-3.8873,-3.912,-3.9335,-3.9638,-3.9963,-4.0059,-4.0084,-4.0109,-4.0236,-4.0179,-4.0177,-4.0831,-4.1803,-4.2563,-4.1867,-4.214,-4.2733,-4.2944,-4.2662,-4.2396,-4.2781,-4.1991,-4.1186,-4.1557,-4.1361,-4.0737,-3.939,-3.8843,-3.8199,-3.6807,-3.6554,-3.6804,-3.764,-3.8908,-4.0216,-4.1464,-4.2773,-4.3752,-4.4097,-4.5358,-4.6014,-4.5494,-4.5903,-4.6196,-4.6196,-4.6154,-4.6102,-4.6056,-4.5699,-4.5437,-4.5341,-4.4972,-4.4796,-4.4815,-4.464,-4.4496,-4.443,-4.4296,-4.4188,-4.4097,-4.4036,-4.3974,-0.9967,0.0,0.0,0.0,0.0,0.0,0.0,0.0,0.0,0.0,0.0,0.0,0.0,0.0,0.0,0.0,0.0,0.0,0.0,0.0,0.0,0.0,0.0,0.0,0.0,0.0,0.0,-2.5661,-2.5502,-2.6017,-2.7494,-2.8233,-2.9124,-3.0356,-3.1589,-3.2809,-3.4101,-3.4804,-3.5198,-3.5291,-3.5871,-3.6387,-3.6804,-3.7297,-3.7703,-3.8026,-3.8144,-3.8322,-3.8541,-3.8803,-3.9036,-3.921,-3.9502,-3.9602,-3.9602,-3.9602,-3.9602,-3.9626,-3.9848,-4.0062,-4.0345,-4.0699,-4.1449,-4.2149,-4.1927,-4.2005,-4.2344,-4.2991,-4.2571,-4.2006,-4.2255,-4.1717,-4.1108,-4.1108,-4.1108,-4.0639,-3.8963,-3.859,-3.806,-3.6332,-3.5997,-3.6189,-3.677,-3.8096,-3.9462,-4.0578,-4.1983,-4.3078,-4.3545,-4.4702,-4.5436,-4.526,-4.5611,-4.5942,-4.6176,-4.6138,-4.6037,-4.5922,-4.5594,-4.5341,-4.5213,-4.4895,-4.4764,-4.477,-4.4551,-4.4383,-4.4354,-4.4158,-4.4036,-4.4005,-4.3974,-4.3961,0.0,0.0,0.0,-1.0627,0.0,0.0,0.0,0.0,-1.0522,0.0,0.0,0.0,0.0,0.0,0.0,0.0,0.0,0.0,0.0,0.0,0.0,0.0,0.0,0.0,0.0,0.0,0.0,-2.4019,-2.414,-2.5171,-2.75,-2.8233,-2.9124,-3.0356,-3.1589,-3.2809,-3.4101,-3.4899,-3.5308,-3.5291,-3.5975,-3.6915,-3.8046,-3.7676,-3.8169,-3.9315,-3.8518,-3.8322,-3.8541,-3.8803,-3.9036,-3.921,-3.9502,-3.9602,-3.9602,-3.9602,-3.9602,-3.9626,-3.9832,-4.0155,-4.0538,-4.0815,-4.1489,-4.2043,-4.1209,-4.1529,-4.2216,-4.2314,-4.1713,-4.1258,-4.2158,-4.1755,-4.1108,-4.1108,-4.1108,-4.0639,-3.8963,-3.8544,-3.8011,-3.6332,-3.5994,-3.6005,-3.6025,-3.6738,-3.7878,-3.958,-4.0616,-4.1773,-4.339,-4.3643,-4.4325,-4.5981,-4.5436,-4.528,-4.6137,-4.6138,-4.5988,-4.5733,-4.5509,-4.5341,-4.5213,-4.4991,-4.477,-4.4515,-4.4632,-4.4477,-4.4005,-4.4207,-4.4177,-4.4005,-4.3929,-4.3897,0.0,0.0,-1.3195,-1.2166,0.0,0.0,0.0,0.0,0.0,0.0,0.0,0.0,0.0,0.0,0.0,0.0,0.0,0.0,0.0,0.0,0.0,0.0,0.0,0.0,0.0,0.0,0.0,-2.3991,-2.4793,-2.5931,-2.7494,-2.785,-2.8647,-3.0206,-3.1162,-3.2402,-3.4013,-3.4948,-3.5681,-3.6152,-3.7068,-3.7691,-3.8058,-3.9026,-3.9174,-3.8679,-3.9574,-3.953,-3.881,-3.9592,-3.9722,-3.9458,-3.9552,-3.9602,-3.9602,-3.9602,-3.9631,-3.9717,-4.0101,-4.0838,-4.154,-4.1062,-4.15,-4.2141,-4.1859,-4.1568,-4.1576,-4.2753,-4.208,-4.1216,-4.2168,-4.1748,-4.1108,-4.1108,-4.1108,-4.0639,-3.8963,-3.8544,-3.8007,-3.6321,-3.5962,-3.5934,-3.5924,-3.6153,-3.7322,-4.0212,-4.0902,-4.1714,-4.3383,-4.3598,-4.3838,-4.4423,-4.4694,-4.5184,-4.606,-4.6027,-4.591,-4.578,-4.5629,-4.5438,-4.5199,-4.491,-4.4681,-4.4496,-4.4335,-4.4218,-4.4207,-4.4147,-4.4036,-4.3929,-4.3851,-4.3818,-1.3769,-1.4289,0.0,-1.3233,-1.3259,0.0,-1.1702,0.0,0.0,0.0,0.0,0.0,0.0,0.0,0.0,0.0,0.0,0.0,0.0,0.0,0.0,0.0,0.0,0.0,0.0,0.0,-2.1947,-2.3949,-2.4765,-2.5902,0.0,0.0,-2.8396,-3.0149,-3.0959,-3.2238,-3.3972,-3.5014,-3.5802,-3.6441,-3.7565,-3.8139,-3.8298,-3.9823,-3.9822,-3.8715,-4.0221,-4.0299,-3.9383,-4.0095,-4.024,-3.999,-3.969,-3.9795,-4.007,-3.9744,-3.9785,-3.9984,-4.0345,-4.1029,-4.1645,-4.1073,-4.1276,-4.1743,-4.1743,-4.1354,-4.1071,-4.1916,-4.1593,-4.108,-4.1387,-4.1299,-4.1108,-4.1104,-4.1108,-4.0639,-3.8935,-3.8537,-3.8003,-3.6294,-3.5929,-3.5899,-3.5889,-3.5908,-3.6771,-3.933,-3.9986,-4.0799,-4.2494,-4.2967,-4.3369,-4.3953,-4.4459,-4.5113,-4.5969,-4.591,-4.5822,-4.5814,-4.5524,-4.5304,-4.5201,-4.4819,-4.4417,-4.398,-4.4039,-4.3998,-4.3778,-4.3906,-4.3961,-4.3915,-4.3786,-4.3719]}]]